Date StartTime U_cm/s V_cm/s W_cm/s Ustd_cm/s Vstd_cm/s Wstd_cm/s Uvar_(cm/s)^2 Vvar_(cm/s)^2 Wvar_(cm/s)^2 KE_(m/s)^2 TurbulentKE_(m/s)^2 HorizWindSpeed_cm/s FrictionSpeec_cm/s DragCoef SpeedOfSound_m/s SonicTemperature_C Pressure_mb 
11/08/2013  00:00:00       86.005       49.542       38.934       47.117       47.494       38.886     2220.020     2255.716     1512.129        0.868        0.299       99.254       31.204        0.099      337.837       10.081      863.186
11/08/2013  00:01:00       66.037       65.006       10.020       46.217       44.467       37.336     2136.020     1977.339     1394.008        0.710        0.275       92.664       28.002        0.091      337.905       10.197      863.218
11/08/2013  00:02:00       52.651       53.266        8.446       38.238       32.221       24.172     1462.118     1038.166      584.269        0.438        0.154       74.895       19.820        0.070      338.066       10.465      863.236
11/08/2013  00:03:00      165.047       79.558       23.558       42.423       31.035       27.118     1799.743      963.151      735.406        1.881        0.175      183.221       24.195        0.017      338.033       10.409      863.182
11/08/2013  00:04:00       59.661       30.254       31.521       82.533       50.265       34.049     6811.776     2526.524     1159.319        0.798        0.525       66.894       32.907        0.242      337.918       10.216      863.125
11/08/2013  00:05:00      -35.802        2.356       -5.625       52.443       23.930       19.633     2750.256      572.637      385.467        0.251        0.185       35.880       16.799        0.219      338.036       10.414      863.161
11/08/2013  00:06:00      -86.738      -42.502      -14.983       43.780       19.227       14.318     1916.697      369.680      205.003        0.602        0.125       96.591        7.265        0.006      337.919       10.219      863.194
11/08/2013  00:07:00       22.428      -58.534        3.932       19.807       18.153       21.739      392.313      329.532      472.568        0.257        0.060       62.684        5.691        0.008      338.301       10.860      863.211
11/08/2013  00:08:00       10.510       32.538       23.014       24.871       35.802       16.738      618.589     1281.772      280.161        0.194        0.109       34.193       16.528        0.234      338.209       10.706      863.218
11/08/2013  00:09:00        7.045       18.004       14.162       29.672       24.848       12.840      880.412      617.439      164.857        0.112        0.083       19.333       13.089        0.458      338.169       10.638      863.212
11/08/2013  00:10:00       22.069      -39.653       -7.123       31.151       13.776       12.534      970.387      189.786      157.093        0.171        0.066       45.380        7.836        0.030      338.372       10.978      863.233
11/08/2013  00:11:00       52.811       36.195       14.357       14.403       21.989       12.865      207.444      483.505      165.513        0.258        0.043       64.024       14.144        0.049      338.339       10.923      863.253
11/08/2013  00:12:00      126.229       59.849       21.240       38.336       21.564       29.266     1469.685      464.988      856.477        1.138        0.140      139.699       24.373        0.030      338.294       10.847      863.235
11/08/2013  00:13:00       46.044       48.313       37.651       52.794       46.349       30.775     2787.205     2148.215      947.085        0.588        0.294       66.740       21.135        0.100      338.132       10.576      863.241
11/08/2013  00:14:00        3.210       33.751       40.154       15.187       38.322       23.881      230.640     1468.596      570.281        0.252        0.113       33.903       27.359        0.651      337.981       10.321      863.273
11/08/2013  00:15:00       25.106       -7.912        8.490       32.148       12.330        9.109     1033.503      152.023       82.967        0.102        0.063       26.323        5.868        0.050      337.968       10.301      863.302
11/08/2013  00:16:00       67.548      -20.402        7.052       14.018       10.584       12.694      196.491      112.021      161.134        0.275        0.023       70.562        1.929        0.001      338.059       10.454      863.317
11/08/2013  00:17:00       13.264      -20.534        7.813       29.896       41.809       30.497      893.775     1748.023      930.049        0.211        0.179       24.445       23.003        0.885      337.944       10.259      863.294
11/08/2013  00:18:00        3.300        9.651       47.772       22.152       31.554       17.863      490.714      995.666      319.071        0.210        0.090       10.200       20.746        4.137      337.857       10.115      863.273
11/08/2013  00:19:00       24.987      -12.642        1.953       19.775       19.894       22.831      391.058      395.759      521.256        0.105        0.065       28.003       17.791        0.404      337.964       10.293      863.287
11/08/2013  00:20:00      -13.909       -5.514       -6.034       13.983       10.131       11.896      195.526      102.634      141.513        0.035        0.022       14.962        2.466        0.027      338.061       10.457      863.301
11/08/2013  00:21:00       51.276        3.860       17.330       35.368       29.460       22.253     1250.878      867.892      495.195        0.278        0.131       51.421       22.414        0.190      338.194       10.679      863.289
11/08/2013  00:22:00     -106.421       -3.262       -4.937       68.184       31.952       27.945     4649.019     1020.918      780.929        0.890        0.323      106.471       39.264        0.136      337.842       10.090      863.301
11/08/2013  00:23:00     -159.823      -34.879      -18.120       53.398       27.737       18.881     2851.394      769.355      356.497        1.553        0.199      163.584       12.004        0.005      337.734        9.908      863.347
11/08/2013  00:24:00       52.186       41.106        6.159       35.112       31.182       34.561     1232.870      972.293     1194.460        0.392        0.170       66.431       18.411        0.077      338.170       10.640      863.331
11/08/2013  00:25:00      -15.307      -29.877       -7.422       22.786       41.657       13.766      519.224     1735.270      189.492        0.181        0.122       33.570        8.896        0.070      338.038       10.417      863.332
11/08/2013  00:26:00      -23.491       52.816      -14.083       30.414       11.740       11.866      925.034      137.837      140.794        0.237        0.060       57.805       13.769        0.057      338.013       10.376      863.347
11/08/2013  00:27:00       25.474       32.433        8.057       25.635       29.401       13.100      657.162      864.435      171.620        0.173        0.085       41.240       12.398        0.090      338.299       10.857      863.344
11/08/2013  00:28:00       -7.777       23.647       -9.520       19.620       11.264        5.094      384.931      126.878       25.951        0.062        0.027       24.893        4.608        0.034      338.368       10.972      863.349
11/08/2013  00:29:00        2.591      -17.249       -2.356       23.681       13.821        7.422      560.806      191.031       55.082        0.056        0.040       17.443        1.970        0.013      338.213       10.710      863.352
11/08/2013  00:30:00      -22.980      -24.524        2.941       14.001       12.961       11.345      196.041      167.993      128.716        0.082        0.025       33.608        9.369        0.078      338.085       10.496      863.359
11/08/2013  00:31:00       51.192       11.753       -1.319       43.540       25.827       10.862     1895.751      667.016      117.985        0.272        0.134       52.524       16.052        0.093      338.469       11.141      863.361
11/08/2013  00:32:00      -33.385        2.144        5.453       38.729       30.564       24.870     1499.944      934.175      618.522        0.210        0.153       33.454       22.667        0.459      338.066       10.466      863.365
11/08/2013  00:33:00      -41.661      -35.137       -3.718       24.011       29.989       15.157      576.505      899.320      229.738        0.234        0.085       54.500        7.223        0.018      337.852       10.107      863.373
11/08/2013  00:34:00       39.026        2.818        8.943       22.630       16.202       13.947      512.132      262.505      194.523        0.129        0.048       39.128        3.438        0.008      337.787        9.997      863.344
11/08/2013  00:35:00       40.895       39.403       -1.993       27.758       14.650       17.453      770.521      214.630      304.620        0.226        0.064       56.789       13.555        0.057      337.705        9.860      863.316
11/08/2013  00:36:00       46.763       44.059      -15.449       19.631       17.825       10.395      385.377      317.713      108.052        0.259        0.041       64.249        8.992        0.020      337.712        9.872      863.301
11/08/2013  00:37:00       44.075       18.348       -2.948        9.824       13.555        6.100       96.505      183.750       37.210        0.130        0.016       47.741        5.234        0.012      337.912       10.206      863.294
11/08/2013  00:38:00      -27.604       -4.087       -4.303       16.315       12.282        7.503      266.184      150.850       56.288        0.064        0.024       27.905        8.125        0.085      337.977       10.316      863.305
11/08/2013  00:39:00      -15.784       34.073       -9.957       15.576       11.555        6.765      242.610      133.522       45.763        0.097        0.021       37.551        3.968        0.011      338.082       10.490      863.302
11/08/2013  00:40:00       37.759       25.653        3.778       14.835       16.046        9.334      220.067      257.469       87.123        0.133        0.028       45.649        6.782        0.022      338.276       10.815      863.288
11/08/2013  00:41:00        3.146        5.896        8.105       10.412       10.659        4.746      108.419      113.605       22.527        0.018        0.012        6.683        1.240        0.034      338.156       10.616      863.305
11/08/2013  00:42:00      -13.497       18.101       -2.840       19.230        7.454        4.776      369.776       55.555       22.808        0.048        0.022       22.579        5.615        0.062      338.233       10.747      863.292
11/08/2013  00:43:00       15.208        3.817        4.100        8.676       17.251        9.079       75.268      297.595       82.433        0.036        0.023       15.680       10.412        0.441      338.046       10.431      863.278
11/08/2013  00:44:00       33.337      -10.556        4.776       19.605       31.712        8.816      384.368     1005.651       77.729        0.136        0.073       34.968       10.697        0.094      338.072       10.473      863.262
11/08/2013  00:45:00       10.736       28.253        6.321       16.562       10.750       11.317      274.298      115.571      128.085        0.074        0.026       30.224        7.354        0.059      338.399       11.024      863.258
11/08/2013  00:46:00      -58.909      -14.287      -15.653       74.153       50.217       13.472     5498.679     2521.759      181.492        0.606        0.410       60.616       22.351        0.136      338.270       10.806      863.285
11/08/2013  00:47:00       -3.137       28.746       29.454       62.500       50.524       38.590     3906.232     2552.629     1489.202        0.482        0.397       28.916       39.694        1.884      338.533       11.248      863.279
11/08/2013  00:48:00      -47.611      -47.124       -5.402       33.205       28.387       13.980     1102.554      805.848      195.450        0.331        0.105       66.989       11.445        0.029      338.006       10.365      863.291
11/08/2013  00:49:00      -18.225       -4.052       -4.301       82.117       33.096       21.659     6743.146     1095.351      469.116        0.434        0.415       18.670       21.528        1.330      338.237       10.752      863.282
11/08/2013  00:50:00       20.254       -7.484       10.697       21.035       70.977       22.773      442.486     5037.742      518.591        0.329        0.300       21.592       14.545        0.454      338.742       11.601      863.249
11/08/2013  00:51:00      -38.376      -33.983        3.306       51.128       26.326       17.216     2614.035      693.040      296.408        0.312        0.180       51.260       20.440        0.159      338.884       11.838      863.255
11/08/2013  00:52:00       25.046       -1.130        1.146       12.855       18.015       11.660      165.243      324.542      135.947        0.063        0.031       25.072        6.621        0.070      338.617       11.390      863.248
11/08/2013  00:53:00      -28.329      -29.728       -0.649       36.654       19.351       11.317     1343.502      374.478      128.067        0.177        0.092       41.065       15.766        0.147      338.480       11.160      863.232
11/08/2013  00:54:00      -25.223      -41.851        1.923       49.452       21.915       24.678     2445.521      480.272      609.002        0.296        0.177       48.864       25.363        0.269      338.332       10.912      863.229
11/08/2013  00:55:00      -35.342      -81.275       16.949       50.983       43.288       27.693     2599.245     1873.849      766.911        0.669        0.262       88.627       26.326        0.088      338.558       11.292      863.218
11/08/2013  00:56:00      -66.985      -65.183       10.835       62.558       40.544       28.067     3913.471     1643.823      787.754        0.760        0.317       93.466       34.716        0.138      339.166       12.312      863.193
11/08/2013  00:57:00      -61.956        2.355       -6.536       25.828       17.464       14.838      667.103      304.999      220.170        0.254        0.060       62.001       13.176        0.045      338.794       11.687      863.196
11/08/2013  00:58:00      -66.077       -8.880       -0.610       50.802       35.135       20.498     2580.843     1234.493      420.159        0.434        0.212       66.671       24.807        0.138      338.928       11.913      863.171
11/08/2013  00:59:00     -172.513      -42.438      -10.776       90.008       62.908       36.015     8101.446     3957.370     1297.103        2.251        0.668      177.656       30.586        0.030      339.100       12.201      863.160
11/08/2013  01:00:00      -46.846      -48.260       22.759       77.382       51.456       31.142     5987.914     2647.755      969.808        0.732        0.480       67.257       40.059        0.355      338.663       11.467      863.161
11/08/2013  01:01:00      -44.211      -38.842        4.973       64.715       38.725       25.439     4188.088     1499.659      647.123        0.491        0.317       58.849       36.567        0.386      338.670       11.479      863.159
11/08/2013  01:02:00      -71.455       -3.068       -0.509       48.865       28.706       15.439     2387.752      824.012      238.349        0.428        0.173       71.521       14.610        0.042      338.703       11.535      863.157
11/08/2013  01:03:00      -51.134        5.303       -1.217       57.161       51.711       25.717     3267.339     2674.011      661.347        0.462        0.330       51.408       29.604        0.332      338.687       11.509      863.142
11/08/2013  01:04:00     -144.471        9.873      -21.379       54.791       62.509       38.747     3002.045     3907.327     1501.313        1.492        0.421      144.808       34.047        0.055      339.379       12.671      863.137
11/08/2013  01:05:00     -110.367        3.474      -29.578       69.519       60.238       38.419     4832.901     3628.672     1476.040        1.150        0.497      110.422       31.573        0.082      339.339       12.604      863.144
11/08/2013  01:06:00      -72.182      -41.663       -3.464       69.195       47.913       26.579     4787.897     2295.661      706.418        0.737        0.389       83.343       28.440        0.116      339.134       12.260      863.148
11/08/2013  01:07:00     -148.496      -36.335       -6.150       52.249       40.600       29.348     2730.005     1648.365      861.277        1.432        0.262      152.877       19.924        0.017      339.279       12.503      863.168
11/08/2013  01:08:00      -60.268      -13.080       -0.877       48.196       26.207       20.107     2322.854      686.799      404.280        0.361        0.171       61.671       20.788        0.114      339.260       12.472      863.174
11/08/2013  01:09:00      -87.629      -34.140       -7.277       61.246       48.264       25.227     3751.016     2329.402      636.413        0.781        0.336       94.045       20.713        0.049      339.464       12.815      863.171
11/08/2013  01:10:00       -5.144      -49.789       16.770       42.355       34.152       29.115     1793.919     1166.351      847.678        0.330        0.190       50.054       23.374        0.218      339.434       12.766      863.156
11/08/2013  01:11:00      -16.082       30.499       14.409       43.563       44.817       35.314     1897.741     2008.581     1247.106        0.327        0.258       34.479       32.631        0.896      339.254       12.461      863.131
11/08/2013  01:12:00      -43.199      -16.621        4.662       43.078       37.123       21.699     1855.754     1378.154      470.841        0.293        0.185       46.286       20.629        0.199      338.849       11.780      863.129
11/08/2013  01:13:00      -70.000        8.838      -18.199       74.616       60.512       17.539     5567.595     3661.750      307.626        0.742        0.477       70.556       19.487        0.076      338.147       10.602      863.160
11/08/2013  01:14:00      -14.348     -101.973        6.852       26.782       27.240       21.935      717.277      741.999      481.152        0.630        0.097      102.978       14.428        0.020      338.698       11.526      863.145
11/08/2013  01:15:00      -45.125      -60.707        1.592       64.508       54.341       27.424     4161.221     2952.936      752.078        0.679        0.393       75.641       21.795        0.083      338.061       10.458      863.166
11/08/2013  01:16:00      -99.468      -94.665        1.082       57.220       46.651       28.362     3274.165     2176.322      804.380        1.255        0.313      137.315       34.539        0.063      337.922       10.223      863.175
11/08/2013  01:17:00      -69.302      -65.556        3.913       53.183       28.511       19.005     2828.394      812.902      361.195        0.656        0.200       95.396       18.983        0.040      337.866       10.130      863.160
11/08/2013  01:18:00      -23.761      -41.589        4.660       40.708       23.044       20.178     1657.151      531.047      407.141        0.246        0.130       47.898       19.280        0.162      337.871       10.139      863.150
11/08/2013  01:19:00      -38.156      -47.211       19.362       55.716       37.953       30.477     3104.273     1440.459      928.851        0.477        0.274       60.702       32.892        0.294      337.638        9.746      863.162
11/08/2013  01:20:00      -75.203      -80.888       -4.660       51.274       39.064       28.854     2629.069     1525.968      832.558        0.860        0.249      110.446       25.013        0.051      337.675        9.808      863.161
11/08/2013  01:21:00      -28.557     -114.534       -1.248       63.985       59.708       32.541     4094.113     3565.088     1058.933        1.133        0.436      118.040       23.056        0.038      337.683        9.821      863.149
11/08/2013  01:22:00      -53.558      -62.902        5.407       64.148       45.185       37.709     4114.988     2041.659     1421.962        0.722        0.379       82.615       28.187        0.116      337.598        9.681      863.150
11/08/2013  01:23:00      -83.446      -84.033      -13.622       62.294       41.308       28.621     3880.482     1706.337      819.180        1.031        0.320      118.426       13.210        0.012      337.354        9.270      863.142
11/08/2013  01:24:00      -76.260      -73.676        4.207       54.197       40.323       27.293     2937.302     1625.971      744.897        0.828        0.265      106.037       24.998        0.056      337.276        9.141      863.137
11/08/2013  01:25:00      -64.937     -119.506       -4.850       59.482       52.232       31.319     3538.134     2728.223      980.903        1.288        0.362      136.009       17.530        0.017      337.292        9.168      863.137
11/08/2013  01:26:00      -43.973      -66.702       17.735       60.028       52.792       40.472     3603.366     2787.000     1637.979        0.736        0.401       79.892       35.103        0.193      337.348        9.262      863.142
11/08/2013  01:27:00      -32.963     -140.383      -11.389       46.177       81.815       35.472     2132.271     6693.637     1258.232        1.550        0.504      144.201       28.904        0.040      337.438        9.410      863.148
11/08/2013  01:28:00      -67.129      -94.225       -6.872       56.682       61.632       32.698     3212.893     3798.510     1069.168        1.075        0.404      115.692       25.137        0.047      337.334        9.238      863.150
11/08/2013  01:29:00     -153.403     -156.627      -10.134       89.332       78.416       40.441     7980.166     6149.031     1635.460        3.196        0.788      219.236       37.469        0.029      337.255        9.104      863.151
11/08/2013  01:30:00      -70.638     -121.552        5.915       71.612       45.793       39.361     5128.247     2096.990     1549.273        1.429        0.439      140.587       37.670        0.072      337.200        9.013      863.138
11/08/2013  01:31:00      -79.612      -93.956        6.227       66.160       62.702       39.483     4377.157     3931.549     1558.920        1.253        0.493      123.150       33.726        0.075      337.458        9.445      863.126
11/08/2013  01:32:00     -195.294      -84.639       -2.839       54.777       61.017       34.382     3000.532     3723.115     1182.152        2.661        0.395      212.846       29.843        0.020      337.338        9.243      863.148
11/08/2013  01:33:00      -49.427      -97.496       -5.085       46.413       52.303       28.710     2154.141     2735.613      824.268        0.884        0.286      109.309       26.197        0.057      337.388        9.328      863.157
11/08/2013  01:34:00     -171.639     -115.628       -4.294       57.832       46.351       26.125     3344.549     2148.411      682.531        2.451        0.309      206.954       13.289        0.004      337.361        9.282      863.174
11/08/2013  01:35:00     -119.983     -106.338       13.634       73.903       56.547       39.015     5461.684     3197.521     1522.175        1.803        0.509      160.324       36.224        0.051      337.358        9.279      863.222
11/08/2013  01:36:00      -71.948     -116.741       -0.698       45.619       43.621       24.083     2081.066     1902.776      580.001        1.168        0.228      137.132       21.682        0.025      337.495        9.507      863.233
11/08/2013  01:37:00      -58.325      -97.122       11.679       47.240       58.611       23.252     2231.579     3435.225      540.662        0.959        0.310      113.290       26.891        0.056      337.531        9.567      863.217
11/08/2013  01:38:00      -10.527      -24.839       -1.930       26.671       18.451       19.357      711.335      340.437      374.697        0.108        0.071       26.977       10.516        0.152      337.459        9.446      863.215
11/08/2013  01:39:00      -66.639      -52.553        5.022       55.038       40.036       22.645     3029.185     1602.912      512.780        0.619        0.257       84.868       16.553        0.038      337.527        9.560      863.239
11/08/2013  01:40:00      -86.246      -97.595       -1.540       37.928       38.193       22.910     1438.498     1458.743      524.856        1.019        0.171      130.242       19.538        0.023      337.516        9.542      863.247
11/08/2013  01:41:00      -21.966      -55.267       -2.963       56.330       42.723       21.064     3173.035     1825.248      443.683        0.449        0.272       59.472       30.295        0.259      337.524        9.556      863.238
11/08/2013  01:42:00      -13.069        1.999        1.347       18.181       14.602        8.658      330.542      213.228       74.953        0.040        0.031       13.221        9.334        0.498      337.435        9.406      863.250
11/08/2013  01:43:00      -50.739      -22.667       -2.208       18.609       17.479       12.079      346.299      305.524      145.903        0.195        0.040       55.572       10.503        0.036      337.613        9.705      863.262
11/08/2013  01:44:00      -30.950      -20.192        7.623       28.632       16.960       12.630      819.796      287.646      159.527        0.135        0.063       36.954       13.429        0.132      337.498        9.510      863.260
11/08/2013  01:45:00      -41.707      -18.224       -3.668       20.469       15.167       12.856      418.972      230.034      165.271        0.145        0.041       45.514       10.886        0.057      337.471        9.468      863.255
11/08/2013  01:46:00        0.553       -0.304       -2.761       15.839        9.095        6.793      250.860       82.724       46.147        0.019        0.019        0.631        3.605       32.591      337.351        9.267      863.267
11/08/2013  01:47:00       47.678       -7.459        2.527       25.996       23.251       22.185      675.771      540.608      492.162        0.202        0.085       48.258       19.263        0.159      337.445        9.424      863.268
11/08/2013  01:48:00       28.909      -46.470       14.077       37.862       33.319       20.724     1433.545     1110.139      429.487        0.308        0.149       54.729       13.497        0.061      337.731        9.903      863.271
11/08/2013  01:49:00       34.861      -36.503       22.977       33.431       38.224       28.132     1117.611     1461.051      791.420        0.322        0.169       50.475       27.912        0.306      337.757        9.947      863.261
11/08/2013  01:50:00       14.360      -19.678       23.789       31.822       27.481       17.854     1012.620      755.219      318.779        0.162        0.104       24.360       17.601        0.522      337.640        9.752      863.263
11/08/2013  01:51:00      101.863      -94.908       -7.134       30.240       41.682       21.970      914.470     1737.356      482.686        1.128        0.157      139.225       20.291        0.021      337.819       10.052      863.263
11/08/2013  01:52:00       38.295      -32.865       11.681       37.320       42.173       27.996     1392.806     1778.537      783.774        0.332        0.198       50.464       29.891        0.351      337.653        9.772      863.270
11/08/2013  01:53:00       98.038     -100.773        2.243       44.656       43.807       30.591     1994.203     1919.076      935.823        1.231        0.242      140.595       28.260        0.040      337.655        9.776      863.266
11/08/2013  01:54:00       57.924      -34.367       11.582       34.689       34.360       21.187     1203.340     1180.643      448.897        0.375        0.142       67.352       21.118        0.098      337.433        9.404      863.270
11/08/2013  01:55:00       -4.824        5.391       22.231       10.715       19.003        8.872      114.810      361.114       78.721        0.055        0.028        7.235        4.732        0.428      337.256        9.110      863.283
11/08/2013  01:56:00      -19.058       17.248       -4.807       10.974        8.058        8.487      120.428       64.930       72.026        0.047        0.013       25.704        7.024        0.075      337.300        9.182      863.275
11/08/2013  01:57:00      -41.031        7.341       -2.549       12.753        9.647        8.392      162.646       93.064       70.425        0.103        0.016       41.683        2.012        0.002      337.352        9.267      863.266
11/08/2013  01:58:00      -72.214      -34.213       -0.525       44.473       27.917       14.048     1977.827      779.374      197.333        0.467        0.148       79.909       12.207        0.023      337.215        9.038      863.275
11/08/2013  01:59:00      -95.101      -44.251       -0.373       37.672       24.165       16.382     1419.172      583.950      268.374        0.664        0.114      104.892       12.004        0.013      337.161        8.949      863.275
11/08/2013  02:00:00      -16.589      -33.327       10.001       37.702       20.388       16.576     1421.468      415.661      274.747        0.180        0.106       37.228       18.519        0.247      337.292        9.168      863.245
11/08/2013  02:01:00        8.851      -15.993        2.834       31.236       26.781       13.783      975.714      717.197      189.980        0.111        0.094       18.278       11.894        0.423      337.270        9.130      863.249
11/08/2013  02:02:00      -27.242      -12.852        9.812       37.122       21.444       22.637     1378.048      459.846      512.425        0.168        0.118       30.121       15.988        0.282      337.144        8.919      863.288
11/08/2013  02:03:00      -44.739      -34.489        2.685       29.136       25.629       16.897      848.914      656.864      285.524        0.249        0.090       56.490       13.705        0.059      337.016        8.705      863.320
11/08/2013  02:04:00      -73.501       -3.451       -3.875       17.802       23.441       11.638      316.900      549.494      135.448        0.322        0.050       73.582        9.719        0.017      337.077        8.808      863.312
11/08/2013  02:05:00      -53.500       29.343       -0.230       21.521       15.732       11.299      463.143      247.500      127.669        0.228        0.042       61.018        9.384        0.024      337.071        8.799      863.281
11/08/2013  02:06:00      -30.289       28.472       -2.025       13.348       23.342        9.045      178.179      544.857       81.804        0.127        0.040       41.571        7.827        0.035      337.343        9.253      863.264
11/08/2013  02:07:00      -29.272      -21.452       -9.699       14.616       19.291       12.034      213.618      372.136      144.826        0.107        0.037       36.291       13.717        0.143      337.409        9.364      863.273
11/08/2013  02:08:00      -66.101      -17.209       -9.096        9.999        9.220        9.338       99.973       85.006       87.202        0.251        0.014       68.304        5.172        0.006      337.212        9.032      863.277
11/08/2013  02:09:00      -51.600      -19.099       -4.696       19.345       13.553       10.580      374.235      183.690      111.934        0.186        0.033       55.021        5.873        0.011      336.918        8.541      863.269
11/08/2013  02:10:00      -50.032       26.969      -11.422       29.663       16.924        8.610      879.918      286.416       74.126        0.230        0.062       56.838        7.693        0.018      336.953        8.601      863.259
11/08/2013  02:11:00      -78.852        3.483      -11.248       22.196       12.179       12.256      492.654      148.329      150.221        0.357        0.040       78.929       13.325        0.029      337.073        8.799      863.248
11/08/2013  02:12:00     -130.648        2.618      -17.178       23.340       15.053       14.873      544.769      226.584      221.210        0.918        0.050      130.674       14.529        0.012      336.944        8.585      863.251
11/08/2013  02:13:00      -73.150      -18.469       -5.223       25.623       16.676       10.646      656.556      278.079      113.341        0.338        0.052       75.446       10.672        0.020      336.863        8.450      863.244
11/08/2013  02:14:00      -70.866      -25.075       -5.111       11.321        9.568        6.861      128.163       91.550       47.071        0.297        0.013       75.171        5.051        0.005      336.903        8.515      863.210
11/08/2013  02:15:00      -38.859       -5.194       -9.435        9.345       10.920        5.801       87.321      119.243       33.648        0.093        0.012       39.204        5.146        0.017      336.791        8.332      863.178
11/08/2013  02:16:00      -42.175       15.112      -11.609        7.802        8.453        6.765       60.866       71.454       45.759        0.116        0.009       44.801        3.121        0.005      337.283        9.153      863.165
11/08/2013  02:17:00      -78.415       34.721      -14.357       15.262       11.147        8.214      232.931      124.249       67.472        0.399        0.021       85.758        2.566        0.001      337.332        9.234      863.163
11/08/2013  02:18:00      -79.538      -39.844      -12.723       22.955       35.089       17.603      526.945     1231.212      309.861        0.507        0.103       88.960       12.781        0.021      336.923        8.549      863.173
11/08/2013  02:19:00      -74.036      -73.798        6.752       37.458       27.944       26.402     1403.125      780.849      697.045        0.693        0.144      104.535       24.125        0.053      336.704        8.186      863.208
11/08/2013  02:20:00      -93.965      -49.490       -2.127       35.509       28.793       16.408     1260.890      829.021      269.233        0.682        0.118      106.201       14.051        0.018      336.610        8.028      863.224
11/08/2013  02:21:00      -54.500      -25.027        5.970       29.698       26.081       15.302      881.953      680.215      234.148        0.271        0.090       59.972       16.184        0.073      336.791        8.330      863.197
11/08/2013  02:22:00      -45.632       18.585        5.603       15.445       16.815       10.438      238.544      282.750      108.951        0.154        0.032       49.271        7.530        0.023      336.880        8.478      863.167
11/08/2013  02:23:00      -48.483       51.900      -14.954       18.889       19.836        9.072      356.812      393.470       82.297        0.305        0.042       71.023        8.019        0.013      337.091        8.831      863.151
11/08/2013  02:24:00      -74.506       29.044      -11.807       18.408       20.011        8.494      338.854      400.443       72.150        0.367        0.041       79.967        5.975        0.006      337.162        8.952      863.152
11/08/2013  02:25:00     -104.032        5.424      -10.430       47.359       34.692       21.888     2242.868     1203.522      479.067        0.744        0.196      104.174       23.864        0.052      336.682        8.148      863.176
11/08/2013  02:26:00      -80.394       -8.979      -12.965       42.797       35.074       21.151     1831.622     1230.187      447.363        0.511        0.175       80.894       18.704        0.053      336.586        7.988      863.186
11/08/2013  02:27:00      -44.830      -27.093       -6.710       31.774       24.404       16.586     1009.613      595.533      275.094        0.233        0.094       52.381       13.513        0.067      336.691        8.164      863.188
11/08/2013  02:28:00      -65.579      -33.893       -0.135       22.695       12.964       13.735      515.068      168.054      188.662        0.316        0.044       73.819       12.119        0.027      336.578        7.974      863.191
11/08/2013  02:29:00      -83.526      -20.693      -10.962       10.609       16.425        9.246      112.555      269.785       85.484        0.400        0.023       86.051        9.031        0.011      336.596        8.005      863.184
11/08/2013  02:30:00      -41.726       -8.538       -6.335       15.399       14.456        8.768      237.116      208.987       76.871        0.119        0.026       42.591        7.270        0.029      336.646        8.088      863.172
11/08/2013  02:31:00       -7.857       13.766       -2.857       34.070       15.584       12.240     1160.737      242.868      149.829        0.091        0.078       15.851       17.867        1.271      336.853        8.433      863.148
11/08/2013  02:32:00       32.077       43.730        1.419       11.178       12.393       13.891      124.942      153.577      192.947        0.171        0.024       54.233        7.172        0.017      336.929        8.561      863.120
11/08/2013  02:33:00       29.562       60.637      -10.695       14.682       13.542       11.111      215.572      183.378      123.458        0.259        0.026       67.459        9.108        0.018      336.794        8.336      863.105
11/08/2013  02:34:00       -3.589       44.898       -8.224        6.555       10.917        6.143       42.966      119.191       37.730        0.115        0.010       45.041        6.043        0.018      336.886        8.488      863.107
11/08/2013  02:35:00       -3.855       34.188       -6.590        8.514        8.696        4.978       72.485       75.623       24.781        0.070        0.009       34.404        3.972        0.013      337.170        8.963      863.113
11/08/2013  02:36:00      -47.730       -5.442       -5.758       25.478       18.516        9.823      649.110      342.859       96.489        0.171        0.054       48.040       13.722        0.082      336.857        8.440      863.120
11/08/2013  02:37:00      -87.571      -17.884      -11.049       19.024       13.381       10.545      361.927      179.042      111.202        0.438        0.033       89.379        7.916        0.008      336.441        7.745      863.115
11/08/2013  02:38:00     -112.674      -15.045      -18.899       20.919       11.968        9.196      437.619      143.226       84.561        0.697        0.033      113.674        8.169        0.005      336.310        7.524      863.098
11/08/2013  02:39:00     -108.513       -7.851      -16.649       32.723       28.821       16.018     1070.803      830.664      256.570        0.714        0.108      108.797       11.202        0.011      336.210        7.359      863.066
11/08/2013  02:40:00      -65.721       26.455      -16.867       27.143       33.910       14.498      736.742     1149.860      210.205        0.370        0.105       70.846       13.617        0.037      336.442        7.747      863.059
11/08/2013  02:41:00      -51.189       51.363      -12.848       18.753       19.151       15.762      351.664      366.780      248.427        0.320        0.048       72.515       12.376        0.029      336.862        8.449      863.047
11/08/2013  02:42:00      -37.730       43.601      -10.494       14.565       11.219        7.637      212.138      125.874       58.329        0.192        0.020       57.659        7.296        0.016      337.191        8.998      863.017
11/08/2013  02:43:00       -5.036        9.132        0.241       13.012       17.051        6.640      169.301      290.736       44.092        0.031        0.025       10.428        1.479        0.020      337.374        9.304      863.007
11/08/2013  02:44:00      -68.080      -40.859      -11.461       23.475        9.652        8.031      551.074       93.171       64.489        0.357        0.035       79.400        7.090        0.008      336.690        8.162      863.023
11/08/2013  02:45:00     -124.530      -20.002      -17.995       10.549       12.298       12.442      111.274      151.250      154.793        0.832        0.021      126.126        7.097        0.003      336.296        7.503      863.039
11/08/2013  02:46:00     -109.449      -39.413      -14.976       24.651       23.359       15.552      607.692      545.658      241.863        0.758        0.070      116.329       12.988        0.012      336.201        7.343      863.032
11/08/2013  02:47:00     -101.218      -17.784       -4.675       43.326       23.289       19.133     1877.122      542.378      366.076        0.668        0.139      102.768       17.460        0.029      336.169        7.290      863.007
11/08/2013  02:48:00      -63.119      -24.673       -6.733       25.586       14.497       11.466      654.648      210.172      131.469        0.282        0.050       67.770        7.163        0.011      336.192        7.329      862.979
11/08/2013  02:49:00      -19.212      -25.730       -0.043       23.373       13.945       13.744      546.307      194.473      188.907        0.098        0.046       32.111       10.269        0.102      336.312        7.528      862.963
11/08/2013  02:50:00      -24.780      -16.558       -9.170       17.068       12.982       16.704      291.309      168.539      279.025        0.086        0.037       29.803       11.434        0.147      336.500        7.845      862.939
11/08/2013  02:51:00      -53.254       -5.800      -12.616       18.720       16.170       11.216      350.420      261.460      125.794        0.188        0.037       53.569        6.499        0.015      336.531        7.894      862.920
11/08/2013  02:52:00      -76.263        5.722      -10.509       16.182       25.153       11.572      261.871      632.661      133.903        0.349        0.051       76.478       12.134        0.025      336.633        8.067      862.915
11/08/2013  02:53:00      -78.010      -20.732      -13.498       16.787       21.033       13.126      281.795      442.376      172.305        0.380        0.045       80.717        8.447        0.011      336.298        7.505      862.934
11/08/2013  02:54:00      -91.966       -1.714      -14.427       27.684       25.338       15.480      766.379      641.999      239.627        0.516        0.082       91.982       16.518        0.032      336.260        7.441      862.949
11/08/2013  02:55:00      -81.505       -7.775       -3.153       22.919       21.090       16.154      525.287      444.795      260.963        0.397        0.062       81.875        9.460        0.013      336.182        7.312      862.960
11/08/2013  02:56:00      -84.833       13.486      -12.950       11.907       23.321       10.225      141.777      543.854      104.559        0.417        0.040       85.899        6.560        0.006      336.537        7.906      862.950
11/08/2013  02:57:00      -74.791       23.149      -15.087       12.946       20.702       12.990      167.610      428.584      168.750        0.356        0.038       78.292        9.278        0.014      336.636        8.071      862.938
11/08/2013  02:58:00      -78.309      -27.755      -11.649       16.731       21.875       12.659      279.918      478.515      160.239        0.398        0.046       83.082        8.120        0.010      336.203        7.346      862.937
11/08/2013  02:59:00     -126.976      -39.212      -12.124       30.877       43.472       20.987      953.375     1889.778      440.462        1.055        0.164      132.893       12.806        0.009      335.996        7.001      862.938
11/08/2013  03:00:00     -113.014      -27.224       -8.917       38.365       47.087       23.964     1471.853     2217.212      574.260        0.893        0.213      116.247       20.689        0.032      336.118        7.204      862.969
11/08/2013  03:01:00      -91.586      -49.429        1.551       49.068       32.239       21.806     2407.622     1039.350      475.515        0.738        0.196      104.073       24.735        0.056      336.177        7.303      862.985
11/08/2013  03:02:00      -84.813      -31.850       -4.942       26.346       21.423       13.353      694.098      458.964      178.311        0.478        0.067       90.596       13.757        0.023      336.127        7.220      862.977
11/08/2013  03:03:00      -55.200      -12.983       -2.792       16.988       19.799       10.062      288.589      392.010      101.248        0.200        0.039       56.707        7.108        0.016      336.201        7.343      862.956
11/08/2013  03:04:00      -91.305        0.452       -9.116       18.870       17.991       13.876      356.075      323.659      192.537        0.465        0.044       91.307        8.167        0.008      336.022        7.044      862.954
11/08/2013  03:05:00     -112.845      -25.460      -11.368       12.846       17.232       12.570      165.011      296.938      158.005        0.707        0.031      115.682       11.636        0.010      336.032        7.059      862.960
11/08/2013  03:06:00     -100.297      -23.074       -5.592       18.978       11.430       11.150      360.165      130.642      124.314        0.562        0.031      102.917       11.581        0.013      336.086        7.149      862.959
11/08/2013  03:07:00      -72.201      -15.294       -1.207       15.125       14.634        8.366      228.780      214.141       69.998        0.298        0.026       73.803        7.606        0.011      336.122        7.211      862.968
11/08/2013  03:08:00      -87.630      -23.173       -9.817       12.969       11.193        6.647      168.199      125.285       44.178        0.432        0.017       90.642        5.424        0.004      336.141        7.243      862.969
11/08/2013  03:09:00     -109.474      -26.493       -8.222       28.359       20.971       12.133      804.245      439.794      147.218        0.707        0.070      112.634        9.326        0.007      336.027        7.054      862.947
11/08/2013  03:10:00     -118.433       30.919      -12.753       50.132       34.606       22.803     2513.252     1197.602      519.970        0.969        0.212      122.402       17.273        0.020      336.364        7.617      862.923
11/08/2013  03:11:00     -159.992       49.866      -24.622       43.476       30.361       24.137     1890.129      921.776      582.595        1.604        0.170      167.583       21.745        0.017      336.569        7.958      862.921
11/08/2013  03:12:00     -102.979        2.414       -6.654       21.672       37.127       15.563      469.660     1378.433      242.199        0.637        0.105      103.007       11.987        0.014      336.373        7.632      862.925
11/08/2013  03:13:00      -64.057      -17.708      -17.459       17.998       17.866       10.988      323.943      319.211      120.747        0.274        0.038       66.460        6.478        0.009      336.276        7.469      862.917
11/08/2013  03:14:00      -36.701      -27.735       -1.830       11.751       15.025       12.160      138.077      225.765      147.865        0.132        0.026       46.002        6.281        0.019      336.255        7.434      862.925
11/08/2013  03:15:00      -33.008      -20.681      -10.770       14.583       16.679        9.632      212.664      278.184       92.768        0.111        0.029       38.952        8.146        0.044      336.649        8.093      862.933
11/08/2013  03:16:00      -43.829      -42.686       -5.094       13.940       16.314       10.750      194.317      266.135      115.561        0.217        0.029       61.180        8.953        0.021      336.300        7.510      862.921
11/08/2013  03:17:00      -90.799      -10.767      -14.022       12.070        9.359        6.579      145.678       87.582       43.287        0.442        0.014       91.435        5.698        0.004      336.093        7.162      862.911
11/08/2013  03:18:00      -90.382      -10.305      -12.358       26.226       14.535       17.168      687.817      211.257      294.729        0.481        0.060       90.967       17.704        0.038      336.043        7.078      862.905
11/08/2013  03:19:00      -68.628      -19.440      -14.701       13.400       13.829        8.954      179.558      191.228       80.168        0.288        0.023       71.328        5.859        0.007      335.940        6.908      862.908
11/08/2013  03:20:00      -74.343      -36.460       -6.934       23.635       19.157       14.982      558.620      366.973      224.453        0.403        0.058       82.802       14.904        0.032      335.862        6.778      862.910
11/08/2013  03:21:00      -59.215      -13.451       -3.889       45.699       29.718       17.219     2088.411      883.188      296.492        0.348        0.163       60.724       22.457        0.137      335.816        6.703      862.922
11/08/2013  03:22:00      -67.813      -22.422       -3.059       52.541       31.712       19.290     2760.556     1005.645      372.118        0.462        0.207       71.423       22.282        0.097      335.851        6.760      862.929
11/08/2013  03:23:00      -14.661      -13.583        6.670       25.918       19.330       17.951      671.756      373.651      322.227        0.091        0.068       19.986       16.193        0.656      335.923        6.881      862.912
11/08/2013  03:24:00      -28.633       38.107      -12.935       31.436       22.101       12.718      988.220      488.441      161.754        0.204        0.082       47.665       13.314        0.078      336.251        7.428      862.907
11/08/2013  03:25:00      -23.859        4.460       -6.226       14.464       16.610        7.594      209.200      275.886       57.673        0.059        0.027       24.273        9.016        0.138      336.636        8.072      862.916
11/08/2013  03:26:00      -40.841      -22.008        0.222       20.657       26.184       15.280      426.707      685.576      233.488        0.175        0.067       46.393       14.262        0.095      336.285        7.484      862.943
11/08/2013  03:27:00      -37.286      -48.870       -9.641       16.047       12.835       13.336      257.504      164.747      177.849        0.224        0.030       61.470        5.764        0.009      336.120        7.208      862.958
11/08/2013  03:28:00      -52.881      -38.647        3.172       21.179       15.869       13.435      448.530      251.826      180.498        0.259        0.044       65.498        8.344        0.016      336.124        7.215      862.966
11/08/2013  03:29:00      -47.115      -49.521        0.741       22.212       16.076       10.042      493.393      258.428      100.849        0.276        0.043       68.353        2.907        0.002      336.296        7.502      862.971
11/08/2013  03:30:00      -36.408      -20.776       11.979       33.810       20.201       15.279     1143.138      408.067      233.433        0.184        0.089       41.919       16.581        0.156      336.157        7.271      862.973
11/08/2013  03:31:00      -79.718      -68.754       -5.238       67.026       38.904       31.134     4492.442     1513.535      969.310        0.904        0.349      105.272       32.048        0.093      336.085        7.150      862.970
11/08/2013  03:32:00     -107.258      -60.439       -4.441       35.454       25.186       18.613     1256.996      634.359      346.435        0.871        0.112      123.114       15.006        0.015      335.964        6.949      862.962
11/08/2013  03:33:00      -84.597      -44.405       -2.938       29.568       21.443       15.848      874.287      459.799      251.148        0.536        0.079       95.543       15.774        0.027      335.983        6.980      862.962
11/08/2013  03:34:00      -61.378      -37.388       -0.364       24.224       15.677       13.626      586.786      245.779      185.672        0.309        0.051       71.869       12.901        0.032      336.032        7.062      862.961
11/08/2013  03:35:00      -18.632      -24.639        6.036       19.013       15.709       12.535      361.502      246.763      157.123        0.088        0.038       30.890       11.933        0.149      336.060        7.107      862.974
11/08/2013  03:36:00      -24.629      -21.039        6.617       22.592       25.254       14.039      510.385      637.761      197.097        0.122        0.067       32.392       12.495        0.149      336.071        7.126      862.975
11/08/2013  03:37:00      -62.892      -17.547       -2.480       22.873       16.815        9.160      523.191      282.736       83.899        0.258        0.044       65.294        8.937        0.019      336.000        7.006      862.961
11/08/2013  03:38:00      -99.930       -3.253      -12.903       14.510        9.611        6.951      210.551       92.377       48.314        0.526        0.018       99.983        6.189        0.004      336.018        7.036      862.940
11/08/2013  03:39:00     -138.574      -19.116      -19.931       20.850       13.716        9.907      434.708      188.117       98.153        1.034        0.036      139.887        7.743        0.003      335.924        6.881      862.929
11/08/2013  03:40:00     -139.900      -57.012      -22.655       19.999       20.335       13.846      399.973      413.500      191.717        1.217        0.050      151.071        7.104        0.002      335.876        6.802      862.934
11/08/2013  03:41:00      -82.331      -85.509       -1.378       41.898       40.640       25.167     1755.428     1651.623      633.378        0.907        0.202      118.703       18.283        0.024      335.643        6.415      862.944
11/08/2013  03:42:00     -120.016      -78.994       -5.746       49.690       29.619       23.749     2469.071      877.258      564.007        1.229        0.196      143.680       13.032        0.008      335.677        6.471      862.956
11/08/2013  03:43:00     -125.411      -77.796       -5.246       45.578       36.551       24.718     2077.309     1336.005      610.989        1.292        0.201      147.581       20.385        0.019      335.751        6.592      862.972
11/08/2013  03:44:00     -105.658      -61.811        2.910       41.294       26.989       18.163     1705.180      728.421      329.897        0.888        0.138      122.410       14.602        0.014      335.975        6.967      862.994
11/08/2013  03:45:00      -57.234      -58.519       -2.854       27.089       17.445       15.027      733.787      304.311      225.817        0.399        0.063       81.855       16.219        0.039      336.062        7.110      862.986
11/08/2013  03:46:00      -20.347      -34.783        6.189       26.158       25.579       12.181      684.261      654.275      148.388        0.157        0.074       40.297       13.016        0.104      336.018        7.037      862.966
11/08/2013  03:47:00       -6.712       10.740       18.484        8.329       13.835        6.977       69.376      191.416       48.681        0.041        0.015       12.665        4.075        0.104      335.837        6.737      862.960
11/08/2013  03:48:00       14.059      -11.306       -5.806       10.136       12.146       10.247      102.748      147.518      105.008        0.036        0.018       18.041        5.049        0.078      335.827        6.720      862.964
11/08/2013  03:49:00       -3.901      -32.105       -4.207       13.073        8.566        7.441      170.891       73.370       55.363        0.068        0.015       32.341        5.641        0.030      336.011        7.025      862.976
11/08/2013  03:50:00      -34.524      -10.632        1.454       19.565       10.171        9.476      382.778      103.459       89.787        0.094        0.029       36.124       10.988        0.093      335.907        6.852      862.996
11/08/2013  03:51:00      -62.963      -24.305       -2.594       32.596       19.878       12.024     1062.523      395.127      144.565        0.308        0.080       67.492       14.688        0.047      335.805        6.685      863.006
11/08/2013  03:52:00      -82.001      -35.561      -10.776       15.615       18.587       11.130      243.821      345.494      123.885        0.441        0.036       89.380        5.561        0.004      335.746        6.585      863.011
11/08/2013  03:53:00      -89.445      -10.707       -5.963       28.361       18.107       13.936      804.330      327.877      194.221        0.474        0.066       90.084       13.241        0.022      335.590        6.326      863.031
11/08/2013  03:54:00     -120.363        2.329       -7.106       22.583       24.709       12.551      510.013      610.554      157.523        0.791        0.064      120.386       11.474        0.009      335.805        6.683      863.054
11/08/2013  03:55:00      -79.260       72.273      -18.398       20.576       29.305       15.875      423.363      858.798      252.012        0.669        0.077      107.263       15.503        0.021      336.151        7.261      863.048
11/08/2013  03:56:00      -50.808       72.436      -22.487       55.451       38.396       21.814     3074.822     1474.283      475.839        0.668        0.251       88.478       21.179        0.057      337.411        9.365      863.007
11/08/2013  03:57:00      -48.198       69.684      -17.057       18.370       32.257       18.357      337.450     1040.483      336.991        0.459        0.086       84.729       18.602        0.048      337.035        8.738      862.972
11/08/2013  03:58:00      -87.398       57.750      -15.834       46.175       55.535       20.972     2132.108     3084.082      439.830        0.844        0.283      104.754       18.672        0.032      337.000        8.679      862.955
11/08/2013  03:59:00      -97.814       14.598      -10.097       36.120       27.083       21.934     1304.684      733.487      481.080        0.620        0.126       98.898       13.434        0.018      336.465        7.785      862.964
11/08/2013  04:00:00      -88.172       22.176      -11.768       43.933       54.495       19.906     1930.099     2969.688      396.244        0.685        0.265       90.918       17.935        0.039      336.438        7.740      862.973
11/08/2013  04:01:00     -130.216       14.381       -3.203       46.718       28.776       19.215     2182.584      828.063      369.203        1.028        0.169      131.008       16.952        0.017      335.846        6.751      862.973
11/08/2013  04:02:00      -52.779      -20.612       -0.554       37.790       29.329       17.778     1428.108      860.202      316.048        0.291        0.130       56.661       11.433        0.041      335.694        6.498      862.970
11/08/2013  04:03:00      -47.728      -12.367      -11.336       23.888       26.702       21.885      570.625      712.995      478.932        0.216        0.088       49.304       11.286        0.052      335.717        6.536      862.978
11/08/2013  04:04:00     -122.639      -31.059      -19.853       29.410       23.695       14.518      864.932      561.443      210.760        0.902        0.082      126.511       10.701        0.007      335.726        6.552      863.002
11/08/2013  04:05:00     -130.466       -1.758      -19.937       23.912       22.590       13.767      571.767      510.317      189.534        0.935        0.064      130.478        6.254        0.002      335.846        6.751      863.030
11/08/2013  04:06:00      -93.130      -14.649      -15.183       25.913       22.505       14.377      671.462      506.476      206.685        0.525        0.069       94.275        7.964        0.007      335.920        6.874      863.035
11/08/2013  04:07:00      -87.433       -8.326      -12.217       28.860       36.276       12.509      832.908     1315.970      156.477        0.508        0.115       87.829        9.936        0.013      335.843        6.747      863.019
11/08/2013  04:08:00     -166.027       39.926      -10.937       32.514       29.335       15.842     1057.171      860.560      250.974        1.572        0.108      170.760       11.865        0.005      335.908        6.855      862.989
11/08/2013  04:09:00     -168.433       61.385      -25.259       36.145       33.024       26.353     1306.485     1090.557      694.490        1.793        0.155      179.271       14.822        0.007      336.294        7.499      862.956
11/08/2013  04:10:00     -156.426      131.160      -37.283       54.630       61.668       34.166     2984.481     3802.940     1167.334        2.551        0.398      204.137       37.601        0.034      336.966        8.620      862.936
11/08/2013  04:11:00     -155.759       26.141      -23.134       31.360       55.760       24.742      983.444     3109.177      612.190        1.509        0.235      157.937       19.372        0.015      336.307        7.519      862.951
11/08/2013  04:12:00     -209.428      -10.189      -20.936       39.851       35.968       24.494     1588.083     1293.687      599.962        2.394        0.174      209.676       20.626        0.010      335.989        6.987      862.997
11/08/2013  04:13:00     -224.740       10.260      -25.323       38.065       31.784       25.799     1448.939     1010.209      665.570        2.719        0.156      224.974       17.667        0.006      335.904        6.845      863.039
11/08/2013  04:14:00     -222.269       60.564      -15.652       53.287       32.630       22.193     2839.536     1064.738      492.520        2.886        0.220      230.372       22.328        0.009      336.366        7.615      863.050
11/08/2013  04:15:00     -125.332       96.756      -20.922       53.962       46.634       33.535     2911.895     2174.728     1124.614        1.586        0.311      158.334       29.560        0.035      336.887        8.489      863.016
11/08/2013  04:16:00     -107.557      140.158      -25.786       42.378       53.406       29.836     1795.857     2852.177      890.190        1.871        0.277      176.671       17.413        0.010      336.948        8.591      862.964
11/08/2013  04:17:00     -141.258       41.698      -19.799       37.227       44.684       22.746     1385.875     1996.699      517.392        1.299        0.195      147.284       14.940        0.010      336.485        7.819      862.951
11/08/2013  04:18:00     -179.031      -38.248       -8.873       60.647       45.277       28.650     3678.047     2049.994      820.821        2.007        0.327      183.072       13.524        0.005      336.151        7.258      863.005
11/08/2013  04:19:00     -166.132      -31.930       -8.388       45.468       37.030       22.726     2067.356     1371.223      516.462        1.632        0.198      169.172       21.696        0.016      335.913        6.863      863.073
11/08/2013  04:20:00     -138.358      -20.494      -18.409       39.936       32.514       20.742     1594.849     1057.152      430.216        1.149        0.154      139.868       18.192        0.017      336.129        7.223      863.106
11/08/2013  04:21:00      -32.888        4.605        4.094       34.335       22.994       15.967     1178.885      528.729      254.952        0.154        0.098       33.209       15.918        0.230      336.187        7.321      863.087
11/08/2013  04:22:00       12.822       40.347        8.387       50.542       33.246       24.725     2554.468     1105.323      611.304        0.307        0.214       42.335       22.352        0.279      336.379        7.641      863.038
11/08/2013  04:23:00       -2.841       20.436       45.116       29.095       37.627       32.054      846.497     1415.796     1027.490        0.287        0.164       20.632       21.427        1.078      336.194        7.331      862.995
11/08/2013  04:24:00      -68.143      -33.375       -1.249       44.038       15.643       21.093     1939.346      244.717      444.929        0.419        0.131       75.877       25.377        0.112      336.338        7.572      863.023
11/08/2013  04:25:00     -130.578      -39.710       -6.155       38.746       36.185       21.674     1501.288     1309.371      469.778        1.097        0.164      136.483       16.564        0.015      336.000        7.009      863.088
11/08/2013  04:26:00     -118.533      -17.976       -6.607       36.148       22.621       21.901     1306.679      511.692      479.640        0.836        0.115      119.888       20.116        0.028      335.763        6.613      863.150
11/08/2013  04:27:00       -7.302        1.863       14.030       42.609       14.876       19.640     1815.544      221.298      385.731        0.134        0.121        7.536       23.664        9.861      335.958        6.939      863.145
11/08/2013  04:28:00       22.439       20.095       35.338       37.522       41.809       27.769     1407.872     1747.964      771.108        0.304        0.196       30.122       35.987        1.427      336.022        7.044      863.088
11/08/2013  04:29:00       10.453        6.557       34.894       27.429       61.506       31.448      752.331     3783.030      988.947        0.345        0.276       12.339       40.647       10.851      336.133        7.230      863.019
11/08/2013  04:30:00        6.079      -70.536       -0.852       29.940       39.154       25.457      896.388     1533.065      648.077        0.404        0.154       70.798       22.789        0.104      336.456        7.769      863.012
11/08/2013  04:31:00     -112.186      -32.660      -14.462       34.514       28.596       15.007     1191.221      817.750      225.205        0.805        0.112      116.844        7.103        0.004      336.252        7.428      863.045
11/08/2013  04:32:00     -146.290      -63.575       -4.842       39.763       23.528       20.227     1581.059      553.562      409.151        1.400        0.127      159.507       13.230        0.007      335.954        6.932      863.079
11/08/2013  04:33:00     -130.438      -70.127        0.657       37.753       39.247       24.394     1425.307     1540.316      595.089        1.275        0.178      148.094       21.876        0.022      335.925        6.884      863.114
11/08/2013  04:34:00     -114.247      -56.355        3.520       64.913       50.335       26.925     4213.733     2533.628      724.979        1.186        0.374      127.390       31.339        0.061      336.037        7.069      863.140
11/08/2013  04:35:00      -60.242      -37.491       -4.621       48.535       37.202       22.363     2355.691     1384.021      500.088        0.465        0.212       70.955       28.760        0.164      336.116        7.201      863.139
11/08/2013  04:36:00      -66.549      -32.391       -7.388       32.854       20.233       18.286     1079.355      409.381      334.386        0.368        0.091       74.013       17.567        0.056      336.181        7.309      863.131
11/08/2013  04:37:00      -90.839      -15.482       -3.934       27.367       25.886       14.623      748.956      670.103      213.834        0.507        0.082       92.149       15.670        0.029      336.254        7.431      863.127
11/08/2013  04:38:00      -77.630      -33.056      -10.026       20.620       18.752        8.874      425.195      351.655       78.741        0.404        0.043       84.375        9.687        0.013      336.197        7.338      863.116
11/08/2013  04:39:00      -69.560       -5.339      -10.120       11.813        8.121        6.280      139.538       65.958       39.444        0.261        0.012       69.764        4.714        0.005      336.260        7.442      863.115
11/08/2013  04:40:00      -27.019      -41.541      -10.295       38.731       24.894       11.942     1500.052      619.693      142.607        0.241        0.113       49.555       11.458        0.053      336.266        7.452      863.104
11/08/2013  04:41:00      -12.138      -16.569      -10.012       18.175       16.719       12.445      330.347      279.509      154.883        0.064        0.038       20.540       11.398        0.308      336.538        7.906      863.122
11/08/2013  04:42:00      -50.677      -37.365        6.524       35.485       21.544       16.829     1259.181      464.123      283.229        0.301        0.100       62.963       15.593        0.061      336.219        7.374      863.163
11/08/2013  04:43:00     -154.379      -42.541      -11.867       27.743       28.642       14.420      769.687      820.387      207.941        1.379        0.090      160.133       11.265        0.005      335.653        6.430      863.205
11/08/2013  04:44:00     -112.923      -66.688       -0.399       48.611       34.291       21.772     2363.027     1175.879      474.016        1.061        0.201      131.144       20.100        0.023      335.550        6.259      863.236
11/08/2013  04:45:00      -81.656      -73.857       -0.037       42.886       33.501       19.392     1839.193     1122.284      376.052        0.773        0.167      110.103       20.989        0.036      335.919        6.874      863.218
11/08/2013  04:46:00      -51.212      -29.314       -3.066       12.329        8.812        5.590      152.014       77.658       31.248        0.188        0.013       59.008        2.668        0.002      336.093        7.164      863.185
11/08/2013  04:47:00      -42.478      -12.228       -3.598       15.856       10.775        5.152      251.424      116.092       26.544        0.118        0.020       44.203        7.019        0.025      336.091        7.160      863.140
11/08/2013  04:48:00      -70.420      -16.799       -9.072       14.499       19.308       12.116      210.230      372.803      146.803        0.303        0.036       72.396       12.054        0.028      336.080        7.142      863.106
11/08/2013  04:49:00      -69.322      -23.601      -10.630        9.994       14.604        7.909       99.872      213.269       62.548        0.293        0.019       73.230        2.170        0.001      335.872        6.796      863.099
11/08/2013  04:50:00      -74.737      -40.278       -9.751       13.891       13.453        9.549      192.948      180.992       91.191        0.388        0.023       84.900        7.407        0.008      335.662        6.446      863.115
11/08/2013  04:51:00       -2.358      -59.224       12.031       37.451       21.246       23.569     1402.543      451.411      555.484        0.303        0.120       59.271       24.421        0.170      335.893        6.830      863.129
11/08/2013  04:52:00      -27.593      -42.749        4.775       18.848       11.820       15.419      355.235      139.715      237.734        0.167        0.037       50.881        5.322        0.011      336.095        7.168      863.151
11/08/2013  04:53:00       -9.410      -62.815        3.973       11.309       10.816       11.498      127.903      116.984      132.194        0.221        0.019       63.516        7.226        0.013      336.363        7.615      863.153
11/08/2013  04:54:00      -51.148      -36.967        2.866       39.654       25.683       16.945     1572.477      659.619      287.135        0.325        0.126       63.109       15.665        0.062      335.959        6.941      863.159
11/08/2013  04:55:00      -62.485      -30.281        8.014       27.600       21.746       18.510      761.763      472.901      342.616        0.323        0.079       69.436       11.520        0.028      335.835        6.734      863.160
11/08/2013  04:56:00      -30.602      -39.501        3.509       29.162       28.841       16.714      850.406      831.780      279.366        0.224        0.098       49.968       18.356        0.135      335.945        6.917      863.157
11/08/2013  04:57:00      -41.101       -9.525        2.739       21.251        9.458       10.098      451.605       89.446      101.963        0.122        0.032       42.190        9.976        0.056      335.889        6.824      863.133
11/08/2013  04:58:00     -113.724        0.905      -12.915       18.190       11.157        7.973      330.877      124.488       63.570        0.681        0.026      113.728        6.814        0.004      336.241        7.410      863.108
11/08/2013  04:59:00     -101.513      -24.578      -11.074       21.032       15.868       11.316      442.357      251.806      128.056        0.593        0.041      104.446       11.974        0.013      336.089        7.156      863.100
11/08/2013  05:00:00      -43.169      -48.521       -1.340       25.514       14.719        9.107      650.970      216.654       82.941        0.258        0.048       64.945        9.202        0.020      336.032        7.061      863.102
11/08/2013  05:01:00      -20.254      -32.335        3.947       23.693       16.708        8.027      561.352      279.163       64.436        0.119        0.045       38.155       13.271        0.121      336.316        7.537      863.096
11/08/2013  05:02:00       32.894        4.655        8.650       17.868       12.755       14.543      319.262      162.693      211.496        0.094        0.035       33.222       12.365        0.139      336.172        7.295      863.077
11/08/2013  05:03:00       63.351       10.362       11.169       17.004       12.520       15.321      289.119      156.752      234.735        0.246        0.034       64.193       13.426        0.044      336.273        7.465      863.046
11/08/2013  05:04:00       16.823       27.171       -0.024       20.259       19.681       11.580      410.422      387.349      134.103        0.098        0.047       31.957       12.876        0.162      336.574        7.968      863.030
11/08/2013  05:05:00      -75.031        9.044      -12.098       33.056       19.436        7.183     1092.685      377.762       51.590        0.369        0.076       75.575       11.645        0.024      336.265        7.452      863.044
11/08/2013  05:06:00     -115.814       -6.422      -11.699       27.706       21.952       18.223      767.646      481.903      332.064        0.759        0.079      115.992       14.586        0.016      335.554        6.265      863.083
11/08/2013  05:07:00      -88.804      -35.408        3.156       37.713       30.241       19.002     1422.285      914.504      361.084        0.592        0.135       95.603       20.504        0.046      335.455        6.100      863.117
11/08/2013  05:08:00      -75.824      -49.380        7.333       35.904       33.389       26.089     1289.095     1114.827      680.639        0.566        0.154       90.486       19.972        0.049      335.560        6.275      863.145
11/08/2013  05:09:00      -90.238      -72.526        7.155       65.216       47.804       34.746     4253.137     2285.203     1207.309        1.060        0.387      115.771       31.681        0.075      335.772        6.629      863.159
11/08/2013  05:10:00     -230.893     -171.600      -15.096       52.674       62.704       31.357     2774.532     3931.744      983.266        4.534        0.384      287.677       12.229        0.002      335.353        5.927      863.170
11/08/2013  05:11:00     -129.642     -103.841        2.035       69.041       33.517       29.186     4766.637     1123.412      851.811        1.717        0.337      166.102       23.313        0.020      335.437        6.068      863.140
11/08/2013  05:12:00     -126.495      -44.035       -4.184       46.387       40.888       21.688     2151.730     1671.792      470.391        1.113        0.215      133.941       22.972        0.029      335.664        6.450      863.100
11/08/2013  05:13:00      -94.234      -16.946       -4.516       41.982       24.967       18.085     1762.511      623.331      327.067        0.595        0.136       95.746       18.578        0.038      335.551        6.261      863.084
11/08/2013  05:14:00      -54.288      -54.682        9.321       50.999       40.434       27.525     2600.918     1634.868      757.601        0.551        0.250       77.054       31.304        0.165      335.567        6.288      863.071
11/08/2013  05:15:00     -128.540      -93.364       10.562       69.551       45.657       39.823     4837.372     2084.592     1585.837        1.693        0.425      158.869       33.532        0.045      335.526        6.218      863.071
11/08/2013  05:16:00     -124.774      -82.211        0.282       63.799       47.977       31.140     4070.281     2301.832      969.692        1.483        0.367      149.423       29.701        0.040      335.768        6.619      863.078
11/08/2013  05:17:00     -116.948      -29.740       -0.791       38.763       54.043       21.631     1502.573     2920.648      467.913        0.973        0.245      120.670       17.329        0.021      335.632        6.395      863.091
11/08/2013  05:18:00     -141.370      -15.618      -16.013       39.754       33.646       18.300     1580.345     1132.023      334.908        1.177        0.152      142.230       17.362        0.015      335.689        6.491      863.078
11/08/2013  05:19:00     -164.488        1.299      -16.373       29.322       22.165       18.137      859.808      491.271      328.934        1.450        0.084      164.494       12.289        0.006      335.757        6.603      863.051
11/08/2013  05:20:00     -166.524       40.428      -13.077       50.667       33.415       20.421     2567.161     1116.535      417.005        1.682        0.205      171.361       16.827        0.010      335.974        6.965      863.025
11/08/2013  05:21:00     -147.454       33.196      -12.476       33.487       30.652       16.146     1121.391      939.515      260.702        1.266        0.116      151.144       13.182        0.008      335.988        6.987      863.014
11/08/2013  05:22:00     -154.732        1.622      -15.161       42.307       46.643       21.827     1789.849     2175.590      476.409        1.431        0.222      154.741       18.313        0.014      335.939        6.907      863.027
11/08/2013  05:23:00     -164.406      -59.083      -13.334       32.333       39.486       22.524     1045.447     1559.141      507.310        1.690        0.156      174.700       16.537        0.009      335.765        6.616      863.048
11/08/2013  05:24:00     -130.225      -71.005       -4.402       57.700       43.030       26.333     3329.233     1851.567      693.431        1.395        0.294      148.325       28.653        0.037      335.652        6.429      863.070
11/08/2013  05:25:00      -51.746      -21.698        5.537       47.678       33.612       22.424     2273.205     1129.782      502.838        0.354        0.195       56.111       17.634        0.099      335.661        6.444      863.078
11/08/2013  05:26:00      -18.431      -13.068        0.269       16.827       20.421       15.775      283.159      417.020      248.846        0.073        0.047       22.593        9.718        0.185      335.744        6.583      863.057
11/08/2013  05:27:00      -42.380       28.693      -17.262       13.907       12.797       13.331      193.396      163.763      177.711        0.173        0.027       51.180        9.793        0.037      335.822        6.712      863.055
11/08/2013  05:28:00      -40.331      -13.208        1.931       23.106       20.976        9.373      533.909      439.997       87.857        0.143        0.053       42.439       10.269        0.059      335.808        6.688      863.049
11/08/2013  05:29:00      -69.718      -34.016       -9.513       11.362       10.959        8.799      129.090      120.106       77.422        0.322        0.016       77.574        6.000        0.006      335.877        6.803      863.043
11/08/2013  05:30:00     -105.358      -46.381      -14.427       27.162       20.917       14.690      737.769      437.531      215.789        0.743        0.070      115.115       11.486        0.010      335.844        6.747      863.032
11/08/2013  05:31:00     -120.631      -28.651      -10.070       24.187       26.682       16.152      585.013      711.943      260.880        0.852        0.078      123.987       11.522        0.009      335.739        6.575      863.045
11/08/2013  05:32:00      -72.261      -60.448        7.401       50.854       44.373       26.774     2586.100     1968.961      716.826        0.710        0.264       94.210       22.752        0.058      335.738        6.572      863.058
11/08/2013  05:33:00     -123.096     -102.335       -4.201       52.024       49.353       30.418     2706.460     2435.694      925.226        1.585        0.303      160.078       28.052        0.031      335.852        6.762      863.075
11/08/2013  05:34:00      -63.131      -72.358        6.191       59.036       35.790       34.888     3485.269     1280.957     1217.181        0.762        0.299       96.027       34.455        0.129      335.909        6.857      863.077
11/08/2013  05:35:00     -164.331      -49.918      -13.056       43.423       43.123       26.692     1885.554     1859.585      712.478        1.706        0.223      171.745       24.590        0.020      335.920        6.873      863.058
11/08/2013  05:36:00     -114.773      -61.660       -0.644       44.466       36.726       21.410     1977.186     1348.835      458.395        1.038        0.189      130.287       15.509        0.014      335.920        6.874      863.000
11/08/2013  05:37:00     -119.203       47.211       -9.111       65.947       42.415       29.942     4348.984     1799.007      896.531        1.178        0.352      128.212       27.298        0.045      335.889        6.822      862.964
11/08/2013  05:38:00     -118.814       27.797       -4.926       93.860       44.311       24.806     8809.730     1963.469      615.356        1.315        0.569      122.023       31.722        0.068      336.199        7.340      862.931
11/08/2013  05:39:00      -23.161        2.557       -2.720       56.624       30.836       22.560     3206.238      950.858      508.954        0.261        0.233       23.301       22.844        0.961      335.948        6.920      862.913
11/08/2013  05:40:00      -28.760       12.673        6.911       67.091       27.983       25.620     4501.227      783.033      656.370        0.349        0.297       31.428       32.435        1.065      335.742        6.579      862.912
11/08/2013  05:41:00      -83.140      -54.995      -11.588       53.721       31.060       28.825     2885.985      964.746      830.895        0.738        0.234       99.683       31.064        0.097      335.921        6.876      862.932
11/08/2013  05:42:00      -68.922      -66.517       -1.280       39.084       28.516       20.642     1527.553      813.184      426.087        0.597        0.138       95.785       16.274        0.029      335.785        6.653      862.942
11/08/2013  05:43:00      -12.584      -66.508       -2.481       20.765       34.293       17.006      431.190     1175.983      289.202        0.324        0.095       67.688        8.242        0.015      335.958        6.937      862.937
11/08/2013  05:44:00      -60.271      -84.068       -8.231       47.165       20.533       17.372     2224.516      421.607      301.779        0.686        0.147      103.441       18.898        0.033      336.112        7.195      862.948
11/08/2013  05:45:00      -23.150      -51.237       -4.710       40.723       27.097       21.713     1658.401      734.231      471.445        0.302        0.143       56.224       13.241        0.055      336.070        7.125      862.938
11/08/2013  05:46:00      -37.575      -18.650        3.013       36.443       22.481       17.503     1328.089      505.387      306.347        0.195        0.107       41.949       19.239        0.210      336.064        7.115      862.929
11/08/2013  05:47:00      -70.140      -31.383        4.113       38.244       20.567       18.533     1462.641      422.992      343.455        0.407        0.111       76.840       18.205        0.056      336.131        7.227      862.935
11/08/2013  05:48:00      -71.606      -23.462       -2.774       37.636       24.480       20.050     1416.433      599.293      402.004        0.405        0.121       75.351       21.442        0.081      336.216        7.368      862.945
11/08/2013  05:49:00      -20.385      -26.051        4.553       30.823       19.079       11.927      950.044      363.999      142.263        0.129        0.073       33.079       10.781        0.106      336.181        7.310      862.954
11/08/2013  05:50:00      -71.956      -32.142       -9.815       36.700       19.351       11.290     1346.917      374.464      127.462        0.408        0.092       78.809        4.268        0.003      336.065        7.117      862.993
11/08/2013  05:51:00      -18.929      -39.152       24.019       60.272       26.638       27.419     3632.728      709.568      751.795        0.378        0.255       43.488       31.619        0.529      335.825        6.717      863.003
11/08/2013  05:52:00       32.801      -58.876       15.402       29.997       29.251       23.146      899.840      855.619      535.751        0.353        0.115       67.396       11.143        0.027      336.051        7.093      862.993
11/08/2013  05:53:00       17.886       30.856       13.485       24.534       35.484       19.206      601.893     1259.137      368.871        0.184        0.111       35.665       10.776        0.091      335.846        6.752      862.968
11/08/2013  05:54:00        0.651       71.060        2.823       33.563       25.021       21.953     1126.503      626.049      481.933        0.365        0.112       71.063       15.015        0.045      335.481        6.145      862.971
11/08/2013  05:55:00      -65.451       16.978       -7.360       26.721       29.347       15.256      714.037      861.234      232.751        0.322        0.090       67.617       12.182        0.032      335.756        6.602      862.980
11/08/2013  05:56:00      -56.399      -38.865       -6.229       39.573       23.771       20.239     1566.013      565.068      409.612        0.363        0.127       68.493        8.830        0.017      335.685        6.483      862.990
11/08/2013  05:57:00      -43.890      -52.853        6.802       33.512       26.325       23.362     1123.056      693.006      545.802        0.356        0.118       68.700       22.368        0.106      335.510        6.191      863.014
11/08/2013  05:58:00      -86.635      -59.265        2.520       39.870       35.974       25.274     1589.635     1294.147      638.770        0.727        0.176      104.967       21.604        0.042      335.595        6.332      863.032
11/08/2013  05:59:00      -41.231      -41.310        5.759       51.037       14.698       18.910     2604.797      216.046      357.572        0.331        0.159       58.366       24.651        0.178      335.703        6.515      863.043
11/08/2013  06:00:00      -12.714      -21.446        5.194       20.223       15.385       18.472      408.965      236.696      341.213        0.082        0.049       24.931       14.158        0.322      335.695        6.501      863.039
11/08/2013  06:01:00      -80.357      -32.151       -3.392       35.925       13.677       11.177     1290.615      187.064      124.919        0.455        0.080       86.551       11.904        0.019      335.656        6.435      863.023
11/08/2013  06:02:00      -29.767      -28.500       12.421       53.236       20.283       19.653     2834.063      411.405      386.227        0.274        0.182       41.211       24.197        0.345      335.604        6.347      863.014
11/08/2013  06:03:00        7.992       -9.293       16.165       13.330       16.539        8.192      177.687      273.532       67.117        0.046        0.026       12.257        5.300        0.187      335.503        6.180      863.015
11/08/2013  06:04:00        2.443        4.275        3.724       14.786       13.287        7.606      218.619      176.555       57.845        0.025        0.023        4.923        7.456        2.294      335.532        6.228      863.014
11/08/2013  06:05:00      -34.835      -21.402       -0.142       23.303       18.359       10.745      543.037      337.046      115.446        0.133        0.050       40.884        9.250        0.051      335.675        6.468      863.008
11/08/2013  06:06:00      -10.426       -8.863        8.236       15.330       15.774        9.815      235.022      248.806       96.337        0.042        0.029       13.684       11.506        0.707      335.612        6.363      863.008
11/08/2013  06:07:00      -25.829       17.786       -2.203       13.333        9.709        9.763      177.762       94.259       95.307        0.068        0.018       31.361        8.299        0.070      335.479        6.141      863.016
11/08/2013  06:08:00      -27.015      -18.985      -10.821       10.493       23.418        6.234      110.093      548.387       38.869        0.095        0.035       33.019        4.422        0.018      335.623        6.381      863.025
11/08/2013  06:09:00      -63.203      -43.396       -0.422       15.651       19.073       10.688      244.960      363.772      114.244        0.330        0.036       76.667        9.574        0.016      335.835        6.733      863.035
11/08/2013  06:10:00      -58.395        2.603       -0.780       39.455       28.291       19.542     1556.663      800.368      381.895        0.308        0.137       58.453       21.722        0.138      335.260        5.775      863.050
11/08/2013  06:11:00      -55.501      -15.901       -2.142       31.163       21.983       10.222      971.110      483.242      104.496        0.245        0.078       57.734        7.590        0.017      335.202        5.678      863.057
11/08/2013  06:12:00        8.551      -24.034        4.674       11.648       28.899       13.304      135.680      835.146      177.003        0.091        0.057       25.510       15.811        0.384      335.171        5.627      863.059
11/08/2013  06:13:00       21.220       21.491        5.079       19.156        9.872       11.541      366.949       97.452      133.187        0.077        0.030       30.202        6.699        0.049      334.973        5.298      863.089
11/08/2013  06:14:00        4.673       12.757        5.855        7.262       15.776        9.117       52.733      248.873       83.124        0.030        0.019       13.586        6.413        0.223      335.028        5.392      863.122
11/08/2013  06:15:00       18.181        9.553       -1.551       10.265       11.297        7.106      105.370      127.618       50.492        0.035        0.014       20.538        7.149        0.121      335.071        5.462      863.132
11/08/2013  06:16:00       12.691       -8.727        2.180       11.719       12.274        9.425      137.329      150.653       88.824        0.031        0.019       15.402        8.026        0.272      335.182        5.646      863.144
11/08/2013  06:17:00      -10.661      -11.285        0.593       14.019       11.901        7.985      196.526      141.637       63.754        0.032        0.020       15.524        4.281        0.076      335.260        5.772      863.155
11/08/2013  06:18:00      -15.221       -4.984       -0.050       21.343       11.956       11.223      455.504      142.949      125.961        0.049        0.036       16.016        8.554        0.285      335.265        5.783      863.174
11/08/2013  06:19:00      -22.052       11.856        2.961       20.751       15.663        9.368      430.596      245.322       87.761        0.070        0.038       25.038        6.091        0.059      335.149        5.593      863.183
11/08/2013  06:20:00      -11.820        4.929       -6.357       19.930        8.663        6.414      397.196       75.052       41.140        0.036        0.026       12.807        5.902        0.212      335.243        5.746      863.186
11/08/2013  06:21:00        0.532        1.346       -6.097        8.525        8.327        8.464       72.684       69.335       71.638        0.013        0.011        1.448        7.149       24.385      335.193        5.663      863.183
11/08/2013  06:22:00       -7.029       -3.477       -0.358        7.591        4.724        7.358       57.620       22.312       54.140        0.010        0.007        7.842        5.937        0.573      335.357        5.935      863.190
11/08/2013  06:23:00      -32.971        6.931       -5.244        7.175       10.425        5.402       51.486      108.672       29.184        0.068        0.009       33.692        6.673        0.039      335.375        5.966      863.206
11/08/2013  06:24:00      -36.139       14.269       -8.273        8.353        8.348        4.439       69.774       69.687       19.702        0.087        0.008       38.854        3.619        0.009      335.352        5.927      863.213
11/08/2013  06:25:00      -15.211       13.778        1.679        3.960        5.962        3.783       15.682       35.544       14.314        0.024        0.003       20.523        2.200        0.011      335.429        6.053      863.220
11/08/2013  06:26:00      -37.923      -10.158       -2.733       13.310        8.368        4.434      177.145       70.030       19.661        0.091        0.013       39.260        5.229        0.018      335.387        5.985      863.220
11/08/2013  06:27:00      -65.780      -10.949       -9.616        9.347       10.092        7.432       87.370      101.853       55.239        0.239        0.012       66.685        3.642        0.003      335.161        5.611      863.218
11/08/2013  06:28:00      -86.915      -17.337      -13.322       11.844       15.698        8.805      140.289      246.434       77.533        0.425        0.023       88.627        6.220        0.005      334.974        5.300      863.218
11/08/2013  06:29:00     -102.327      -10.904       -8.297       29.540       20.510       15.580      872.613      420.654      242.735        0.610        0.077      102.907       12.933        0.016      334.827        5.057      863.231
11/08/2013  06:30:00      -17.759       -5.466        2.696       25.254       16.169       13.657      637.771      261.434      186.510        0.072        0.054       18.581       12.610        0.461      334.856        5.103      863.235
11/08/2013  06:31:00       27.680       35.130        9.800       20.693       19.801       18.930      428.191      392.078      358.348        0.164        0.059       44.724        8.606        0.037      334.652        4.767      863.241
11/08/2013  06:32:00        8.729       33.300        2.391       11.003        8.542        7.515      121.075       72.962       56.476        0.072        0.013       34.425        5.641        0.027      335.231        5.728      863.240
11/08/2013  06:33:00      -35.432       25.102       -6.502       22.123       14.288        8.163      489.410      204.141       66.638        0.134        0.038       43.422        9.831        0.051      335.273        5.798      863.240
11/08/2013  06:34:00      -39.724       -4.889       -4.064       15.230        8.269        9.331      231.946       68.372       87.071        0.100        0.019       40.024        7.433        0.034      334.935        5.235      863.236
11/08/2013  06:35:00      -26.614      -18.100       -6.703       17.053        9.764        7.334      290.794       95.339       53.790        0.076        0.022       32.185        6.925        0.046      335.082        5.481      863.243
11/08/2013  06:36:00      -96.193      -15.372      -12.891       29.178       14.049        9.280      851.332      197.372       86.118        0.539        0.057       97.413        9.176        0.009      334.849        5.094      863.266
11/08/2013  06:37:00      -70.749      -31.127      -11.809       57.972       17.527       16.601     3360.768      307.194      275.589        0.503        0.197       77.294       24.223        0.098      334.692        4.833      863.284
11/08/2013  06:38:00      -44.816      -17.023       -8.940       26.665       14.789       11.198      711.031      218.714      125.390        0.172        0.053       47.941       12.562        0.069      334.726        4.891      863.281
11/08/2013  06:39:00      -60.018      -26.545       -7.448        9.814        8.368        7.996       96.324       70.031       63.936        0.230        0.012       65.626        4.574        0.005      334.752        4.933      863.256
11/08/2013  06:40:00      -53.428      -21.095       -5.821        6.564        8.255        6.450       43.082       68.139       41.601        0.174        0.008       57.442        3.419        0.004      334.972        5.298      863.219
11/08/2013  06:41:00      -54.582      -22.744       -8.826        6.623        9.888        5.686       43.861       97.782       32.333        0.187        0.009       59.131        3.220        0.003      335.308        5.856      863.207
11/08/2013  06:42:00      -64.507      -32.778       -8.034        9.496       10.450        5.459       90.169      109.203       29.801        0.276        0.011       72.357        4.638        0.004      334.989        5.327      863.207
11/08/2013  06:43:00      -73.086      -16.113       -9.983       12.998       13.021        9.811      168.958      169.557       96.264        0.307        0.022       74.841        6.865        0.008      334.833        5.066      863.208
11/08/2013  06:44:00      -79.021       -0.189       -5.181       15.740       15.150       12.480      247.745      229.515      155.760        0.345        0.032       79.022        9.703        0.015      334.794        5.003      863.199
11/08/2013  06:45:00      -79.291       -7.242       -4.075       20.493       16.014        9.498      419.969      256.453       90.208        0.356        0.038       79.621        6.047        0.006      334.884        5.152      863.180
11/08/2013  06:46:00      -28.553      -23.083        7.722       22.876       16.100       12.176      523.330      259.213      148.248        0.117        0.047       36.716        6.620        0.033      334.785        4.988      863.179
11/08/2013  06:47:00       -9.118      -22.780       -2.167       14.269        8.300        7.814      203.595       68.895       61.055        0.047        0.017       24.537        4.793        0.038      334.920        5.211      863.193
11/08/2013  06:48:00       -6.364      -21.099        5.089       11.198       20.503        9.313      125.398      420.378       86.725        0.057        0.032       22.038        5.666        0.066      334.936        5.236      863.206
11/08/2013  06:49:00      -27.788        1.654        0.887       11.125       13.122        7.803      123.764      172.182       60.881        0.057        0.018       27.837        5.075        0.033      334.951        5.262      863.215
11/08/2013  06:50:00      -62.700        0.777       -3.336        9.418       10.849        6.002       88.693      117.706       36.021        0.209        0.012       62.705        5.855        0.009      334.981        5.314      863.210
11/08/2013  06:51:00      -85.701        7.386       -5.919       17.224       13.583       11.036      296.670      184.494      121.792        0.402        0.030       86.019        6.479        0.006      334.904        5.184      863.217
11/08/2013  06:52:00      -97.145       25.322       -8.191       19.386       16.250       11.658      375.822      264.047      135.903        0.546        0.039      100.391        5.964        0.004      334.714        4.869      863.231
11/08/2013  06:53:00     -104.286       -4.680      -13.594       13.729       26.592       10.208      188.476      707.150      104.208        0.604        0.050      104.391       10.856        0.011      334.791        4.998      863.219
11/08/2013  06:54:00     -138.866      -48.907      -11.518       28.652       26.275       12.070      820.937      690.370      145.675        1.173        0.083      147.226       10.298        0.005      334.718        4.876      863.228
11/08/2013  06:55:00     -175.893      -61.692      -13.647       21.270       36.218       14.104      452.421     1311.770      198.924        1.845        0.098      186.398       12.411        0.004      334.567        4.624      863.235
11/08/2013  06:56:00     -105.771      -46.696       -6.785       33.089       18.120       16.312     1094.864      328.333      266.079        0.755        0.084      115.620       18.178        0.025      334.704        4.852      863.227
11/08/2013  06:57:00     -105.145      -18.746       -8.504       27.472       23.559       15.998      754.713      555.009      255.939        0.652        0.078      106.803       16.606        0.024      334.728        4.891      863.218
11/08/2013  06:58:00     -140.230      -59.011      -11.035       18.811       23.618       15.319      353.860      557.823      234.670        1.221        0.057      152.140       10.537        0.005      334.666        4.789      863.206
11/08/2013  06:59:00     -167.864      -51.496       -7.962       18.649       21.140       12.299      347.789      446.911      151.273        1.592        0.047      175.585        9.041        0.003      334.596        4.674      863.205
11/08/2013  07:00:00     -144.632      -56.657       -3.800       37.474       16.965       16.567     1404.306      287.817      274.467        1.305        0.098      155.333       17.777        0.013      334.775        4.970      863.212
11/08/2013  07:01:00     -105.334      -48.779       -0.086       32.441       28.966       17.058     1052.446      839.051      290.989        0.783        0.109      116.080       17.164        0.022      334.831        5.063      863.221
11/08/2013  07:02:00      -84.175      -42.577        4.221       26.959       20.326       15.520      726.794      413.130      240.871        0.515        0.069       94.330       13.051        0.019      334.883        5.150      863.230
11/08/2013  07:03:00      -61.742      -42.858        7.889       45.758       25.740       22.145     2093.823      662.541      490.392        0.448        0.162       75.159       24.481        0.106      334.927        5.223      863.247
11/08/2013  07:04:00      -33.424      -30.132        6.486       49.137       20.686       18.064     2414.463      427.900      326.314        0.262        0.158       45.001       18.775        0.174      334.860        5.112      863.251
11/08/2013  07:05:00      -33.484       -2.280        3.740       14.028        9.587       11.265      196.790       91.914      126.894        0.078        0.021       33.562        8.900        0.070      334.829        5.059      863.275
11/08/2013  07:06:00      -28.034      -12.040       -1.517       15.691       11.351        7.144      246.207      128.848       51.033        0.068        0.021       30.510        5.236        0.029      334.890        5.162      863.296
11/08/2013  07:07:00        2.587       -4.846        9.197        5.394        6.668        6.745       29.099       44.468       45.496        0.012        0.006        5.494        4.261        0.602      335.122        5.547      863.306
11/08/2013  07:08:00       -2.087        0.619        4.411        7.928       10.337        7.819       62.852      106.851       61.144        0.013        0.012        2.177        8.671       15.873      335.105        5.518      863.306
11/08/2013  07:09:00        8.107       20.828       19.024       11.866       15.038       11.591      140.802      226.130      134.361        0.068        0.025       22.350        6.946        0.097      335.136        5.570      863.308
11/08/2013  07:10:00       -8.092       -9.193       18.672        7.339        9.112        8.581       53.858       83.031       73.632        0.035        0.011       12.247        3.222        0.069      335.358        5.939      863.315
11/08/2013  07:11:00      -28.811       -2.215       -5.362        9.391        4.196        7.384       88.197       17.607       54.527        0.051        0.008       28.896        6.239        0.047      335.124        5.548      863.318
11/08/2013  07:12:00      -66.970       10.183       -0.306       11.400       13.347        9.131      129.965      178.142       83.367        0.249        0.020       67.739        8.748        0.017      335.067        5.455      863.307
11/08/2013  07:13:00     -111.389      -14.689       -8.253       21.507       12.995       10.320      462.546      168.861      106.495        0.671        0.037      112.353        9.580        0.007      334.988        5.323      863.318
11/08/2013  07:14:00     -102.755      -30.669       -5.075       32.139       22.504       15.092     1032.884      506.416      227.776        0.665        0.088      107.234       16.039        0.022      335.006        5.354      863.319
11/08/2013  07:15:00      -89.785      -19.701        2.755       30.138       19.606       13.499      908.324      384.408      182.216        0.497        0.074       91.921       14.718        0.026      335.088        5.490      863.330
11/08/2013  07:16:00      -94.118      -19.183       -4.178       29.400       18.118       14.323      864.349      328.255      205.142        0.532        0.070       96.053       12.484        0.017      335.214        5.698      863.333
11/08/2013  07:17:00      -78.559      -23.853       -2.838       23.550       15.150       12.850      554.614      229.511      165.113        0.385        0.047       82.101       11.137        0.018      335.252        5.762      863.354
11/08/2013  07:18:00      -77.467       -1.474       -2.654       20.058       19.576       13.350      402.320      383.232      178.214        0.349        0.048       77.481       10.433        0.018      335.236        5.734      863.367
11/08/2013  07:19:00      -50.365       -9.338        0.826       15.551       10.969        8.742      241.830      120.321       76.420        0.153        0.022       51.223        6.427        0.016      335.316        5.867      863.372
11/08/2013  07:20:00      -79.759       -0.525       -6.306       11.771       11.079        7.891      138.565      122.745       62.275        0.336        0.016       79.761        6.094        0.006      335.432        6.061      863.377
11/08/2013  07:21:00      -85.821      -23.805       -8.374        9.735       16.639        7.436       94.770      276.857       55.301        0.421        0.021       89.062        5.951        0.004      335.385        5.982      863.379
11/08/2013  07:22:00     -101.908      -44.155       -4.906       14.600       15.405       10.209      213.160      237.319      104.233        0.646        0.028      111.063        5.510        0.002      335.286        5.818      863.387
11/08/2013  07:23:00      -92.925      -40.537       -4.733       18.813       13.884       11.660      353.927      192.765      135.953        0.549        0.034      101.382        7.956        0.006      335.217        5.704      863.388
11/08/2013  07:24:00      -65.450      -20.022       -4.416       23.937       20.893       12.514      572.983      436.525      156.588        0.293        0.058       68.445       11.111        0.026      335.266        5.785      863.385
11/08/2013  07:25:00      -49.799       -5.796       -0.916       21.537       16.733       14.156      463.862      280.003      200.384        0.173        0.047       50.135       10.817        0.047      335.354        5.929      863.390
11/08/2013  07:26:00      -39.721       -4.814        0.532       15.407       12.195       11.172      237.388      148.708      124.809        0.106        0.026       40.012        7.644        0.037      335.408        6.021      863.405
11/08/2013  07:27:00      -20.786      -18.782        5.137       22.159       22.255       14.724      491.025      495.272      216.797        0.101        0.060       28.015       14.725        0.276      335.529        6.223      863.423
11/08/2013  07:28:00      -77.722      -86.581       -6.726       29.106       24.878       20.162      847.150      618.913      406.523        0.773        0.094      116.348       22.001        0.036      335.542        6.245      863.428
11/08/2013  07:29:00      -67.535      -20.756       -4.216       22.980       25.941       15.554      528.069      672.927      241.920        0.323        0.072       70.652       12.833        0.033      335.592        6.327      863.431
11/08/2013  07:30:00      -63.374      -17.628       -9.918        9.557       13.228        7.966       91.340      174.977       63.459        0.238        0.016       65.780        7.445        0.013      335.579        6.308      863.428
11/08/2013  07:31:00      -67.251       -9.356       -6.958        7.127        9.292        7.293       50.793       86.337       53.186        0.242        0.010       67.899        2.473        0.001      335.529        6.225      863.448
11/08/2013  07:32:00      -68.524       -8.209       -7.632       22.972       14.509       12.747      527.717      210.513      162.473        0.286        0.045       69.014       12.868        0.035      335.627        6.387      863.453
11/08/2013  07:33:00      -49.784       -3.293       -8.103       18.645       16.950       13.136      347.649      287.314      172.548        0.168        0.040       49.893       11.672        0.055      335.645        6.417      863.450
11/08/2013  07:34:00      -26.954      -21.939       -5.735       10.855        7.058        9.064      117.823       49.822       82.151        0.075        0.012       34.754        8.097        0.054      335.704        6.515      863.438
11/08/2013  07:35:00      -29.873      -45.046       -0.000       17.599       13.938        9.317      309.721      194.257       86.811        0.176        0.030       54.051        6.473        0.014      335.779        6.641      863.423
11/08/2013  07:36:00      -70.289      -78.882       -2.711       25.779       17.011       16.497      664.570      289.375      272.156        0.620        0.061      105.654       16.497        0.024      335.786        6.652      863.407
11/08/2013  07:37:00      -60.962      -63.545        1.015       33.192       28.917       23.608     1101.734      836.177      557.336        0.512        0.125       88.059       23.277        0.070      335.754        6.599      863.400
11/08/2013  07:38:00      -41.222      -43.159        2.696       12.213       17.895       11.180      149.167      320.236      125.003        0.208        0.030       59.682        6.472        0.012      335.813        6.698      863.405
11/08/2013  07:39:00       -3.097      -26.045        8.816       19.509       16.256       10.773      380.604      264.248      116.051        0.076        0.038       26.229        8.479        0.105      336.001        7.010      863.411
11/08/2013  07:40:00      -24.691      -51.632        3.026       12.925        8.367       10.158      167.050       70.000      103.182        0.181        0.017       57.232        6.945        0.015      336.025        7.049      863.406
11/08/2013  07:41:00      -21.253      -83.791        3.069       34.865       20.042       14.036     1215.552      401.675      197.015        0.465        0.091       86.444       10.880        0.016      336.106        7.184      863.401
11/08/2013  07:42:00       -5.954      -39.918        1.016       29.685       34.048       16.493      881.198     1159.233      272.007        0.197        0.116       40.360       14.276        0.125      336.227        7.386      863.394
11/08/2013  07:43:00      -19.165      -63.795       -7.337       20.945       23.189       17.365      438.697      537.715      301.530        0.288        0.064       66.611        8.685        0.017      336.208        7.356      863.380
11/08/2013  07:44:00      -35.412       -4.666       12.489       26.124       17.396       20.750      682.456      302.606      430.552        0.142        0.071       35.719        7.567        0.045      336.297        7.504      863.381
11/08/2013  07:45:00      -64.773      -35.216        2.754       34.580       33.029       19.655     1195.810     1090.912      386.328        0.406        0.134       73.728       14.064        0.036      336.075        7.133      863.398
11/08/2013  07:46:00      -41.143      -41.370        4.367       36.632       32.916       19.001     1341.912     1083.440      361.046        0.310        0.139       58.346       19.376        0.110      336.065        7.116      863.416
11/08/2013  07:47:00      -55.324      -51.875       -2.011       37.268       25.816       14.337     1388.874      666.491      205.558        0.401        0.113       75.840       13.163        0.030      336.021        7.042      863.438
11/08/2013  07:48:00      -55.619      -25.258        5.091       28.367       22.866       13.852      804.693      522.843      191.887        0.264        0.076       61.086       15.055        0.061      336.045        7.082      863.450
11/08/2013  07:49:00      -69.618      -23.981        0.638       22.289       13.091        8.365      496.784      171.374       69.972        0.308        0.037       73.633        7.872        0.011      336.070        7.125      863.456
11/08/2013  07:50:00      -51.703      -25.366        5.036       25.751       20.500       14.834      663.117      420.249      220.056        0.232        0.065       57.590       11.901        0.043      336.157        7.270      863.467
11/08/2013  07:51:00      -84.365      -40.871       -0.358       31.536       14.682       12.529      994.532      215.549      156.983        0.508        0.068       93.744       14.160        0.023      336.193        7.331      863.475
11/08/2013  07:52:00     -100.666      -44.274       -0.524       25.714       24.241       15.614      661.216      587.642      243.808        0.679        0.075      109.972       13.462        0.015      336.206        7.351      863.488
11/08/2013  07:53:00     -104.997      -26.825        0.756       33.308       21.135       15.725     1109.429      446.690      247.264        0.677        0.090      108.370       15.646        0.021      336.256        7.436      863.498
11/08/2013  07:54:00      -41.742      -24.452        5.624       33.615       18.474       13.314     1129.991      341.306      177.255        0.201        0.082       48.376       15.481        0.102      336.380        7.642      863.497
11/08/2013  07:55:00      -85.580       -9.084        0.018       21.023       13.310       11.325      441.975      177.152      128.261        0.408        0.037       86.061       12.241        0.020      336.334        7.565      863.507
11/08/2013  07:56:00      -67.585        0.415       -8.592       16.681        8.661       10.957      278.250       75.009      120.059        0.256        0.024       67.586        3.826        0.003      336.387        7.654      863.518
11/08/2013  07:57:00      -56.522      -23.681       -6.369       25.503       22.238       10.366      650.424      494.544      107.450        0.252        0.063       61.283        5.191        0.007      336.399        7.675      863.536
11/08/2013  07:58:00      -60.422      -50.477       -6.098        9.919       13.076        9.007       98.390      170.984       81.119        0.329        0.018       78.732        5.171        0.004      336.443        7.747      863.546
11/08/2013  07:59:00      -37.621      -63.147       -3.974       17.594       18.986       12.709      309.553      360.449      161.512        0.312        0.042       73.504        7.966        0.012      336.441        7.745      863.549
11/08/2013  08:00:00      -47.661      -68.292       -2.982       18.284       13.630       10.829      334.312      185.765      117.273        0.379        0.032       83.279        9.658        0.013      336.440        7.742      863.548
11/08/2013  08:01:00      -46.748      -67.037        2.173       27.054       38.323       20.969      731.918     1468.624      439.693        0.466        0.132       81.727       11.347        0.019      336.405        7.685      863.543
11/08/2013  08:02:00      -56.973      -63.286       -0.674       30.854       36.347       29.228      951.969     1321.124      854.297        0.519        0.156       85.153       22.979        0.073      336.394        7.665      863.546
11/08/2013  08:03:00      -34.838      -65.093        2.420       34.694       37.722       23.009     1203.644     1422.948      529.405        0.431        0.158       73.830       16.803        0.052      336.375        7.635      863.547
11/08/2013  08:04:00      -53.827      -58.949       -2.730       37.362       31.680       23.216     1395.955     1003.618      538.966        0.466        0.147       79.826       19.740        0.061      336.339        7.574      863.564
11/08/2013  08:05:00      -65.232      -83.367       -1.774       41.440       38.112       25.120     1717.303     1452.508      631.031        0.750        0.190      105.855       25.193        0.057      336.233        7.397      863.567
11/08/2013  08:06:00      -66.359     -119.599       -7.237       36.263       33.373       22.017     1314.970     1113.762      484.761        1.084        0.146      136.775       20.669        0.023      336.213        7.363      863.581
11/08/2013  08:07:00      -37.616      -74.810        3.130       33.371       35.424       22.875     1113.627     1254.832      523.271        0.496        0.145       83.734       19.084        0.052      336.243        7.414      863.592
11/08/2013  08:08:00      -42.579      -55.969       -1.661       35.384       35.532       25.142     1252.002     1262.512      632.104        0.405        0.157       70.324       15.490        0.049      336.290        7.493      863.597
11/08/2013  08:09:00      -88.704      -62.047      -13.909       39.942       36.579       20.124     1595.327     1338.039      404.983        0.762        0.167      108.250       20.373        0.035      336.292        7.495      863.613
11/08/2013  08:10:00      -53.698      -77.484        1.762       43.890       29.956       23.965     1926.350      897.350      574.312        0.614        0.170       94.272       22.215        0.056      336.397        7.671      863.629
11/08/2013  08:11:00      -60.972     -103.268       -5.376       22.608       21.855       16.901      511.111      477.634      285.645        0.784        0.064      119.925       11.464        0.009      336.386        7.653      863.636
11/08/2013  08:12:00      -53.977      -83.547       -6.888       16.111       16.120       12.696      259.573      259.841      161.188        0.531        0.034       99.467       11.264        0.013      336.417        7.707      863.658
11/08/2013  08:13:00      -59.731      -60.304       -0.160       26.950       28.557       20.937      726.310      815.527      438.365        0.459        0.099       84.879       19.820        0.055      336.493        7.832      863.663
11/08/2013  08:14:00      -36.032      -14.540        7.712       39.615       29.052       16.982     1569.364      844.035      288.378        0.214        0.135       38.855       13.728        0.125      336.643        8.084      863.658
11/08/2013  08:15:00      -87.683      -30.737        3.501       32.517       34.743       23.646     1057.324     1207.053      559.145        0.573        0.141       92.914       23.521        0.064      336.692        8.165      863.657
11/08/2013  08:16:00      -87.117      -79.256       -8.932       38.183       28.069       18.971     1457.908      787.895      359.883        0.828        0.130      117.775        9.211        0.006      336.638        8.075      863.654
11/08/2013  08:17:00      -50.649      -75.311       -6.379       17.085       19.042       13.715      291.902      362.608      188.109        0.456        0.042       90.758        9.822        0.012      336.625        8.054      863.655
11/08/2013  08:18:00      -49.140      -58.887        0.847       17.591       17.282       13.636      309.448      298.666      185.937        0.334        0.040       76.697        6.645        0.008      336.740        8.245      863.658
11/08/2013  08:19:00      -41.144      -60.530       -5.869        9.118       20.569       12.504       83.139      423.068      156.356        0.303        0.033       73.189        5.174        0.005      336.763        8.284      863.655
11/08/2013  08:20:00      -43.699      -48.252       -4.915       15.818       16.191       10.034      250.221      262.146      100.672        0.244        0.031       65.098        6.768        0.011      336.834        8.402      863.656
11/08/2013  08:21:00      -65.455      -30.457        2.704       28.190       26.651       19.979      794.672      710.254      399.158        0.356        0.095       72.194       11.686        0.026      336.964        8.617      863.649
11/08/2013  08:22:00      -54.299      -45.096        0.486       39.007       31.039       19.062     1521.512      963.449      363.346        0.391        0.142       70.583       20.521        0.085      336.986        8.657      863.634
11/08/2013  08:23:00      -62.209      -81.435      -12.926       13.659       25.465       11.393      186.574      648.457      129.799        0.582        0.048      102.478        4.341        0.002      336.856        8.438      863.634
11/08/2013  08:24:00      -45.053      -66.944       -6.960       16.553       25.234       13.117      273.995      636.778      172.051        0.382        0.054       80.693       12.057        0.022      336.926        8.555      863.638
11/08/2013  08:25:00      -49.850      -55.426       -5.368       26.630       23.404       18.106      709.140      547.732      327.830        0.359        0.079       74.546       19.213        0.066      336.982        8.647      863.640
11/08/2013  08:26:00      -55.919      -67.437      -10.216       25.481       29.133       19.459      649.294      848.736      378.661        0.483        0.094       87.605       11.993        0.019      337.164        8.952      863.638
11/08/2013  08:27:00      -61.549      -22.485        0.343       24.436       44.009       17.777      597.099     1936.766      316.035        0.357        0.142       65.527       12.209        0.035      337.166        8.956      863.631
11/08/2013  08:28:00      -34.341      -22.737       -5.944       24.322       27.835       15.629      591.577      774.764      244.280        0.167        0.081       41.186        7.792        0.036      337.108        8.860      863.633
11/08/2013  08:29:00      -31.973      -20.595        4.948       25.187       17.905       15.223      634.395      320.595      231.728        0.133        0.059       38.032       15.688        0.170      337.249        9.095      863.627
11/08/2013  08:30:00      -77.229      -45.532       -1.592       29.144       26.102       17.123      849.368      681.312      293.181        0.493        0.091       89.653       12.574        0.020      337.104        8.851      863.617
11/08/2013  08:31:00      -85.891       -6.175      -11.011       11.238       10.608        7.939      126.290      112.535       63.029        0.392        0.015       86.113        1.086        0.000      337.075        8.803      863.609
11/08/2013  08:32:00      -68.458       -8.737       -8.593       12.456       21.062       10.277      155.151      443.613      105.610        0.277        0.035       69.014        8.510        0.015      337.136        8.908      863.604
11/08/2013  08:33:00      -49.249       -8.522       -7.535       15.671       26.080        9.589      245.580      680.167       91.953        0.179        0.051       49.980        5.520        0.012      337.178        8.976      863.604
11/08/2013  08:34:00      -23.008       27.976        6.795       20.388       17.821       19.900      415.674      317.600      396.029        0.124        0.056       36.222       16.407        0.205      337.605        9.692      863.610
11/08/2013  08:35:00      -19.702       20.195        2.885       18.023       18.945       15.545      324.831      358.920      241.653        0.086        0.046       28.214        8.829        0.098      337.602        9.687      863.617
11/08/2013  08:36:00      -51.078       32.715      -13.462       16.860       21.528       15.382      284.252      463.462      236.600        0.242        0.049       60.656       13.805        0.052      337.358        9.278      863.627
11/08/2013  08:37:00      -57.904       20.956      -11.315       16.323       11.823       10.071      266.452      139.773      101.428        0.221        0.025       61.579        9.201        0.022      337.379        9.311      863.630
11/08/2013  08:38:00      -54.712        4.255       -8.730       19.532        9.385        7.284      381.518       88.086       53.054        0.181        0.026       54.877        5.549        0.010      337.376        9.307      863.633
11/08/2013  08:39:00      -22.350       -5.420        4.787       22.425       10.600       11.728      502.890      112.369      137.557        0.065        0.038       22.998        8.908        0.150      337.660        9.784      863.629
11/08/2013  08:40:00      -43.179        0.190        4.065       21.012       21.121       12.349      441.505      446.085      152.504        0.146        0.052       43.180        6.899        0.026      337.477        9.478      863.612
11/08/2013  08:41:00      -87.530      -12.428       -3.021       27.871       24.656       14.865      776.789      607.936      220.968        0.472        0.080       88.408       13.211        0.022      337.438        9.411      863.598
11/08/2013  08:42:00       -9.342      -12.748        3.936       20.468       15.740       15.260      418.938      247.756      232.856        0.058        0.045       15.805       12.016        0.578      337.672        9.804      863.584
11/08/2013  08:43:00      -34.701      -32.506      -10.260       14.739       14.592       10.569      217.235      212.917      111.707        0.145        0.027       47.547        7.420        0.024      337.550        9.600      863.568
11/08/2013  08:44:00       -9.902      -26.488       -8.323        9.633       12.236       13.194       92.795      149.726      174.076        0.064        0.021       28.278        6.201        0.048      337.656        9.777      863.569
11/08/2013  08:45:00      -15.748      -30.793       -0.265        8.360       11.552        9.524       69.897      133.454       90.711        0.075        0.015       34.586        4.776        0.019      337.617        9.712      863.566
11/08/2013  08:46:00      -16.338      -22.093       -2.896       17.931       12.559       11.267      321.514      157.717      126.954        0.068        0.030       27.477        8.626        0.099      337.753        9.939      863.557
11/08/2013  08:47:00       13.549       -8.398       14.406       11.684       18.788       13.118      136.517      352.988      172.081        0.056        0.033       15.941       12.368        0.602      338.105       10.530      863.551
11/08/2013  08:48:00       -9.111       -5.780        0.032       10.931        7.830        7.639      119.490       61.313       58.358        0.018        0.012       10.790        6.398        0.352      338.096       10.516      863.547
11/08/2013  08:49:00      -18.310      -27.726        3.459       21.487       10.414        9.229      461.709      108.447       85.174        0.089        0.033       33.226        7.130        0.046      337.769        9.966      863.539
11/08/2013  08:50:00      -27.521       -9.030      -13.197       23.681       14.294       12.061      560.813      204.308      145.474        0.096        0.046       28.965       11.150        0.148      337.885       10.161      863.534
11/08/2013  08:51:00      -34.066      -18.095      -10.884       23.257       13.433        8.205      540.879      180.456       67.317        0.120        0.039       38.573        5.929        0.024      337.831       10.071      863.531
11/08/2013  08:52:00      -94.963      -29.245       -6.612       25.473       23.678       11.447      648.886      560.639      131.045        0.563        0.067       99.364       10.381        0.011      337.820       10.050      863.536
11/08/2013  08:53:00      -93.170        7.245       -7.543       20.261       15.414       15.256      410.504      237.595      232.738        0.484        0.044       93.451       12.101        0.017      337.793       10.006      863.525
11/08/2013  08:54:00      -54.923       -4.607      -12.232       24.509       16.935       10.635      600.697      286.787      113.111        0.209        0.050       55.116        9.744        0.031      337.836       10.078      863.507
11/08/2013  08:55:00      -48.917       -8.856        0.785       21.482       20.285       16.998      461.468      411.493      288.916        0.182        0.058       49.712       14.963        0.091      337.983       10.325      863.481
11/08/2013  08:56:00      -35.938      -13.295       -9.831       28.000       21.318       19.721      784.016      454.478      388.925        0.160        0.081       38.318       22.226        0.336      338.340       10.925      863.462
11/08/2013  08:57:00      -28.809      -25.697       -0.566       14.860       15.815        8.941      220.825      250.126       79.945        0.102        0.028       38.604        6.102        0.025      338.108       10.535      863.443
11/08/2013  08:58:00      -24.561      -42.401        1.310       22.561       19.767       18.985      508.985      390.745      360.434        0.183        0.063       49.001       12.331        0.063      338.244       10.764      863.426
11/08/2013  08:59:00      -39.610      -29.777        4.295       26.565       24.035       16.814      705.710      577.683      282.715        0.202        0.078       49.555       15.431        0.097      338.229       10.737      863.402
11/08/2013  09:00:00      -27.786      -12.451       -4.709       14.604       13.482       12.473      213.284      181.760      155.577        0.075        0.028       30.448        7.105        0.054      338.181       10.658      863.391
11/08/2013  09:01:00       -9.114      -17.301        4.411       18.342       20.007       13.032      336.445      400.274      169.845        0.065        0.045       19.555       12.139        0.385      338.558       11.290      863.391
11/08/2013  09:02:00        4.827       10.079       18.650       15.229       15.543       14.871      231.930      241.599      221.139        0.058        0.035       11.176        7.468        0.447      339.044       12.109      863.381
11/08/2013  09:03:00      -11.039       11.820       28.301       14.539       19.107       14.012      211.373      365.074      196.332        0.092        0.039       16.173       13.203        0.666      339.070       12.152      863.378
11/08/2013  09:04:00      -21.410      -11.734       17.416       19.617       22.007       19.197      384.838      484.297      368.534        0.107        0.062       24.415       12.651        0.268      338.753       11.620      863.370
11/08/2013  09:05:00       55.839      -20.680       16.603       42.960       54.278       35.805     1845.555     2946.074     1281.967        0.495        0.304       59.545       32.886        0.305      338.643       11.434      863.371
11/08/2013  09:06:00       32.266       45.073       55.224       42.806       64.315       48.143     1832.349     4136.368     2317.731        0.720        0.414       55.431       46.660        0.709      338.517       11.222      863.374
11/08/2013  09:07:00       21.716       19.025       49.520       29.420       34.287       22.373      865.523     1175.575      500.539        0.291        0.127       28.871       14.658        0.258      338.955       11.959      863.376
11/08/2013  09:08:00       47.969      -82.994       -6.466       58.592       70.785       51.003     3433.003     5010.460     2601.261        1.014        0.552       95.859       52.037        0.295      338.638       11.425      863.375
11/08/2013  09:09:00       72.123      -80.169      -29.657       46.644       65.617       34.701     2175.699     4305.604     1204.164        1.010        0.384      107.837       28.475        0.070      338.420       11.058      863.385
11/08/2013  09:10:00       61.013      -89.618      -12.604       47.701       54.370       35.983     2275.395     2956.050     1294.779        0.922        0.326      108.416       32.700        0.091      338.361       10.960      863.387
11/08/2013  09:11:00       52.050      -43.038        4.361       55.148       49.584       44.096     3041.356     2458.526     1944.451        0.601        0.372       67.539       39.050        0.334      338.554       11.285      863.383
11/08/2013  09:12:00       35.010      -36.654        0.421       34.566       38.763       34.445     1194.831     1502.535     1186.482        0.323        0.194       50.688       22.624        0.199      338.531       11.245      863.397
11/08/2013  09:13:00       22.099      -18.953       17.698       33.678       39.801       38.737     1134.231     1584.154     1500.593        0.269        0.211       29.113       31.177        1.147      338.682       11.501      863.400
11/08/2013  09:14:00       24.552       51.768       70.104       37.478       39.547       25.222     1404.599     1563.943      636.145        0.590        0.180       57.296       25.268        0.194      338.758       11.627      863.404
11/08/2013  09:15:00       13.589        6.716       29.868       28.066       33.390       20.991      787.697     1114.882      440.602        0.173        0.117       15.158       16.249        1.149      338.869       11.815      863.404
11/08/2013  09:16:00        9.166       17.239       61.018       23.952       43.853       28.649      573.701     1923.112      820.778        0.371        0.166       19.525       29.170        2.232      339.073       12.158      863.403
11/08/2013  09:17:00       78.479       75.020       62.338       52.295       44.742       33.939     2734.786     2001.848     1151.826        1.078        0.294      108.568       22.089        0.041      338.572       11.316      863.401
11/08/2013  09:18:00      103.200       83.359       29.462       20.402       16.398       33.030      416.233      268.895     1090.978        1.012        0.089      132.662       16.721        0.016      338.264       10.796      863.394
11/08/2013  09:19:00       99.374      104.213       30.041       48.256       30.775       35.910     2328.671      947.097     1289.493        1.310        0.228      143.998       28.244        0.038      338.392       11.011      863.386
11/08/2013  09:20:00       90.820       60.319       14.006       42.194       31.505       35.868     1780.343      992.554     1286.517        0.807        0.203      109.026       15.870        0.021      338.579       11.327      863.373
11/08/2013  09:21:00       97.571       77.543        8.051       27.278       16.177       25.331      744.086      261.687      641.649        0.862        0.082      124.631       12.184        0.010      338.453       11.114      863.373
11/08/2013  09:22:00       39.677       39.591       10.334       33.478       26.264       23.062     1120.792      689.821      531.837        0.280        0.117       56.051       14.063        0.063      338.898       11.862      863.376
11/08/2013  09:23:00       25.697       11.945       11.617       34.803       29.113       26.106     1211.232      847.555      681.541        0.184        0.137       28.338       22.043        0.605      339.133       12.257      863.376
11/08/2013  09:24:00       21.694       31.838       47.840       27.237       20.348       29.483      741.861      414.040      869.243        0.290        0.101       38.527       20.984        0.297      338.964       11.975      863.374
11/08/2013  09:25:00       13.127       58.264       11.124       17.044       21.723       25.420      290.488      471.906      646.201        0.255        0.070       59.725        9.930        0.028      338.851       11.784      863.358
11/08/2013  09:26:00       41.180       40.350       28.773       25.953       22.549       24.927      673.582      508.462      621.333        0.298        0.090       57.653       16.075        0.078      338.903       11.870      863.365
11/08/2013  09:27:00       29.768       34.542       18.073       18.577       23.957       24.016      345.107      573.926      576.765        0.195        0.075       45.599       16.271        0.127      338.968       11.981      863.375
11/08/2013  09:28:00       49.064       -8.171       35.998       30.704       36.849       33.962      942.729     1357.878     1153.444        0.361        0.173       49.740       26.867        0.292      339.177       12.333      863.374
11/08/2013  09:29:00       12.644      -26.774        7.850       26.115       33.685       23.303      682.015     1134.688      543.039        0.165        0.118       29.609       21.990        0.552      339.334       12.596      863.372
11/08/2013  09:30:00      -16.701        2.667       26.079       23.485       27.641       22.940      551.546      763.999      526.231        0.140        0.092       16.913       21.580        1.628      339.516       12.903      863.364
11/08/2013  09:31:00       26.977      -51.167       22.871       59.880       66.925       55.060     3585.622     4478.935     3031.571        0.748        0.555       57.843       45.822        0.628      339.256       12.466      863.350
11/08/2013  09:32:00       76.152       51.806       27.733       34.848       42.425       35.477     1214.393     1799.841     1258.627        0.676        0.214       92.104       14.283        0.024      338.869       11.814      863.353
11/08/2013  09:33:00       14.596       15.776       19.905       15.647       27.640       14.975      244.828      763.957      224.262        0.105        0.062       21.492        5.101        0.056      339.305       12.548      863.347
11/08/2013  09:34:00       15.641       27.566       36.085       26.346       24.521       20.628      694.110      601.255      425.503        0.201        0.086       31.694       16.136        0.259      339.507       12.888      863.344
11/08/2013  09:35:00       10.012       14.594       38.813       32.619       48.676       27.124     1064.018     2369.378      735.724        0.299        0.208       17.698       24.164        1.864      339.728       13.261      863.341
11/08/2013  09:36:00       17.255       55.302       56.649       33.352       29.715       22.991     1112.351      882.995      528.580        0.454        0.126       57.932       19.664        0.115      339.576       13.003      863.350
11/08/2013  09:37:00       12.686       65.709       91.568       42.937       45.845       26.213     1843.625     2101.719      687.144        0.875        0.232       66.923       27.495        0.169      339.445       12.784      863.354
11/08/2013  09:38:00      106.175       83.273       27.969       31.305       25.916       33.470      980.013      671.645     1120.257        1.088        0.139      134.935       16.900        0.016      338.946       11.941      863.354
11/08/2013  09:39:00       18.267       31.085        4.404       34.257       32.775       26.161     1173.553     1074.183      684.374        0.213        0.147       36.054       21.551        0.357      339.430       12.758      863.348
11/08/2013  09:40:00       -9.305       46.194        9.071       20.673       47.337       22.689      427.368     2240.757      514.799        0.274        0.159       47.122       25.200        0.286      339.594       13.033      863.355
11/08/2013  09:41:00       19.394       31.149       47.428       29.240       34.255       27.541      855.000     1173.384      758.484        0.319        0.139       36.693       23.239        0.401      339.833       13.437      863.332
11/08/2013  09:42:00       83.376       60.447       16.647       32.709       39.177       43.361     1069.893     1534.809     1880.153        0.768        0.224      102.982       31.399        0.093      339.100       12.202      863.322
11/08/2013  09:43:00       96.886       86.609        2.182       23.929       24.349       24.120      572.599      592.866      581.758        0.932        0.087      129.954       14.139        0.012      338.932       11.919      863.301
11/08/2013  09:44:00      104.381       67.631        4.930       29.664       22.810       28.826      879.968      520.304      830.917        0.886        0.112      124.376       19.383        0.024      339.002       12.037      863.301
11/08/2013  09:45:00       84.393       56.140        1.104       34.513       28.179       21.867     1191.181      794.040      478.145        0.637        0.123      101.360       18.920        0.035      339.107       12.215      863.286
11/08/2013  09:46:00       48.251       59.686       39.971       35.441       35.473       26.739     1256.056     1258.314      714.989        0.536        0.161       76.751       14.328        0.035      339.213       12.393      863.279
11/08/2013  09:47:00       31.438        8.515       16.707       26.824       19.536       22.019      719.517      381.671      484.841        0.146        0.079       32.570       11.072        0.116      339.174       12.326      863.276
11/08/2013  09:48:00       59.659        0.285       11.687       44.252       41.454       26.511     1958.220     1718.469      702.838        0.404        0.219       59.659       23.687        0.158      339.211       12.388      863.264
11/08/2013  09:49:00       81.417       57.622        8.308       34.317       28.023       28.946     1177.637      785.304      837.895        0.641        0.140       99.745       17.946        0.032      339.213       12.392      863.266
11/08/2013  09:50:00       75.831       72.081       16.787       39.364       30.099       37.529     1549.537      905.921     1408.405        0.755        0.193      104.623       26.153        0.062      339.393       12.696      863.266
11/08/2013  09:51:00       -7.359       34.289       41.503       26.562       37.167       50.048      705.551     1381.386     2504.792        0.377        0.230       35.069       37.015        1.114      339.780       13.349      863.279
11/08/2013  09:52:00       43.876       33.737       49.828       33.057       31.769       35.747     1092.773     1009.252     1277.824        0.446        0.169       55.347       29.510        0.284      339.227       12.415      863.291
11/08/2013  09:53:00       28.446       16.779      -12.075       30.897       26.704       21.545      954.640      713.079      464.177        0.168        0.107       33.026       10.165        0.095      339.131       12.254      863.293
11/08/2013  09:54:00       37.777       34.800       -5.033       19.953       31.361       27.867      398.121      983.491      776.582        0.241        0.108       51.363       18.687        0.132      339.217       12.399      863.278
11/08/2013  09:55:00       63.770       40.397        5.371       58.611       37.080       36.219     3435.261     1374.898     1311.783        0.592        0.306       75.488       24.456        0.105      339.390       12.689      863.264
11/08/2013  09:56:00       57.731       44.863        8.068       37.369       25.162       33.563     1396.461      633.115     1126.443        0.428        0.158       73.114       13.920        0.036      339.365       12.648      863.240
11/08/2013  09:57:00       54.972       19.907      -13.889       30.898       31.664       20.149      954.692     1002.616      405.966        0.299        0.118       58.465       13.213        0.051      339.417       12.736      863.235
11/08/2013  09:58:00       42.151      -69.626       -6.945       32.806       49.446       27.250     1076.242     2444.884      742.538        0.547        0.213       81.391       19.578        0.058      339.485       12.850      863.218
11/08/2013  09:59:00       23.840      -24.769       14.843       31.753       42.304       28.564     1008.273     1789.615      815.876        0.251        0.181       34.378       26.525        0.595      339.696       13.207      863.214
11/08/2013  10:00:00        8.438       69.878      101.642       42.030       70.712       37.516     1766.559     5000.172     1407.486        1.173        0.409       70.386       48.759        0.480      339.578       13.006      863.200
11/08/2013  10:01:00      103.783       80.875       43.524       45.123       38.106       33.884     2036.052     1452.033     1148.149        1.192        0.232      131.574       23.695        0.032      339.158       12.300      863.181
11/08/2013  10:02:00       27.658      -38.586       26.027       53.014       86.104       44.072     2810.537     7413.845     1942.383        0.755        0.608       47.475       44.635        0.884      339.690       13.196      863.164
11/08/2013  10:03:00       79.034      -25.154       22.391       51.670       91.219       59.031     2669.766     8320.826     3484.664        1.093        0.724       82.940       63.722        0.590      339.485       12.851      863.144
11/08/2013  10:04:00        6.163       36.306       71.014       27.636       60.300       31.642      763.739     3636.128     1001.189        0.590        0.270       36.825       31.877        0.749      339.606       13.055      863.129
11/08/2013  10:05:00       24.963        4.449       67.076       56.622       72.332       42.296     3206.029     5231.866     1788.955        0.768        0.511       25.357       46.739        3.398      339.709       13.228      863.106
11/08/2013  10:06:00       22.516       39.639       69.431       39.593       47.242       45.730     1567.632     2231.787     2091.213        0.639        0.295       45.587       35.884        0.620      339.750       13.297      863.106
11/08/2013  10:07:00       40.377       33.656       80.785       38.314       45.445       28.826     1467.964     2065.206      830.950        0.683        0.218       52.565       24.834        0.223      339.563       12.982      863.116
11/08/2013  10:08:00       49.862       44.703       34.734       40.713       22.820       29.577     1657.531      520.751      874.776        0.437        0.153       66.967       23.452        0.123      339.524       12.918      863.107
11/08/2013  10:09:00       36.414       52.740       51.651       34.873       31.368       36.042     1216.115      983.966     1299.019        0.514        0.175       64.090       26.996        0.177      339.506       12.886      863.095
11/08/2013  10:10:00       44.733       42.289       38.151       29.300       31.015       36.484      858.493      961.952     1331.096        0.420        0.158       61.558       21.316        0.120      339.395       12.699      863.082
11/08/2013  10:11:00       27.461       40.585       70.858       35.939       35.888       20.115     1291.622     1287.936      404.608        0.520        0.149       49.003       16.207        0.109      339.783       13.355      863.062
11/08/2013  10:12:00       21.555       63.414       72.043       40.563       42.685       24.070     1645.340     1821.998      579.388        0.686        0.202       66.977       15.922        0.057      339.822       13.419      863.053
11/08/2013  10:13:00       57.478       72.128       80.687       69.923       43.195       41.034     4889.206     1865.817     1683.766        1.173        0.422       92.229       38.326        0.173      339.733       13.269      863.033
11/08/2013  10:14:00       53.379       25.701       28.967       68.311       56.714       39.013     4666.395     3216.493     1522.011        0.688        0.470       59.244       20.701        0.122      339.766       13.326      863.022
11/08/2013  10:15:00       79.705     -141.660      -17.429       53.817       55.564       29.565     2896.311     3087.393      874.092        1.679        0.343      162.544       19.475        0.014      339.490       12.858      863.017
11/08/2013  10:16:00       77.993      -37.000        1.887       53.964       54.007       42.511     2912.066     2916.805     1807.186        0.754        0.382       86.325       34.301        0.158      339.480       12.842      863.019
11/08/2013  10:17:00       62.485      -84.019       13.684       66.476      120.826       49.849     4419.085    14599.004     2484.897        1.632        1.075      104.707       69.853        0.445      339.651       13.129      863.022
11/08/2013  10:18:00        4.533      -73.830       18.324       44.995       61.880       39.843     2024.508     3829.159     1587.495        0.662        0.372       73.969       29.390        0.158      339.817       13.410      863.021
11/08/2013  10:19:00      -30.083       20.477       24.706       23.974       26.201       30.988      574.769      686.491      960.266        0.208        0.111       36.391       17.231        0.224      340.110       13.904      863.019
11/08/2013  10:20:00        0.705      -16.561       33.118       31.658       48.669       38.085     1002.200     2368.682     1450.444        0.310        0.241       16.576       25.481        2.363      340.156       13.982      863.033
11/08/2013  10:21:00        7.399       30.249       57.822       36.325       41.247       39.031     1319.518     1701.291     1523.458        0.443        0.227       31.141       33.707        1.172      340.225       14.099      863.023
11/08/2013  10:22:00       59.713      -86.745       -7.513       44.199       63.262       45.834     1953.548     4002.107     2100.747        0.960        0.403      105.311       41.200        0.153      339.812       13.403      863.019
11/08/2013  10:23:00       82.195      -56.924      -14.538       38.402       49.151       31.171     1474.720     2415.845      971.625        0.753        0.243       99.982       24.747        0.061      339.739       13.278      863.027
11/08/2013  10:24:00       11.300      -66.399       -1.704       39.594       79.376       39.479     1567.711     6300.564     1558.575        0.698        0.471       67.354       50.623        0.565      339.888       13.530      863.008
11/08/2013  10:25:00       44.108      -36.767       16.951       62.140       80.353       56.361     3861.392     6456.573     3176.559        0.854        0.675       57.422       56.189        0.958      339.855       13.474      862.998
11/08/2013  10:26:00       78.371       58.841       51.772       30.806       26.093       37.451      949.038      680.820     1402.586        0.766        0.152       98.001       24.240        0.061      339.573       12.998      862.995
11/08/2013  10:27:00       54.234       43.647       14.369       16.653       18.813       21.031      277.332      353.941      442.322        0.306        0.054       69.616       11.800        0.029      339.631       13.097      862.972
11/08/2013  10:28:00       24.929       58.638        7.640       29.795       41.818       22.903      887.768     1748.758      524.547        0.364        0.158       63.717       19.413        0.093      339.831       13.435      862.956
11/08/2013  10:29:00       41.290       68.590       -3.673       53.428       58.805       27.195     2854.591     3457.982      739.575        0.674        0.353       80.059       24.635        0.095      339.670       13.163      862.943
11/08/2013  10:30:00        0.940       55.378        6.287       26.018       34.947       20.650      676.915     1221.271      426.431        0.272        0.116       55.386       19.211        0.120      339.962       13.655      862.923
11/08/2013  10:31:00       -5.536       24.028       25.520       21.977       33.079       20.023      482.981     1094.252      400.912        0.162        0.099       24.657       16.018        0.422      340.267       14.172      862.917
11/08/2013  10:32:00       13.524       62.910       78.373       37.055       40.406       32.344     1373.064     1632.619     1046.133        0.717        0.203       64.347       28.492        0.196      340.170       14.006      862.918
11/08/2013  10:33:00       16.410      -31.747       31.026       37.293       83.172       36.420     1390.791     6917.500     1326.387        0.594        0.482       35.737       41.973        1.379      340.291       14.210      862.901
11/08/2013  10:34:00       86.566      -67.895       -9.080       63.823       65.092       39.878     4073.376     4236.956     1590.272        1.104        0.495      110.016       43.257        0.155      340.001       13.721      862.897
11/08/2013  10:35:00       93.757     -106.281      -17.539       54.587       70.130       51.343     2979.699     4918.238     2636.095        1.546        0.527      141.726       47.683        0.113      339.962       13.654      862.896
11/08/2013  10:36:00       75.361      -78.001        1.718       37.458       52.759       32.598     1403.069     2783.483     1062.641        0.851        0.262      108.459       21.226        0.038      339.950       13.634      862.876
11/08/2013  10:37:00       30.133      -29.164       25.306       43.546       68.496       32.638     1896.224     4691.735     1065.220        0.502        0.383       41.935       32.784        0.611      340.331       14.278      862.860
11/08/2013  10:38:00       60.699      -90.480       10.952       46.449       64.942       47.042     2157.495     4217.412     2212.940        1.029        0.429      108.954       46.246        0.180      340.169       14.004      862.833
11/08/2013  10:39:00       45.030       51.394       22.986       34.219       49.333       40.012     1170.924     2433.749     1600.936        0.520        0.260       68.331       26.904        0.155      340.274       14.183      862.822
11/08/2013  10:40:00       75.579      -70.220       -6.355       49.913       83.037       34.153     2491.283     6895.187     1166.419        1.062        0.528      103.165       45.764        0.197      339.943       13.622      862.828
11/08/2013  10:41:00       36.892      -20.532       23.058       33.750       24.749       22.906     1139.039      612.519      524.677        0.229        0.114       42.221       23.524        0.310      340.239       14.122      862.824
11/08/2013  10:42:00       44.473      -14.642       15.459       44.205       50.080       41.264     1954.063     2507.972     1702.701        0.430        0.308       46.821       39.502        0.712      340.329       14.274      862.808
11/08/2013  10:43:00       47.967       36.871       45.363       31.580       49.241       33.026      997.316     2424.637     1090.696        0.511        0.226       60.501       32.416        0.287      340.091       13.873      862.795
11/08/2013  10:44:00       25.710       -8.233       17.671       25.005       33.621       32.477      625.243     1130.344     1054.776        0.193        0.141       26.996       27.223        1.017      340.161       13.991      862.772
11/08/2013  10:45:00      -15.423        9.484       18.441       32.115       22.696       19.867     1031.396      515.118      394.701        0.130        0.097       18.106       16.653        0.846      340.190       14.040      862.746
11/08/2013  10:46:00        9.374       25.652       20.097       24.522       20.012       19.238      601.339      400.495      370.091        0.126        0.069       27.311       13.772        0.254      340.446       14.471      862.720
11/08/2013  10:47:00       45.497       18.735       24.562       28.077       17.303       19.673      788.320      299.408      387.027        0.225        0.074       49.204       11.748        0.057      340.350       14.309      862.697
11/08/2013  10:48:00        7.145       18.532        0.887       23.231       29.236       21.322      539.657      854.730      454.619        0.112        0.092       19.862       18.087        0.829      340.584       14.704      862.681
11/08/2013  10:49:00       24.982        6.662       42.910       39.805       49.204       33.110     1584.406     2421.050     1096.292        0.380        0.255       25.855       30.673        1.407      340.844       15.147      862.654
11/08/2013  10:50:00       43.361       87.143       94.654       68.635       41.519       46.508     4710.746     1723.826     2163.017        1.351        0.430       97.335       48.097        0.244      340.332       14.281      862.647
11/08/2013  10:51:00       36.317       24.219       16.819       45.570       49.745       21.405     2076.623     2474.528      458.172        0.360        0.250       43.652       13.305        0.093      340.190       14.040      862.629
11/08/2013  10:52:00       47.984       64.575       48.077       41.937       45.345       55.191     1758.712     2056.166     3046.023        0.782        0.343       80.452       45.910        0.326      340.192       14.044      862.595
11/08/2013  10:53:00       81.844       72.055       47.738       65.231       32.766       34.257     4255.081     1073.629     1173.527        1.033        0.325      109.043       24.944        0.052      340.201       14.057      862.573
11/08/2013  10:54:00       -0.621       59.700       85.354       37.117       61.579       29.810     1377.694     3791.998      888.639        0.845        0.303       59.703       25.609        0.184      340.772       15.023      862.538
11/08/2013  10:55:00       45.100       83.894       87.326       56.257       59.589       40.647     3164.876     3550.867     1652.196        1.253        0.418       95.248       34.925        0.134      340.676       14.860      862.522
11/08/2013  10:56:00       13.714      -56.686       29.645       56.740       89.058       43.639     3219.395     7931.336     1904.353        0.867        0.653       58.322       31.773        0.297      340.659       14.832      862.514
11/08/2013  10:57:00      108.935       58.720       65.206       60.589       66.752       51.535     3671.023     4455.801     2655.880        1.517        0.539      123.753       23.721        0.037      340.491       14.547      862.505
11/08/2013  10:58:00       71.492       38.633       21.530       57.106       41.724       36.046     3261.073     1740.923     1299.313        0.668        0.315       81.263       18.553        0.052      340.225       14.098      862.498
11/08/2013  10:59:00      -24.398       15.744       57.475       26.507       59.843       35.214      702.597     3581.230     1240.017        0.483        0.276       29.037       38.239        1.734      340.967       15.353      862.473
11/08/2013  11:00:00       37.073      -28.985       69.036       70.652      106.449       64.845     4991.636    11331.409     4204.888        1.375        1.026       47.059       67.473        2.056      340.664       14.843      862.469
11/08/2013  11:01:00       61.142     -105.409       -4.994       35.393       63.089       36.396     1252.689     3980.209     1324.673        1.071        0.328      121.858       29.079        0.057      340.364       14.335      862.459
11/08/2013  11:02:00       87.022        8.272       24.503       45.131       60.091       48.536     2036.765     3610.944     2355.779        0.812        0.400       87.414       46.079        0.278      340.344       14.301      862.453
11/08/2013  11:03:00       46.922      -47.265       16.729       65.705       69.190       49.361     4317.095     4787.283     2436.462        0.813        0.577       66.601       56.184        0.712      340.445       14.472      862.447
11/08/2013  11:04:00       41.189        9.593       28.698       39.823       45.671       45.482     1585.853     2085.871     2068.576        0.418        0.287       42.291       36.976        0.764      340.641       14.804      862.436
11/08/2013  11:05:00       22.833       57.761       65.294       27.558       34.433       27.634      759.440     1185.601      763.610        0.541        0.135       62.110       27.830        0.201      340.398       14.390      862.442
11/08/2013  11:06:00       46.488      -27.231        1.275       27.180       53.138       32.938      738.778     2823.671     1084.929        0.378        0.232       53.876       32.908        0.373      340.358       14.324      862.422
11/08/2013  11:07:00      -20.920      -15.766       11.255       39.404       57.015       27.655     1552.656     3250.743      764.808        0.319        0.278       26.195       28.488        1.183      340.585       14.707      862.395
11/08/2013  11:08:00       46.766       20.511       46.930       40.591       54.637       39.167     1647.610     2985.247     1534.028        0.549        0.308       51.066       39.695        0.604      340.664       14.840      862.378
11/08/2013  11:09:00       44.077       94.700       97.438       58.402       43.780       40.441     3410.799     1916.676     1635.441        1.368        0.348      104.455       34.151        0.107      340.701       14.904      862.355
11/08/2013  11:10:00       64.621       67.915       49.939       70.457       63.935       31.735     4964.130     4087.623     1007.135        1.067        0.503       93.746       34.244        0.133      340.417       14.424      862.352
11/08/2013  11:11:00       28.278       79.478       -7.355       47.631       67.050       35.962     2268.682     4495.769     1293.231        0.761        0.403       84.359       30.151        0.128      340.498       14.560      862.334
11/08/2013  11:12:00       92.893       96.793        8.412       62.070       41.687       42.573     3852.702     1737.840     1812.465        1.273        0.370      134.156       25.605        0.036      340.379       14.359      862.298
11/08/2013  11:13:00      117.099      107.775       16.092       65.315       50.314       39.268     4265.992     2531.473     1541.956        1.696        0.417      159.146       25.318        0.025      340.320       14.259      862.275
11/08/2013  11:14:00       82.467       51.736       35.261       73.795       43.555       40.526     5445.649     1897.067     1642.356        0.985        0.449       97.352       25.038        0.066      340.694       14.891      862.255
11/08/2013  11:15:00      120.604       55.819       33.659       98.356       52.071       54.501     9673.937     2711.423     2970.324        1.707        0.768      132.895       48.669        0.134      340.726       14.945      862.223
11/08/2013  11:16:00      100.422       51.698       17.306       56.768       46.129       39.742     3222.640     2127.849     1579.432        0.999        0.346      112.948       27.179        0.058      340.771       15.021      862.221
11/08/2013  11:17:00       38.721       -8.457       13.979       64.080       61.833       31.888     4106.217     3823.320     1016.862        0.535        0.447       39.634       26.476        0.446      340.736       14.962      862.211
11/08/2013  11:18:00       34.376      -72.256        3.812       31.924       50.648       33.237     1019.125     2565.201     1104.712        0.555        0.234       80.017       24.734        0.096      340.868       15.186      862.180
11/08/2013  11:19:00       59.505       31.403       48.984       61.100       68.707       34.462     3733.198     4720.587     1187.654        0.828        0.482       67.283       31.822        0.224      340.957       15.337      862.166
11/08/2013  11:20:00       50.797       27.189       33.312       40.628       51.585       38.412     1650.633     2661.000     1475.515        0.511        0.289       57.616       20.708        0.129      340.932       15.295      862.160
11/08/2013  11:21:00       26.744       56.835      105.400       48.583       87.567       55.291     2360.315     7668.002     3057.098        1.407        0.654       62.813       60.847        0.938      340.870       15.189      862.145
11/08/2013  11:22:00       41.298       22.051       66.977       53.440       62.666       45.254     2855.809     3926.972     2047.936        0.775        0.442       46.816       49.965        1.139      340.943       15.314      862.145
11/08/2013  11:23:00       37.956      -34.554       26.520       44.202       63.622       46.436     1953.836     4047.794     2156.277        0.575        0.408       51.328       54.190        1.115      340.794       15.061      862.120
11/08/2013  11:24:00       21.854      -47.461       -9.628       32.777       28.140       23.905     1074.323      791.888      571.471        0.263        0.122       52.251       12.704        0.059      340.759       15.001      862.093
11/08/2013  11:25:00       19.468       39.257       73.206       40.165       74.646       47.867     1613.253     5571.982     2291.226        0.838        0.474       43.819       52.810        1.452      341.346       15.995      862.091
11/08/2013  11:26:00       79.898       78.932       64.343       52.879       54.123       48.339     2796.139     2929.260     2336.647        1.241        0.403      112.312       38.504        0.118      340.852       15.158      862.084
11/08/2013  11:27:00       75.379       61.168       93.387       51.851      103.400       70.387     2688.558    10691.540     4954.314        1.824        0.917       97.074       80.736        0.692      340.694       14.891      862.088
11/08/2013  11:28:00       86.126      -75.509        8.054       42.512       67.845       32.952     1807.273     4602.984     1085.861        1.034        0.375      114.540       31.277        0.075      340.759       15.000      862.075
11/08/2013  11:29:00       88.469       51.524       32.877       86.348       61.004       39.839     7455.903     3721.507     1587.155        1.216        0.638      102.379       18.485        0.033      340.974       15.365      862.045
11/08/2013  11:30:00       53.836       33.280       32.316       47.766       41.180       33.958     2281.544     1695.785     1153.161        0.509        0.257       63.292       13.119        0.043      341.101       15.581      862.028
11/08/2013  11:31:00      146.770      114.559       61.629       89.898       56.353       58.018     8081.594     3175.614     3366.124        2.654        0.731      186.186       45.716        0.060      340.799       15.067      861.995
11/08/2013  11:32:00      153.298       85.981       88.306      102.578       82.181       72.478    10522.167     6753.662     5253.065        3.061        1.126      175.764       70.428        0.161      340.828       15.116      861.949
11/08/2013  11:33:00      141.007      126.034      105.857       97.944       62.541       59.319     9593.014     3911.336     3518.777        3.200        0.851      189.123       48.894        0.067      340.919       15.270      861.918
11/08/2013  11:34:00      101.252       95.299       91.333       63.043       48.949       40.054     3974.377     2396.010     1604.351        1.782        0.399      139.046       30.479        0.048      340.851       15.157      861.902
11/08/2013  11:35:00       36.030       -5.253       45.726       49.710       49.867       33.798     2471.069     2486.675     1142.282        0.476        0.305       36.411       28.692        0.621      341.223       15.787      861.869
11/08/2013  11:36:00       50.668       24.355       48.551       58.705       65.943       43.561     3446.271     4348.461     1897.566        0.760        0.485       56.218       33.067        0.346      341.226       15.792      861.854
11/08/2013  11:37:00       16.109      -52.917       26.348       47.949       71.379       36.697     2299.110     5094.954     1346.703        0.625        0.437       55.315       37.136        0.451      341.433       16.143      861.846
11/08/2013  11:38:00       86.726      106.935       91.394       96.532       76.576       63.627     9318.375     5863.841     4048.385        2.327        0.962      137.683       52.260        0.144      341.268       15.862      861.819
11/08/2013  11:39:00       66.178      -21.230       74.436      103.809      134.260       71.383    10776.397    18025.699     5095.577        2.213        1.695       69.500       91.879        1.748      341.217       15.777      861.784
11/08/2013  11:40:00       69.558      -48.364       37.699       70.033      120.714       61.995     4904.668    14571.772     3843.382        1.596        1.166       84.720       74.187        0.767      341.272       15.868      861.767
11/08/2013  11:41:00       76.467      -41.438       40.978       66.518       83.893       61.768     4424.606     7038.074     3815.335        1.226        0.764       86.973       69.023        0.630      341.103       15.583      861.741
11/08/2013  11:42:00      117.231      -93.003        9.707       78.124       75.144       42.875     6103.312     5646.691     1838.225        1.804        0.679      149.642       41.931        0.079      341.172       15.700      861.705
11/08/2013  11:43:00       99.859       -2.562       49.287       67.556       75.958       57.521     4563.869     5769.660     3308.676        1.302        0.682       99.892       54.715        0.300      341.235       15.807      861.685
11/08/2013  11:44:00       89.937      -54.456       25.522       59.578       54.025       31.919     3549.576     2918.692     1018.854        0.960        0.374      105.139       29.093        0.077      341.162       15.684      861.672
11/08/2013  11:45:00       97.617       89.155       73.169       83.441       54.869       61.287     6962.433     3010.564     3756.104        1.828        0.686      132.203       54.979        0.173      341.105       15.586      861.665
11/08/2013  11:46:00      142.843       77.381       30.830       52.439       40.791       36.890     2749.803     1663.901     1360.867        1.656        0.289      162.456       24.856        0.023      340.869       15.187      861.659
11/08/2013  11:47:00      124.918       76.256       16.085       49.453       40.047       30.361     2445.631     1603.786      921.803        1.332        0.249      146.354       25.998        0.032      340.867       15.183      861.638
11/08/2013  11:48:00       58.786       31.830       43.496       69.374       47.112       36.573     4812.699     2219.540     1337.596        0.736        0.418       66.850       36.842        0.304      341.370       16.036      861.622
11/08/2013  11:49:00       75.151       78.017       78.165       92.212       43.370       51.680     8502.966     1880.928     2670.826        1.545        0.653      108.325       56.785        0.275      341.485       16.229      861.616
11/08/2013  11:50:00       93.839       70.121       37.669       86.012       68.140       56.479     7398.100     4643.125     3189.915        1.518        0.762      117.144       33.946        0.084      341.409       16.100      861.603
11/08/2013  11:51:00      182.684       94.125       44.703       89.460       66.943       69.742     8003.070     4481.367     4863.899        3.079        0.867      205.507       45.242        0.048      341.096       15.569      861.574
11/08/2013  11:52:00      109.282       12.317       48.125       72.519      125.601       70.609     5259.024    15775.713     4985.665        2.021        1.301      109.974       67.905        0.381      341.413       16.106      861.548
11/08/2013  11:53:00      164.701     -146.131       10.724      114.126      160.396       84.306    13024.710    25726.871     7107.517        4.722        2.293      220.183      118.064        0.288      341.170       15.694      861.538
11/08/2013  11:54:00      151.522     -140.943      -16.399       87.325      110.661       61.807     7625.704    12245.764     3820.069        3.339        1.185      206.939       75.908        0.135      341.122       15.613      861.535
11/08/2013  11:55:00       91.657     -157.669      -11.352       69.535       76.827       42.747     4835.118     5902.399     1827.345        2.297        0.628      182.374       46.465        0.065      341.226       15.789      861.514
11/08/2013  11:56:00       62.727       -2.369       46.429       57.682       74.705       37.214     3327.227     5580.773     1384.856        0.819        0.515       62.772       29.120        0.215      341.451       16.172      861.496
11/08/2013  11:57:00        7.909      -37.032        1.319       56.254       50.578       37.511     3164.460     2558.140     1407.100        0.428        0.356       37.867       39.015        1.062      341.727       16.640      861.493
11/08/2013  11:58:00       73.645     -167.915      -21.044       84.160       57.978       41.878     7082.848     3361.411     1753.730        2.313        0.610      183.355       34.425        0.035      341.455       16.177      861.483
11/08/2013  11:59:00       99.352      -98.149       15.034       93.232      137.442       64.062     8692.115    18890.331     4103.904        2.570        1.584      139.657       86.071        0.380      341.575       16.382      861.483
11/08/2013  12:00:00      150.813     -201.941      -43.355       77.437       74.346       42.997     5996.515     5527.390     1848.745        3.939        0.669      252.041       34.471        0.019      341.052       15.494      861.461
11/08/2013  12:01:00       56.641     -142.635      -23.725       47.928       57.470       42.665     2297.097     3302.818     1820.335        1.577        0.371      153.470       28.957        0.036      341.296       15.909      861.430
11/08/2013  12:02:00       55.633        9.589       88.208       60.478       91.041       61.804     3657.532     8288.532     3819.789        1.336        0.788       56.454       52.203        0.855      341.650       16.509      861.406
11/08/2013  12:03:00      139.452       42.820       41.846       93.074       58.582       47.475     8662.722     3431.797     2253.863        1.869        0.717      145.878       43.533        0.089      341.442       16.154      861.398
11/08/2013  12:04:00       75.180       58.070       50.904       67.621       42.087       40.854     4572.552     1771.340     1669.034        0.981        0.401       94.996       30.316        0.102      341.573       16.380      861.361
11/08/2013  12:05:00       28.639       67.930       76.914       51.019       56.592       56.408     2602.972     3202.599     3181.880        1.017        0.449       73.721       45.228        0.376      341.498       16.253      861.321
11/08/2013  12:06:00       31.159      -14.440       11.377       52.693       52.630       38.490     2776.524     2769.885     1481.481        0.417        0.351       34.342       23.225        0.457      341.791       16.749      861.279
11/08/2013  12:07:00        4.631      -41.893        4.482       54.512       62.758       31.742     2971.549     3938.566     1007.547        0.486        0.396       42.148       13.549        0.103      341.651       16.512      861.262
11/08/2013  12:08:00       56.505      -29.223       35.580       78.063      107.808       48.246     6093.860    11622.649     2327.640        1.268        1.002       63.614       61.315        0.929      341.906       16.944      861.242
11/08/2013  12:09:00       58.457      -35.159       25.552       53.471       81.800       51.754     2859.109     6691.208     2678.474        0.877        0.611       68.216       52.094        0.583      341.694       16.585      861.228
11/08/2013  12:10:00      -20.408      -82.659        0.035       35.504       50.593       39.878     1260.534     2559.672     1590.234        0.633        0.271       85.141       32.274        0.144      341.761       16.699      861.207
11/08/2013  12:11:00       21.071      -47.639        8.791       36.567       41.367       35.135     1337.160     1711.227     1234.500        0.354        0.214       52.091       19.977        0.147      341.842       16.836      861.192
11/08/2013  12:12:00       -0.765       -3.198       15.633       21.118       35.052       29.381      445.977     1228.669      863.246        0.140        0.127        3.288       23.968       53.147      342.214       17.466      861.180
11/08/2013  12:13:00       23.071       63.538       17.631       57.603       42.149       53.768     3318.133     1776.513     2891.002        0.643        0.399       67.597       30.529        0.204      341.953       17.024      861.167
11/08/2013  12:14:00      -11.230        2.523       18.778       40.241       24.429       19.641     1619.305      596.776      385.785        0.154        0.130       11.510       15.077        1.716      342.264       17.552      861.157
11/08/2013  12:15:00       12.821       27.529       64.878       47.191       37.220       40.617     2226.953     1385.358     1649.749        0.520        0.263       30.368       19.768        0.424      342.136       17.335      861.149
11/08/2013  12:16:00       18.775       12.889       40.462       37.616       49.384       26.539     1414.963     2438.791      704.307        0.336        0.228       22.773       31.208        1.878      341.996       17.097      861.134
11/08/2013  12:17:00        6.860       55.102       70.034       27.302       36.142       18.366      745.420     1306.261      337.309        0.519        0.119       55.527       18.409        0.110      342.338       17.678      861.100
11/08/2013  12:18:00       65.928      109.400      124.336       84.432       67.186       52.252     7128.704     4513.893     2730.226        2.307        0.719      127.730       48.096        0.142      341.913       16.955      861.074
11/08/2013  12:19:00       80.677      129.510      127.934       78.550       62.202       63.813     6170.050     3869.116     4072.152        2.688        0.706      152.583       54.148        0.126      341.617       16.451      861.058
11/08/2013  12:20:00      121.665      122.533      132.532       68.961      109.852       67.074     4755.660    12067.398     4498.874        3.435        1.066      172.675       70.854        0.168      341.551       16.339      861.055
11/08/2013  12:21:00      133.366      117.042       92.848       82.677       75.383       67.590     6835.469     5682.671     4568.443        2.859        0.854      177.441       45.200        0.065      341.522       16.291      861.041
11/08/2013  12:22:00      141.505      113.289       60.580       98.365       93.315       67.189     9675.604     8707.731     4514.349        2.971        1.145      181.268       61.733        0.116      341.703       16.597      861.025
11/08/2013  12:23:00       69.562      101.747      113.510       95.369       69.051       56.985     9095.263     4768.030     3247.334        2.259        0.856      123.253       58.278        0.224      341.746       16.671      861.016
11/08/2013  12:24:00      102.455      101.956      116.046       97.411       67.042       59.052     9488.823     4494.633     3487.115        2.591        0.874      144.541       61.148        0.179      341.669       16.539      860.999
11/08/2013  12:25:00      172.247      125.488       18.476       47.834       41.362       33.449     2288.098     1710.778     1118.804        2.544        0.256      213.111        5.881        0.001      341.344       15.988      860.990
11/08/2013  12:26:00       40.302       16.887       10.803       49.263       42.435       33.417     2426.821     1800.748     1116.700        0.368        0.267       43.697       18.345        0.176      341.927       16.981      860.957
11/08/2013  12:27:00      128.177       85.925       12.862       48.868       48.173       47.104     2388.069     2320.606     2218.767        1.545        0.346      154.313       29.179        0.036      341.671       16.545      860.934
11/08/2013  12:28:00       55.390       56.448       20.469       35.597       40.251       34.874     1267.153     1620.134     1216.197        0.539        0.205       79.085       25.655        0.105      341.799       16.764      860.918
11/08/2013  12:29:00       62.691       58.416       54.172       61.768       41.435       34.181     3815.242     1716.898     1168.342        0.849        0.335       85.689       21.348        0.062      342.066       17.216      860.904
11/08/2013  12:30:00       41.875       32.330       55.900       57.181       60.455       58.946     3269.636     3654.747     3474.662        0.816        0.520       52.903       47.252        0.798      342.184       17.416      860.863
11/08/2013  12:31:00       95.547      157.655      145.642       86.106       74.349       56.368     7414.321     5527.749     3177.317        3.566        0.806      184.349       56.028        0.092      341.761       16.695      860.835
11/08/2013  12:32:00      137.277      112.480      113.659       65.828       69.861       57.291     4333.294     4880.590     3282.254        2.845        0.625      177.474       42.543        0.057      341.587       16.400      860.823
11/08/2013  12:33:00       77.664       17.333       42.744       33.614       56.721       41.870     1129.900     3217.272     1753.084        0.713        0.305       79.575       39.506        0.246      341.655       16.518      860.817
11/08/2013  12:34:00       69.015       62.280       84.224       85.022       71.232       57.017     7228.720     5074.048     3250.962        1.564        0.778       92.961       51.240        0.304      341.942       17.004      860.778
11/08/2013  12:35:00       88.713       -8.443       47.061       68.443       98.162       64.169     4684.456     9635.698     4117.651        1.429        0.922       89.114       70.803        0.631      341.897       16.929      860.739
11/08/2013  12:36:00      113.133      -60.949       18.793       57.490      112.625       47.783     3305.094    12684.401     2283.222        1.757        0.914      128.507       54.570        0.180      341.816       16.791      860.706
11/08/2013  12:37:00      197.618       89.655       24.847       80.216       58.304       59.852     6434.663     3399.319     3582.275        3.056        0.671      217.004       47.153        0.047      341.847       16.841      860.702
11/08/2013  12:38:00       68.057       56.161       15.244       64.091       28.226       27.688     4107.634      796.721      766.606        0.684        0.284       88.237        5.133        0.003      341.843       16.838      860.695
11/08/2013  12:39:00       66.161       51.640       18.143       55.847       45.305       40.659     3118.838     2052.514     1653.194        0.710        0.341       83.928       32.061        0.146      341.925       16.976      860.671
11/08/2013  12:40:00       63.554       47.135       18.801       51.261       38.266       32.558     2627.671     1464.312     1060.039        0.588        0.258       79.125       18.696        0.056      341.975       17.062      860.656
11/08/2013  12:41:00       83.811       62.627       30.525       67.186       43.832       39.266     4513.986     1921.261     1541.798        0.993        0.399      104.625       28.230        0.073      342.131       17.326      860.640
11/08/2013  12:42:00      112.585       45.036       40.887       50.671       56.759       36.394     2567.593     3221.619     1324.505        1.174        0.356      121.258       29.892        0.061      342.051       17.189      860.616
11/08/2013  12:43:00       22.433       59.613       73.819       58.331       55.133       32.180     3402.488     3039.604     1035.569        0.849        0.374       63.694       30.155        0.224      342.236       17.503      860.589
11/08/2013  12:44:00       29.259       -6.733       39.260       36.432       42.213       25.319     1327.262     1781.918      641.057        0.310        0.188       30.024       15.033        0.251      342.342       17.685      860.579
11/08/2013  12:45:00       62.850      -81.238       13.468       51.080       61.414       39.547     2609.158     3771.629     1563.936        0.934        0.397      102.712       40.406        0.155      342.282       17.584      860.570
11/08/2013  12:46:00      115.041     -173.113      -16.670       85.348       78.148       48.168     7284.318     6107.100     2320.113        2.959        0.786      207.852       48.589        0.055      342.195       17.431      860.549
11/08/2013  12:47:00       23.547       28.285       62.611       57.852       98.646       53.672     3346.869     9731.033     2880.719        1.061        0.798       36.804       60.725        2.722      342.408       17.797      860.542
11/08/2013  12:48:00      102.965     -163.625       -6.638       53.194       52.619       25.432     2829.633     2768.805      646.789        2.183        0.312      193.326       24.738        0.016      341.761       16.697      860.537
11/08/2013  12:49:00       53.977      -29.881       31.145       53.923       75.747       45.623     2907.730     5737.609     2081.472        0.775        0.536       61.696       50.668        0.674      342.012       17.124      860.514
11/08/2013  12:50:00      103.059       48.884       52.264       48.503       62.159       41.877     2352.507     3863.748     1753.678        1.185        0.398      114.065       35.053        0.094      341.962       17.038      860.507
11/08/2013  12:51:00      -15.167        0.001       -0.866       14.940       16.214       18.226      223.202      262.899      332.177        0.052        0.041       15.167        3.966        0.068      342.247       17.524      860.484
11/08/2013  12:52:00       32.689       -2.430       14.186       29.446       23.944       19.270      867.056      573.324      371.340        0.154        0.091       32.779        7.753        0.056      342.342       17.685      860.470
11/08/2013  12:53:00       58.243       18.453       45.692       48.844       44.353       32.164     2385.707     1967.227     1034.518        0.560        0.269       61.097       24.942        0.167      342.320       17.647      860.461
11/08/2013  12:54:00       46.070       70.928       68.346       48.072       34.235       28.974     2310.896     1172.066      839.515        0.807        0.216       84.576       24.121        0.081      342.408       17.797      860.436
11/08/2013  12:55:00      -17.326       -1.828       20.797       46.528       41.362       27.311     2164.843     1710.851      745.901        0.268        0.231       17.422       35.199        4.082      342.727       18.338      860.425
11/08/2013  12:56:00       -9.139      -70.508       -8.120       39.328       40.409       32.055     1546.713     1632.919     1027.515        0.466        0.210       71.098       22.302        0.098      342.514       17.976      860.406
11/08/2013  12:57:00       -1.718      -19.703       10.626       39.891       55.698       29.999     1591.270     3102.316      899.959        0.305        0.280       19.778       29.968        2.296      342.723       18.333      860.390
11/08/2013  12:58:00       25.194      -31.214       13.315       65.288       49.901       42.017     4262.503     2490.099     1765.460        0.515        0.426       40.113       24.843        0.384      342.657       18.221      860.363
11/08/2013  12:59:00      -96.790      -12.752      -15.996       45.832       26.119       26.128     2100.559      682.189      682.684        0.663        0.173       97.626       26.138        0.072      342.128       17.320      860.352
11/08/2013  13:00:00      -79.781      -31.949      -12.818       21.274       10.779       18.332      452.585      116.183      336.067        0.423        0.045       85.940       14.361        0.028      342.048       17.186      860.345
11/08/2013  13:01:00     -122.722       21.338      -15.943       25.867       33.374       28.285      669.103     1113.825      800.057        0.918        0.129      124.564       10.171        0.007      342.119       17.307      860.330
11/08/2013  13:02:00      -64.640      -10.996      -21.464       51.970       37.458       21.461     2700.884     1403.107      460.592        0.466        0.228       65.569       18.861        0.083      342.252       17.533      860.305
11/08/2013  13:03:00        0.462       18.520      -20.329       18.808       44.867       22.475      353.732     2013.028      505.116        0.181        0.144       18.526       25.188        1.848      342.498       17.951      860.288
11/08/2013  13:04:00       58.569      -35.309       18.109       60.382       92.001       34.995     3646.040     8464.223     1224.621        0.917        0.667       68.389       41.407        0.367      342.669       18.240      860.267
11/08/2013  13:05:00       30.660      -69.483       38.022       57.545       85.673       41.256     3311.452     7339.895     1702.047        0.978        0.618       75.947       50.193        0.437      342.734       18.351      860.252
11/08/2013  13:06:00       64.027        0.269       42.288       74.485       71.492       59.910     5548.074     5111.044     3589.184        1.007        0.712       64.027       64.672        1.020      342.553       18.043      860.256
11/08/2013  13:07:00       40.668       21.005       59.416       44.626       44.291       38.410     1991.507     1961.695     1475.341        0.553        0.271       45.772       30.222        0.436      342.450       17.870      860.241
11/08/2013  13:08:00      145.374       88.418       36.917       52.731       46.285       43.769     2780.568     2142.304     1915.715        1.858        0.342      170.151       25.011        0.022      342.250       17.527      860.220
11/08/2013  13:09:00      169.955       78.210       38.881       71.903       47.751       46.908     5170.017     2280.205     2200.384        2.308        0.483      187.087       15.291        0.007      342.296       17.604      860.195
11/08/2013  13:10:00       76.686       71.050       75.518       80.360       53.916       38.280     6457.743     2906.899     1465.332        1.373        0.541      104.541       12.082        0.013      342.454       17.874      860.170
11/08/2013  13:11:00       67.995        9.483       28.934       54.493       50.305       28.495     2969.447     2530.548      811.960        0.593        0.316       68.653       18.934        0.076      342.688       18.274      860.146
11/08/2013  13:12:00       72.528        1.308       36.947       60.212       50.613       40.873     3625.490     2561.700     1670.603        0.724        0.393       72.540       33.410        0.212      342.558       18.051      860.103
11/08/2013  13:13:00       84.182       88.043       82.466       63.564       66.108       48.820     4040.355     4370.308     2383.374        1.621        0.540      121.813       43.057        0.125      342.642       18.194      860.071
11/08/2013  13:14:00       69.244      138.772      135.507       87.475       82.728       85.861     7651.907     6844.004     7372.081        3.214        1.093      155.088       65.427        0.178      342.767       18.404      860.043
11/08/2013  13:15:00       45.707      -24.045       47.553       68.106      109.255       68.199     4638.474    11936.729     4651.144        1.307        1.061       51.645       71.244        1.903      342.777       18.423      860.048
11/08/2013  13:16:00        1.979      -88.239       11.879       94.422       51.847       48.646     8915.456     2688.157     2366.388        1.095        0.699       88.262       35.864        0.165      342.929       18.682      860.051
11/08/2013  13:17:00       39.448      -30.060       42.529       44.861       63.919       45.724     2012.539     4085.620     2090.684        0.623        0.409       49.596       49.923        1.013      342.993       18.793      860.061
11/08/2013  13:18:00      -21.974     -112.061       13.790       61.050       68.371       49.083     3727.046     4674.574     2409.117        1.202        0.541      114.195       26.401        0.053      342.718       18.324      860.063
11/08/2013  13:19:00     -175.466     -185.966      -16.216       88.214       66.163       42.264     7781.767     4377.507     1786.209        3.979        0.697      255.679       34.796        0.019      342.419       17.813      860.043
11/08/2013  13:20:00      -92.936      -78.459        1.717       84.311       60.654       34.995     7108.356     3678.913     1224.685        1.340        0.601      121.626       45.790        0.142      342.599       18.120      860.017
11/08/2013  13:21:00       13.148        9.821       66.499       75.204       79.747       75.762     5655.639     6359.551     5739.806        1.122        0.888       16.411       56.445       11.829      343.110       18.991      859.962
11/08/2013  13:22:00       83.547        5.954       89.557       89.569      133.674       81.550     8022.569    17868.699     6650.403        2.378        1.627       83.759       99.470        1.410      342.678       18.254      859.926
11/08/2013  13:23:00       87.245      -80.273       14.538       70.932       81.845       46.762     5031.299     6698.680     2186.685        1.409        0.696      118.555       50.942        0.185      342.603       18.128      859.911
11/08/2013  13:24:00       84.930      -52.658       45.820      115.874       96.390       74.737    13426.866     9291.003     5585.620        2.019        1.415       99.930       76.079        0.580      342.950       18.717      859.919
11/08/2013  13:25:00       -5.828       -4.432       19.611       46.057       34.434       20.548     2121.249     1185.669      422.241        0.208        0.186        7.322       15.738        4.621      343.245       19.221      859.960
11/08/2013  13:26:00       13.337      -22.158       38.055       48.328       96.463       53.074     2335.562     9305.181     2816.816        0.828        0.723       25.862       55.776        4.651      343.043       18.877      859.971
11/08/2013  13:27:00       30.415      -16.083       47.309       47.229       83.098       47.364     2230.544     6905.348     2243.370        0.740        0.569       34.405       54.859        2.542      343.057       18.901      859.960
11/08/2013  13:28:00      130.980      107.854       89.288       79.205       69.643       60.744     6273.384     4850.216     3689.854        2.578        0.741      169.671       46.256        0.074      342.866       18.573      859.902
11/08/2013  13:29:00       54.396       46.350       66.827       66.130       57.565       45.019     4373.120     3313.746     2026.742        0.964        0.486       71.465       41.238        0.333      342.985       18.778      859.898
11/08/2013  13:30:00      -66.825       32.223       18.854       57.273       34.024       40.313     3280.143     1157.611     1625.168        0.596        0.303       74.189       25.226        0.116      343.070       18.922      859.938
11/08/2013  13:31:00      -74.968      -15.499        1.473       48.447       39.461       26.896     2347.138     1557.203      723.391        0.524        0.231       76.553       25.976        0.115      343.299       19.312      859.926
11/08/2013  13:32:00        1.722        6.512       26.842       27.013       19.934       22.407      729.713      397.379      502.071        0.120        0.081        6.736       18.780        7.773      343.389       19.466      859.883
11/08/2013  13:33:00      -20.755      -44.521       -8.564       37.412       48.880       30.967     1399.632     2389.303      958.982        0.362        0.237       49.121       17.736        0.130      343.456       19.580      859.868
11/08/2013  13:34:00       15.914        1.122       24.779       24.593       44.405       36.438      604.837     1971.789     1327.733        0.239        0.195       15.953       35.727        5.015      343.354       19.407      859.856
11/08/2013  13:35:00      -32.144      -21.657       14.418       45.274       76.642       27.349     2049.757     5874.036      747.976        0.519        0.434       38.759       34.006        0.770      343.335       19.374      859.838
11/08/2013  13:36:00     -103.731     -112.565      -23.943       43.247       42.314       25.623     1870.263     1790.466      656.538        1.416        0.216      153.071       20.976        0.019      342.701       18.294      859.849
11/08/2013  13:37:00     -193.365     -106.744      -13.212       81.362       72.539       45.228     6619.787     5261.851     2045.569        3.144        0.696      220.871       42.339        0.037      342.711       18.308      859.870
11/08/2013  13:38:00     -132.047      -65.566        7.394       73.720       56.988       42.245     5434.641     3247.674     1784.621        1.613        0.523      147.429       44.038        0.089      342.853       18.554      859.884
11/08/2013  13:39:00      -40.467      -81.060        4.938       45.756       46.766       30.120     2093.602     2187.096      907.236        0.671        0.259       90.600       27.442        0.092      342.839       18.528      859.869
11/08/2013  13:40:00       42.719       61.913       87.157       58.715       90.862       71.983     3447.450     8255.896     5181.504        1.507        0.844       75.221       59.294        0.621      343.150       19.058      859.768
11/08/2013  13:41:00      -98.124       -5.195       25.168      118.181       65.017       54.231    13966.632     4227.199     2940.973        1.571        1.057       98.262       72.308        0.542      343.510       19.671      859.735
11/08/2013  13:42:00     -377.718     -140.652      -29.814      122.274      133.566       74.623    14950.877    17839.913     5568.579       10.084        1.918      403.056       58.870        0.021      343.147       19.050      859.785
11/08/2013  13:43:00     -511.446     -133.586      -35.111      213.432      135.247       92.360    45553.398    18291.656     8530.456       17.650        3.619      528.605      104.641        0.039      343.047       18.880      859.771
11/08/2013  13:44:00     -397.137       34.436      -22.372      244.380      135.039       88.848    59721.466    18235.528     7893.927       12.261        4.293      398.628      108.345        0.074      343.254       19.231      859.717
11/08/2013  13:45:00     -274.546     -224.221       -0.431      171.830      118.595       85.444    29525.396    14064.786     7300.688        8.826        2.545      354.472       96.048        0.073      343.221       19.177      859.718
11/08/2013  13:46:00     -304.944     -126.243       -6.817      170.570      104.752       54.415    29094.227    10972.903     2960.939        7.599        2.151      330.042       63.429        0.037      343.320       19.344      859.701
11/08/2013  13:47:00     -131.748     -118.106       21.930      154.054      117.694       70.238    23732.635    13851.789     4933.428        3.715        2.126      176.937       65.354        0.136      343.416       19.510      859.677
11/08/2013  13:48:00     -333.628     -114.693       -9.021      164.147      148.804       80.858    26944.275    22142.720     6537.948        9.008        2.781      352.792       81.350        0.053      343.321       19.347      859.701
11/08/2013  13:49:00     -362.264     -202.712       -9.011      207.463      137.288       76.517    43041.023    18848.007     5854.875       12.006        3.387      415.123       83.935        0.041      343.170       19.089      859.672
11/08/2013  13:50:00     -263.049     -148.927        4.345      174.219      152.452       83.052    30352.426    23241.583     6897.604        7.593        3.025      302.281       83.299        0.076      343.326       19.355      859.647
11/08/2013  13:51:00     -377.579     -141.490      -17.847      173.694      189.743       86.892    30169.623    36002.565     7550.300       11.830        3.686      403.219       84.543        0.044      343.223       19.180      859.643
11/08/2013  13:52:00     -189.424     -127.229       23.571      193.927      134.761      101.425    37607.723    18160.491    10287.071        5.933        3.303      228.185      106.733        0.219      343.308       19.324      859.627
11/08/2013  13:53:00     -334.299     -114.343       -2.739      159.247      152.857       94.676    25359.749    23365.209     8963.584        9.125        2.884      353.313       88.153        0.062      343.136       19.030      859.627
11/08/2013  13:54:00     -407.812      -49.609      -17.414      164.054      160.257       77.930    26913.807    25682.361     6073.077       11.386        2.933      410.818       81.163        0.039      343.291       19.296      859.594
11/08/2013  13:55:00     -417.695      -33.113      -13.366      216.009      140.596       95.238    46660.028    19767.333     9070.223       12.561        3.775      419.006      103.235        0.061      343.373       19.435      859.546
11/08/2013  13:56:00     -318.518      -37.913       24.132      201.528      146.495       98.808    40613.676    21460.896     9762.956        8.764        3.592      320.766      104.926        0.107      343.395       19.473      859.548
11/08/2013  13:57:00     -429.276       11.010       -0.385      236.746      173.738       97.519    56048.771    30184.901     9509.861       14.006        4.787      429.417      110.765        0.067      343.343       19.384      859.564
11/08/2013  13:58:00     -346.181     -104.793       -5.638      198.923      161.186       97.006    39570.378    25981.036     9410.155       10.290        3.748      361.695       91.675        0.064      343.328       19.358      859.585
11/08/2013  13:59:00     -270.841      -18.779       -7.091      195.953      164.997       80.185    38397.686    27224.074     6429.703        7.289        3.603      271.491       84.608        0.097      343.350       19.397      859.596
11/08/2013  14:00:00     -229.848       28.990      -10.516      193.006      124.648       77.894    37251.223    15537.095     6067.539        5.631        2.943      231.669       78.491        0.115      343.458       19.583      859.588
11/08/2013  14:01:00     -456.745     -151.779      -21.161      220.311      232.573       90.246    48537.032    54090.431     8144.358       17.142        5.539      481.303      101.542        0.045      343.241       19.211      859.573
11/08/2013  14:02:00     -376.356     -167.975       -7.620      234.317      167.694      110.768    54904.450    28121.264    12269.501       13.259        4.765      412.140      108.977        0.070      343.145       19.046      859.557
11/08/2013  14:03:00     -302.506     -260.667        6.018      287.741      215.071      126.300    82794.897    46255.678    15951.643       15.222        7.250      399.321      145.843        0.133      343.095       18.961      859.539
11/08/2013  14:04:00     -337.502     -246.144        7.824      184.364      153.658      100.054    33990.066    23610.879    10010.867       12.107        3.381      417.725      109.756        0.069      343.175       19.098      859.569
11/08/2013  14:05:00     -292.208     -168.461        9.289      201.987      179.618       93.387    40798.679    32262.675     8721.167        9.780        4.089      337.290      107.932        0.102      343.188       19.119      859.569
11/08/2013  14:06:00     -272.238     -215.560       15.483      229.787      180.818      104.779    52802.265    32695.054    10978.722       10.863        4.824      347.246      125.550        0.131      343.229       19.191      859.553
11/08/2013  14:07:00     -460.186     -312.909       -9.075      272.879      215.187      128.573    74463.128    46305.345    16530.995       22.351        6.865      556.492      129.193        0.054      343.125       19.011      859.555
11/08/2013  14:08:00     -341.524     -172.115       -4.522      253.232      177.243       78.326    64126.430    31414.976     6134.969       12.396        5.084      382.442      104.469        0.075      343.003       18.805      859.575
11/08/2013  14:09:00     -207.593     -199.577        9.232      168.307      109.003       73.171    28327.167    11881.562     5354.010        6.428        2.278      287.969       77.444        0.072      343.149       19.055      859.553
11/08/2013  14:10:00     -239.297     -208.289       10.045      176.623      160.044       85.406    31195.674    25613.970     7294.182        8.242        3.205      317.250       87.012        0.075      343.268       19.257      859.542
11/08/2013  14:11:00     -367.420     -286.488      -13.755      215.894      186.672       97.701    46610.254    34846.499     9545.407       15.412        4.550      465.911      118.647        0.065      343.267       19.255      859.551
11/08/2013  14:12:00     -439.985     -193.855      -21.262      231.083      169.398       77.350    53399.171    28695.621     5983.046       15.983        4.404      480.797       98.646        0.042      343.305       19.320      859.540
11/08/2013  14:13:00     -331.257      -96.664      -31.907      181.788      157.565       72.660    33047.056    24826.578     5279.525        9.161        3.158      345.073       75.088        0.047      343.388       19.461      859.537
11/08/2013  14:14:00     -370.854      -72.547       -3.108      224.446      168.041       82.872    50376.138    28237.857     6867.829       11.413        4.274      377.883      102.970        0.074      343.530       19.704      859.525
11/08/2013  14:15:00     -211.084      -37.701        6.106      159.297      130.043       73.096    25375.489    16911.192     5343.004        4.681        2.381      214.424       67.991        0.101      343.590       19.806      859.545
11/08/2013  14:16:00     -183.877      -43.176       -1.472      143.020       87.756       59.436    20454.808     7701.130     3532.623        3.368        1.584      188.878       71.749        0.144      343.576       19.782      859.537
11/08/2013  14:17:00     -311.367     -187.017       -6.877      187.906      144.360       92.567    35308.640    20839.783     8568.603        9.833        3.236      363.214       98.853        0.074      343.286       19.286      859.534
11/08/2013  14:18:00     -310.725     -151.286      -28.010      134.650      137.628       74.722    18130.596    18941.440     5583.386        8.143        2.133      345.597       56.477        0.027      343.275       19.269      859.543
11/08/2013  14:19:00     -201.750     -100.279        7.428      165.577      168.685       66.271    27415.750    28454.614     4391.812        5.553        3.013      225.297       71.313        0.100      343.455       19.576      859.517
11/08/2013  14:20:00     -253.558     -222.796      -15.487      155.785      124.865       81.334    24268.973    15591.304     6615.283        8.031        2.324      337.534       76.937        0.052      343.310       19.329      859.497
11/08/2013  14:21:00     -216.800     -185.615       13.399      133.095      116.758       73.647    17714.313    13632.383     5423.920        5.920        1.839      285.403       72.662        0.065      343.323       19.350      859.504
11/08/2013  14:22:00     -143.312     -125.247       23.364      174.714      152.397       93.318    30525.065    23224.952     8708.258        4.960        3.123      190.329      108.917        0.327      343.375       19.439      859.519
11/08/2013  14:23:00     -190.560     -110.490        5.803      174.070      147.828       82.605    30300.261    21853.099     6823.639        5.376        2.949      220.276       93.070        0.179      343.376       19.441      859.532
11/08/2013  14:24:00     -412.769      -73.639      -22.473      271.633      182.860       89.330    73784.237    33437.693     7979.855       14.573        5.760      419.286      107.669        0.066      343.221       19.177      859.519
11/08/2013  14:25:00     -442.157     -191.716      -17.605      213.024      188.787       87.763    45379.255    35640.597     7702.339       16.063        4.436      481.931      100.561        0.044      343.175       19.098      859.536
11/08/2013  14:26:00     -329.626      -65.930      -14.236      141.633      124.430       73.467    20059.856    15482.801     5397.450        7.706        2.047      336.155       69.523        0.043      343.271       19.261      859.537
11/08/2013  14:27:00     -299.427     -126.425      -21.554      137.312      101.195       66.303    18854.603    10240.458     4396.025        6.979        1.675      325.023       66.455        0.042      343.306       19.323      859.508
11/08/2013  14:28:00     -387.214      -29.279      -18.781      158.057      138.123       86.159    24981.877    19078.093     7423.402       10.131        2.574      388.319       78.299        0.041      343.365       19.424      859.481
11/08/2013  14:29:00     -323.427      -49.370      -19.876      183.384      158.929       74.221    33629.592    25258.553     5508.774        8.591        3.220      327.173       67.211        0.042      343.538       19.717      859.483
11/08/2013  14:30:00     -218.572     -228.877        1.521      191.080      131.896       76.531    36511.686    17396.586     5856.949        7.995        2.988      316.478       95.233        0.091      343.305       19.320      859.472
11/08/2013  14:31:00     -218.974     -145.536       -6.757      149.731      145.744       69.294    22419.435    21241.343     4801.655        5.881        2.423      262.927       63.404        0.058      343.417       19.511      859.477
11/08/2013  14:32:00     -519.606     -179.526      -17.449      205.481      167.958       83.787    42222.638    28209.881     7020.187       18.998        3.873      549.745       93.714        0.029      343.331       19.363      859.446
11/08/2013  14:33:00     -290.201      -46.863       -8.589      202.296      131.541       89.346    40923.578    17303.126     7982.701        7.634        3.310      293.961       95.592        0.106      343.452       19.571      859.496
11/08/2013  14:34:00     -295.141      -90.909        3.145      185.888      143.692       76.578    34554.451    20647.296     5864.255        7.821        3.053      308.825       81.855        0.070      343.425       19.524      859.515
11/08/2013  14:35:00     -329.208      -37.578      -13.386      171.279      133.306       74.035    29336.487    17770.594     5481.166        8.127        2.629      331.345       82.594        0.062      343.338       19.376      859.518
11/08/2013  14:36:00     -297.473     -155.132       -3.281      162.982      136.961       97.540    26563.217    18758.277     9514.037        8.369        2.742      335.494      107.955        0.104      343.282       19.280      859.530
11/08/2013  14:37:00     -333.311     -250.596        3.387      245.369      189.652       99.810    60206.062    35967.926     9962.000       14.000        5.307      417.006      123.802        0.088      343.129       19.021      859.494
11/08/2013  14:38:00     -420.809     -139.234       -8.689      254.064      199.732       95.993    64548.716    39893.066     9214.592       15.508        5.683      443.245      129.184        0.085      343.153       19.061      859.469
11/08/2013  14:39:00     -305.144      -23.260       -8.959      174.933      184.565       73.663    30601.602    34064.312     5426.184        8.190        3.505      306.029       87.353        0.081      343.341       19.382      859.482
11/08/2013  14:40:00     -287.680     -245.472      -10.406      177.669      157.627       94.947    31566.287    24846.167     9014.892       10.427        3.271      378.175       90.745        0.058      343.283       19.282      859.478
11/08/2013  14:41:00     -390.950     -212.706        4.854      226.213      144.682      106.089    51172.327    20932.961    11254.978       14.072        4.168      445.069      118.971        0.071      343.241       19.210      859.473
11/08/2013  14:42:00     -333.797      -62.325       -1.289      188.002      165.944       70.494    35344.610    27537.330     4969.354        9.157        3.393      339.566       84.391        0.062      343.313       19.334      859.489
11/08/2013  14:43:00     -345.530     -129.214       -7.018      206.581      161.906       72.955    42675.913    26213.677     5322.495       10.516        3.711      368.900       95.355        0.067      343.287       19.290      859.482
11/08/2013  14:44:00     -171.792      -32.155       13.967      143.800      105.833       65.155    20678.406    11200.676     4245.168        3.343        1.806      174.776       72.044        0.170      343.442       19.555      859.495
11/08/2013  14:45:00     -434.890       -3.778      -31.148      222.284      158.117       91.719    49410.300    25001.069     8412.398       13.645        4.141      434.906      106.114        0.060      343.318       19.341      859.479
11/08/2013  14:46:00     -463.422      -23.558      -21.785      173.991      128.989       81.692    30272.962    16638.057     6673.559       13.468        2.679      464.020       81.902        0.031      343.219       19.173      859.498
11/08/2013  14:47:00     -112.622       22.762       21.984      152.270       93.074       66.568    23186.025     8662.735     4431.244        2.498        1.814      114.899       76.524        0.444      343.455       19.577      859.523
11/08/2013  14:48:00     -405.032      -20.765      -19.627      154.162      121.092       65.359    23765.777    14663.228     4271.747       10.378        2.135      405.564       63.777        0.025      343.320       19.344      859.524
11/08/2013  14:49:00     -367.776       46.384      -33.248      139.184       97.768       74.571    19372.316     9558.489     5560.766        8.650        1.725      370.689       64.297        0.030      343.393       19.468      859.506
11/08/2013  14:50:00     -142.714      -36.119       -0.136      149.763       83.268       49.140    22429.090     6933.574     2414.725        2.672        1.589      147.213       68.573        0.217      343.468       19.598      859.501
11/08/2013  14:51:00     -229.316     -108.236       -0.038      170.030      168.896       75.542    28910.269    28525.797     5706.578        6.371        3.157      253.576       77.959        0.095      343.435       19.542      859.494
11/08/2013  14:52:00     -305.525      -25.598      -22.094      126.761      103.681       60.686    16068.375    10749.722     3682.811        6.249        1.525      306.596       57.727        0.035      343.434       19.539      859.487
11/08/2013  14:53:00     -347.004      -22.534      -11.473      153.922      144.124       70.995    23692.018    20771.871     5040.258        8.527        2.475      347.735       70.805        0.041      343.216       19.168      859.491
11/08/2013  14:54:00     -361.807      -65.934      -36.354      165.933      107.147       58.701    27533.784    11480.377     3445.770        8.951        2.123      367.766       52.507        0.020      343.312       19.331      859.484
11/08/2013  14:55:00     -307.650     -146.522      -11.389      170.831      108.861       75.852    29183.356    11850.719     5753.529        8.151        2.339      340.760       67.476        0.039      343.296       19.303      859.503
11/08/2013  14:56:00     -349.202      -77.417       -5.695      241.881      140.588       70.960    58506.307    19765.020     5035.386       10.562        4.165      357.680       90.055        0.063      343.177       19.101      859.484
11/08/2013  14:57:00     -224.462      -58.509        0.891      176.179      119.835       69.209    31039.144    14360.445     4789.942        5.199        2.509      231.962       74.207        0.102      343.333       19.369      859.456
11/08/2013  14:58:00     -470.146       -6.096      -18.505      205.681      197.791       95.554    42304.844    39121.256     9130.631       15.597        4.528      470.186       96.903        0.042      343.220       19.175      859.407
11/08/2013  14:59:00     -393.986      -68.944       -2.202      181.701      150.829       82.482    33015.182    22749.425     6803.288       11.126        3.128      399.972       94.229        0.056      343.270       19.259      859.410
11/08/2013  15:00:00     -352.322     -118.427      -16.542      171.284      131.034       68.062    29338.083    17170.040     4632.369        9.478        2.557      371.693       49.606        0.018      343.298       19.309      859.432
11/08/2013  15:01:00     -353.753      -60.094      -17.460      162.547      134.570       75.110    26421.627    18109.076     5641.527        8.961        2.509      358.821       81.115        0.051      343.383       19.452      859.457
11/08/2013  15:02:00     -285.311      -52.851      -12.207      129.708      115.645       60.397    16824.135    13373.720     3647.745        5.909        1.692      290.165       55.178        0.036      343.393       19.469      859.453
11/08/2013  15:03:00     -285.801        7.321       -4.694      205.250      105.809       72.762    42127.615    11195.601     5294.252        7.018        2.931      285.895       87.272        0.093      343.351       19.399      859.426
11/08/2013  15:04:00     -419.020     -197.637      -11.279      211.632      174.220      104.694    44788.263    30352.741    10960.887       15.042        4.305      463.291      111.887        0.058      343.176       19.099      859.429
11/08/2013  15:05:00     -396.326     -256.237       -4.883      186.504      152.785      102.660    34783.560    23343.109    10539.020       14.570        3.433      471.945       90.166        0.037      343.112       18.990      859.421
11/08/2013  15:06:00     -309.587     -184.961       -3.762      171.357      171.756       87.721    29363.279    29500.164     7695.005        9.830        3.328      360.631       96.326        0.071      343.080       18.935      859.440
11/08/2013  15:07:00     -270.213      -88.609        9.603      182.380      150.902       74.526    33262.514    22771.435     5554.127        7.126        3.079      284.370       73.736        0.067      343.137       19.032      859.429
11/08/2013  15:08:00     -184.495     -187.672       -2.011      127.299      102.666       55.173    16205.142    10540.390     3044.074        4.952        1.489      263.172       66.371        0.064      343.098       18.968      859.412
11/08/2013  15:09:00     -141.557      -27.762       10.413      114.558      109.094       56.099    13123.634    11901.477     3147.065        2.454        1.409      144.254       59.781        0.172      343.268       19.257      859.400
11/08/2013  15:10:00     -281.371      -83.938        3.579      215.390      143.120       77.331    46392.987    20483.220     5980.093        7.953        3.643      293.624      109.086        0.138      343.293       19.300      859.417
11/08/2013  15:11:00     -345.172     -116.622        4.499      207.637      143.739       73.532    43113.317    20661.028     5406.995       10.096        3.459      364.341       91.578        0.063      343.119       19.002      859.425
11/08/2013  15:12:00     -317.989      -18.986       -7.732      180.656      132.314       78.160    32636.703    17507.063     6108.951        7.889        2.813      318.555       86.909        0.074      343.223       19.180      859.383
11/08/2013  15:13:00     -273.940     -158.458       -1.849      137.965      140.210       78.097    19034.261    19658.798     6099.199        7.247        2.240      316.468       80.028        0.064      343.220       19.173      859.396
11/08/2013  15:14:00     -262.298      -64.676      -14.014      157.902      101.693       61.383    24933.132    10341.369     3767.882        5.610        1.952      270.154       68.888        0.065      343.244       19.214      859.414
11/08/2013  15:15:00     -306.175      -55.989      -26.174      155.341      126.928       65.327    24130.800    16110.632     4267.557        7.103        2.225      311.252       76.856        0.061      343.289       19.292      859.433
11/08/2013  15:16:00     -317.364      -55.191      -12.654      141.522      103.243       68.650    20028.577    10659.162     4712.875        6.966        1.770      322.127       76.178        0.056      343.143       19.044      859.433
11/08/2013  15:17:00     -211.616       -5.176        0.262      152.239      101.626       63.342    23176.861    10327.936     4012.206        4.116        1.876      211.679       66.781        0.100      343.215       19.167      859.427
11/08/2013  15:18:00     -415.815      -34.640      -32.024      156.762      119.420       69.306    24574.241    14261.176     4803.331       10.938        2.182      417.255       57.819        0.019      343.172       19.094      859.405
11/08/2013  15:19:00     -401.978     -124.013      -21.767      215.605      160.820       81.595    46485.382    25863.099     6657.734       12.821        3.950      420.673      101.210        0.058      343.090       18.953      859.399
11/08/2013  15:20:00     -346.711      -60.167       -8.593      188.823      127.978       75.279    35654.200    16378.323     5666.900        9.079        2.885      351.893       73.080        0.043      343.123       19.009      859.386
11/08/2013  15:21:00     -326.301     -143.471       -6.744      138.958      157.016       75.741    19309.211    24654.054     5736.732        8.839        2.485      356.449       52.283        0.022      343.114       18.994      859.369
11/08/2013  15:22:00     -413.618     -130.663      -22.936      153.599      163.780       74.086    23592.599    26823.848     5488.676       12.228        2.795      433.766       73.787        0.029      343.117       19.000      859.373
11/08/2013  15:23:00     -277.198     -136.504        5.452      160.632      117.839       57.522    25802.664    13886.040     3308.758        6.924        2.150      308.986       76.398        0.061      343.105       18.980      859.372
11/08/2013  15:24:00     -290.570      -32.572      -15.939      178.960      134.804       82.419    32026.716    18172.217     6792.866        7.136        2.850      292.390       80.477        0.076      343.188       19.120      859.364
11/08/2013  15:25:00     -320.339      -35.422       -7.391      172.323      152.753       74.770    29695.218    23333.439     5590.479        8.126        2.931      322.291       89.067        0.076      343.151       19.056      859.366
11/08/2013  15:26:00     -161.068      -24.391      -10.793      135.132       72.607       53.256    18260.781     5271.794     2836.204        2.651        1.318      162.904       65.140        0.160      343.188       19.122      859.373
11/08/2013  15:27:00     -231.875      -87.634      -12.624      154.992       77.684       54.488    24022.479     6034.827     2968.941        4.731        1.651      247.882       54.956        0.049      343.068       18.917      859.377
11/08/2013  15:28:00     -403.299       35.772      -27.388      125.132       96.033       60.922    15658.116     9222.424     3711.471        9.663        1.430      404.883       55.906        0.019      343.161       19.074      859.370
11/08/2013  15:29:00     -156.849      -55.189       15.745      150.546      104.404       59.853    22664.124    10900.107     3582.322        3.251        1.857      166.276       55.142        0.110      343.177       19.103      859.355
11/08/2013  15:30:00     -337.378      -17.430      -13.736      169.959       94.613       63.402    28886.107     8951.580     4019.836        7.808        2.093      337.828       78.713        0.054      343.201       19.142      859.356
11/08/2013  15:31:00     -297.857      -51.952      -24.885      124.954       73.278       57.106    15613.403     5369.623     3261.125        5.814        1.212      302.354       61.771        0.042      343.144       19.045      859.354
11/08/2013  15:32:00     -199.696      -69.720        3.094      142.111       96.127       57.548    20195.553     9240.436     3311.813        3.874        1.637      211.517       61.653        0.085      343.091       18.955      859.345
11/08/2013  15:33:00     -274.699      -11.679      -15.550      108.151      105.828       58.144    11696.699    11199.608     3380.746        5.105        1.314      274.947       48.561        0.031      343.028       18.846      859.337
11/08/2013  15:34:00     -396.483      -17.271      -25.187      199.291      146.428       68.201    39716.990    21441.077     4651.355       11.196        3.290      396.859       84.586        0.045      343.004       18.808      859.312
11/08/2013  15:35:00     -268.479      -35.372      -17.425      185.005       86.068       64.641    34226.687     7407.635     4178.409        5.972        2.291      270.800       83.483        0.095      343.150       19.057      859.316
11/08/2013  15:36:00     -178.627      -31.391       -1.915       85.631       83.166       59.820     7332.726     6916.601     3578.403        2.536        0.891      181.364       41.809        0.053      343.174       19.097      859.333
11/08/2013  15:37:00     -151.663       19.714       -1.504      130.497       81.787       57.595    17029.568     6689.073     3317.159        2.521        1.352      152.939       67.866        0.197      343.155       19.064      859.326
11/08/2013  15:38:00     -199.532      -79.215       -7.619       95.002       59.788       46.385     9025.414     3574.569     2151.604        3.045        0.738      214.681       48.694        0.051      343.029       18.849      859.331
11/08/2013  15:39:00     -134.097      -50.795       -9.155       72.357       70.628       34.465     5235.525     4988.292     1187.815        1.603        0.571      143.395       29.243        0.042      343.215       19.168      859.338
11/08/2013  15:40:00     -245.215      -47.426      -14.864      100.769       55.495       37.736    10154.421     3079.688     1424.032        3.863        0.733      249.759       42.019        0.028      343.042       18.873      859.338
11/08/2013  15:41:00     -158.749       64.162        1.438      101.782       87.387       59.386    10359.652     7636.433     3526.652        2.542        1.076      171.226       48.158        0.079      343.223       19.180      859.337
11/08/2013  15:42:00     -339.154        5.261      -21.276      186.200      123.600       78.523    34670.507    15276.994     6165.801        8.580        2.806      339.195       61.031        0.032      343.027       18.846      859.325
11/08/2013  15:43:00     -394.396      -45.924      -18.250      166.061      129.225       76.243    27576.125    16699.155     5813.024       10.403        2.504      397.060       73.436        0.034      342.952       18.717      859.288
11/08/2013  15:44:00     -334.103      -80.012       -9.317      186.703      112.595       63.304    34857.888    12677.540     4007.397        8.482        2.577      343.550       65.417        0.036      343.009       18.814      859.305
11/08/2013  15:45:00     -336.943     -173.157      -11.734      135.747      126.889       68.981    18427.183    16100.763     4758.336        9.146        1.964      378.833       72.709        0.037      342.898       18.626      859.326
11/08/2013  15:46:00     -239.745      -83.334       -5.622      173.428      135.539       73.980    30077.355    18370.878     5473.080        5.918        2.696      253.816       88.432        0.121      342.957       18.728      859.351
11/08/2013  15:47:00     -333.261     -112.338       -3.774      106.086       87.830       53.396    11254.226     7714.166     2851.178        7.275        1.091      351.686       49.929        0.020      342.927       18.675      859.351
11/08/2013  15:48:00     -375.828      -85.250      -13.891      110.135       89.679       50.706    12129.647     8042.411     2571.137        8.572        1.137      385.375       54.413        0.020      342.861       18.564      859.352
11/08/2013  15:49:00     -283.233      -93.352      -13.534       76.658       74.007       41.473     5876.485     5477.000     1720.016        5.109        0.654      298.221       36.343        0.015      342.891       18.614      859.374
11/08/2013  15:50:00     -268.985      -59.982      -16.904      101.604       57.382       40.371    10323.300     3292.731     1629.842        4.574        0.762      275.592       43.553        0.025      342.930       18.682      859.386
11/08/2013  15:51:00     -322.915      -49.398      -14.369      149.690      109.556       66.892    22407.057    12002.493     4474.602        7.290        1.944      326.672       69.212        0.045      342.936       18.692      859.394
11/08/2013  15:52:00     -205.316       -8.665      -22.592      141.049      101.971       75.912    19894.940    10398.187     5762.607        3.939        1.803      205.498       70.552        0.118      342.951       18.717      859.371
11/08/2013  15:53:00     -421.823     -162.493      -19.457      157.763      125.109       83.765    24889.260    15652.231     7016.501       12.613        2.378      452.038       73.917        0.027      342.776       18.419      859.342
11/08/2013  15:54:00     -310.503      -81.254      -12.054      157.241      142.601       69.003    24724.684    20334.937     4761.431        7.648        2.491      320.958       60.350        0.035      342.879       18.596      859.377
11/08/2013  15:55:00     -394.873     -113.373      -17.413      180.805      119.721       67.393    32690.527    14333.014     4541.812       11.031        2.578      410.826       79.575        0.038      342.811       18.479      859.370
11/08/2013  15:56:00     -383.479      -65.339      -13.746      131.288      128.194       65.454    17236.508    16433.649     4284.273        9.473        1.898      389.005       64.927        0.028      342.827       18.506      859.371
11/08/2013  15:57:00     -295.037       36.317      -11.605      145.016       94.832       76.891    21029.610     8993.165     5912.236        6.221        1.797      297.264       80.563        0.073      342.948       18.714      859.367
11/08/2013  15:58:00     -194.552       -3.466       -8.448       91.310       97.911       46.624     8337.446     9586.611     2173.754        2.901        1.005      194.583       37.672        0.037      342.902       18.633      859.378
11/08/2013  15:59:00     -247.216      -13.212      -12.183      152.635       85.573       57.859    23297.296     7322.675     3347.687        4.770        1.698      247.569       66.265        0.072      342.948       18.714      859.358
11/08/2013  16:00:00     -330.138      -20.280      -14.310       92.421      101.303       54.272     8541.694    10262.219     2945.499        6.567        1.087      330.760       46.375        0.020      342.882       18.598      859.363
11/08/2013  16:01:00     -201.061      -65.648       -1.276       99.757       72.204       42.693     9951.370     5213.413     1822.695        3.086        0.849      211.507       30.832        0.021      342.842       18.531      859.375
11/08/2013  16:02:00     -201.789      -71.841      -13.310      114.698       82.324       53.248    13155.563     6777.292     2835.390        3.441        1.138      214.196       52.443        0.060      342.739       18.356      859.381
11/08/2013  16:03:00     -403.180      -26.472       -5.336      191.239      159.239       75.984    36572.294    25357.131     5773.534       11.548        3.385      404.048       82.092        0.041      342.794       18.450      859.371
11/08/2013  16:04:00     -327.449      -89.164       -1.861      181.269      117.607       78.261    32858.345    13831.367     6124.815        8.399        2.641      339.372       83.550        0.061      342.724       18.331      859.390
11/08/2013  16:05:00     -270.257      -60.137       -4.342      139.325       87.498       63.609    19411.466     7655.976     4046.117        5.389        1.556      276.867       68.544        0.061      342.762       18.395      859.387
11/08/2013  16:06:00     -290.732      -90.676      -11.103      106.166       91.177       59.589    11271.244     8313.304     3550.871        5.800        1.157      304.544       53.101        0.030      342.679       18.255      859.384
11/08/2013  16:07:00     -405.731      -93.869      -18.475      169.257      135.281       73.518    28647.899    18300.818     5404.843       11.305        2.618      416.448       76.803        0.034      342.680       18.255      859.383
11/08/2013  16:08:00     -461.256     -135.546      -29.481      160.507      149.760       74.858    25762.474    22428.194     5603.655       14.289        2.690      480.760       84.433        0.031      342.635       18.180      859.363
11/08/2013  16:09:00     -312.285      -67.848      -45.243      122.480      108.810       55.573    15001.461    11839.588     3088.408        6.705        1.496      319.571       54.343        0.029      342.632       18.175      859.368
11/08/2013  16:10:00     -133.036      -36.403       -7.812       91.366       60.314       37.039     8347.745     3637.822     1371.876        1.622        0.668      137.927       41.679        0.091      342.716       18.319      859.363
11/08/2013  16:11:00     -192.698       -1.583       -6.212      189.572      100.973       44.548    35937.539    10195.544     1984.541        4.264        2.406      192.705       57.596        0.089      342.666       18.234      859.361
11/08/2013  16:12:00     -151.143      -41.025       -6.850       94.217       84.506       35.667     8876.873     7141.247     1272.123        2.093        0.865      156.612       35.231        0.051      342.721       18.328      859.368
11/08/2013  16:13:00     -263.884     -114.615      -11.454      132.490      109.721       53.730    17553.486    12038.728     2886.907        5.769        1.624      287.701       63.648        0.049      342.620       18.153      859.374
11/08/2013  16:14:00     -185.316      -61.054       -5.245       81.935       98.979       44.112     6713.298     9796.815     1945.839        2.827        0.923      195.114       36.964        0.036      342.616       18.147      859.378
11/08/2013  16:15:00     -289.772        0.504      -14.498      160.936       92.284       63.503    25900.435     8516.308     4032.612        6.131        1.922      289.773       78.865        0.074      342.662       18.226      859.370
11/08/2013  16:16:00     -144.168      -44.874       20.505      133.887       74.754       57.161    17925.749     5588.122     3267.419        2.500        1.339      150.991       68.414        0.205      342.600       18.121      859.358
11/08/2013  16:17:00     -183.108      -47.588        7.561      132.824       78.147       73.116    17642.243     6107.019     5345.941        3.247        1.455      189.191       77.750        0.169      342.533       18.008      859.355
11/08/2013  16:18:00     -145.883      -96.115        5.486      163.410      132.439       72.306    26702.865    17540.078     5228.101        4.000        2.474      174.699       73.715        0.178      342.508       17.966      859.351
11/08/2013  16:19:00     -198.714      -86.864       -7.701      158.424       85.888       54.735    25098.013     7376.795     2995.933        4.128        1.774      216.870       67.242        0.096      342.499       17.948      859.343
11/08/2013  16:20:00     -312.237      -31.577        0.918      147.050      110.574       69.061    21623.764    12226.610     4769.353        6.855        1.931      313.830       74.651        0.057      342.528       17.997      859.358
11/08/2013  16:21:00     -262.952       11.864       -0.614      138.720      102.527       55.440    19243.348    10511.726     3073.640        5.105        1.641      263.219       71.344        0.073      342.561       18.054      859.354
11/08/2013  16:22:00     -242.209      -16.285       -7.712      124.239      103.762       63.074    15435.345    10766.570     3978.281        4.458        1.509      242.756       62.895        0.067      342.601       18.122      859.343
11/08/2013  16:23:00     -330.664      -62.199      -17.275      110.672      104.127       67.591    12248.213    10842.380     4568.526        7.058        1.383      336.463       62.892        0.035      342.447       17.860      859.350
11/08/2013  16:24:00     -311.477      -49.317       -2.837      164.854      126.765       66.839    27176.933    16069.402     4467.395        7.358        2.386      315.357       79.149        0.063      342.444       17.855      859.350
11/08/2013  16:25:00     -280.005      -32.588        1.967      173.104       91.436       77.200    29965.054     8360.581     5959.892        6.187        2.214      281.895       85.983        0.093      342.466       17.893      859.341
11/08/2013  16:26:00     -308.218      -92.704       -8.867      150.963      170.080       62.527    22789.783    28927.323     3909.598        7.964        2.781      321.857       54.499        0.029      342.406       17.789      859.342
11/08/2013  16:27:00     -300.927     -130.418        2.538      135.325      112.241       66.185    18312.835    12598.122     4380.488        7.143        1.765      327.972       64.230        0.038      342.326       17.656      859.330
11/08/2013  16:28:00     -274.808      -16.468      -11.177      142.970       96.412       58.825    20440.282     9295.328     3460.416        5.455        1.660      275.301       74.542        0.073      342.365       17.721      859.339
11/08/2013  16:29:00     -329.939     -134.811      -11.185      144.433      128.975       56.019    20860.783    16634.653     3138.141        8.389        2.032      356.418       53.759        0.023      342.304       17.617      859.348
11/08/2013  16:30:00     -330.182      -89.672       -8.895      151.886      109.581       59.365    23069.206    12007.990     3524.228        7.786        1.930      342.142       51.128        0.022      342.253       17.530      859.338
11/08/2013  16:31:00     -248.725      -70.192        5.708      154.597      104.217       53.374    23900.154    10861.279     2848.779        5.221        1.881      258.440       63.796        0.061      342.300       17.610      859.356
11/08/2013  16:32:00     -326.568        7.491      -11.212      150.603      123.206       71.502    22681.127    15179.728     5112.545        7.489        2.149      326.654       67.153        0.042      342.333       17.667      859.347
11/08/2013  16:33:00     -432.051     -126.804      -28.896      173.036      111.452       66.401    29941.496    12421.476     4409.027       12.517        2.339      450.275       74.063        0.027      342.182       17.410      859.329
11/08/2013  16:34:00     -359.609     -192.426      -16.920      127.722      139.841       73.274    16312.788    19555.469     5369.123       10.393        2.062      407.856       63.489        0.024      342.151       17.356      859.333
11/08/2013  16:35:00     -302.944     -139.629        1.359      150.694      132.921       74.024    22708.584    17667.899     5479.597        7.856        2.293      333.574       83.918        0.063      342.142       17.342      859.329
11/08/2013  16:36:00     -302.050      -73.235       -0.679      219.736      142.714       76.723    48284.082    20367.165     5886.343        8.556        3.727      310.801       98.483        0.100      342.115       17.295      859.301
11/08/2013  16:37:00     -473.618      -76.007      -23.448      184.265      156.903       84.706    33953.596    24618.634     7175.096       14.818        3.287      479.678       88.870        0.034      342.138       17.337      859.311
11/08/2013  16:38:00     -458.047     -117.874      -23.005      182.054      169.658       79.722    33143.583    28783.855     6355.653       14.625        3.414      472.971       75.621        0.026      342.134       17.328      859.318
11/08/2013  16:39:00     -442.435      -78.394      -14.383      180.574      116.930       72.110    32607.112    13672.574     5199.878       12.678        2.574      449.327       87.834        0.038      342.190       17.422      859.321
11/08/2013  16:40:00     -195.544      -23.511       -3.874      118.914       83.414       51.467    14140.650     6957.832     2648.839        3.127        1.187      196.953       58.058        0.087      342.155       17.365      859.310
11/08/2013  16:41:00     -144.481      -86.655       11.627      149.043      112.555       69.032    22213.699    12668.740     4765.386        3.408        1.982      168.475       74.138        0.194      342.052       17.190      859.310
11/08/2013  16:42:00     -220.345     -103.579       -7.956      138.517      141.383       79.198    19186.954    19989.153     6272.264        5.239        2.272      243.476       79.559        0.107      342.050       17.186      859.294
11/08/2013  16:43:00     -266.986      -67.990        7.833      182.968      123.180       85.485    33477.304    15173.221     7307.734        6.595        2.798      275.507       96.743        0.123      342.017       17.129      859.306
11/08/2013  16:44:00     -320.310      -40.452      -11.264      113.826       99.196       60.800    12956.302     9839.807     3696.632        6.542        1.325      322.854       66.219        0.042      341.998       17.097      859.314
11/08/2013  16:45:00     -277.635     -141.743       -1.834      159.807      124.138       65.030    25538.233    15410.300     4228.901        7.117        2.259      311.725       71.132        0.052      341.945       17.007      859.300
11/08/2013  16:46:00     -253.578     -101.286        5.819      138.019      123.206       55.740    19049.234    15179.722     3106.951        5.596        1.867      273.058       65.668        0.058      341.966       17.043      859.300
11/08/2013  16:47:00     -338.058     -114.778       -4.212      153.594      126.006       70.370    23591.229    15877.548     4951.876        8.594        2.221      357.011       79.114        0.049      341.925       16.972      859.302
11/08/2013  16:48:00     -327.615      -29.177      -16.360      155.951      110.815       75.927    24320.625    12280.012     5764.961        7.540        2.118      328.912       77.295        0.055      341.959       17.030      859.294
11/08/2013  16:49:00     -263.494      -71.719      -14.538      113.220      115.900       58.543    12818.712    13432.728     3427.281        5.223        1.484      273.081       59.725        0.048      341.905       16.938      859.310
11/08/2013  16:50:00     -501.300      -38.442      -28.423      165.083      144.906       72.783    27252.477    20997.704     5297.296       15.356        2.677      502.772       75.985        0.023      341.937       16.992      859.307
11/08/2013  16:51:00     -247.593      -99.237       -9.197      127.151      130.868       62.097    16167.340    17126.433     3856.054        5.419        1.857      266.740       47.976        0.032      341.871       16.882      859.328
11/08/2013  16:52:00     -284.256      -25.547      -14.939      115.022      109.120       62.619    13230.117    11907.175     3921.146        5.536        1.453      285.401       57.091        0.040      341.952       17.019      859.320
11/08/2013  16:53:00     -171.402      -34.551       -9.513      125.009       91.129       47.802    15627.145     8304.525     2284.991        2.844        1.311      174.849       54.226        0.096      341.891       16.916      859.325
11/08/2013  16:54:00     -174.077      -68.763        3.595      139.831      117.740       49.364    19552.605    13862.804     2436.772        3.544        1.793      187.166       42.358        0.051      341.871       16.881      859.327
11/08/2013  16:55:00     -438.544     -198.548      -34.811      165.506      152.272       94.551    27392.239    23186.695     8939.980       14.623        2.976      481.396       85.725        0.032      341.813       16.782      859.335
11/08/2013  16:56:00     -444.921      -71.849      -14.597      185.862      140.820       76.927    34544.780    19830.327     5917.815       13.180        3.015      450.685       75.740        0.028      341.859       16.860      859.350
11/08/2013  16:57:00     -308.918      -82.777      -27.674      184.180      154.656       98.416    33922.219    23918.609     9685.779        8.528        3.376      319.816       69.863        0.048      341.841       16.831      859.336
11/08/2013  16:58:00     -310.335      -45.731       -6.700      131.404      135.274       73.929    17267.017    18298.981     5465.525        6.973        2.052      313.687       66.462        0.045      341.892       16.917      859.365
11/08/2013  16:59:00     -343.433      -88.844       -2.315      171.158      142.652       77.027    29294.915    20349.621     5933.100        9.070        2.779      354.739       88.484        0.062      341.832       16.815      859.375
11/08/2013  17:00:00     -313.979     -110.915       -9.358      155.903      125.332       72.404    24305.839    15708.011     5242.400        7.811        2.263      332.994       65.388        0.039      341.837       16.823      859.393
11/08/2013  17:01:00     -309.202      -92.456       -8.126      180.481      132.317       77.490    32573.375    17507.675     6004.630        8.014        2.804      322.729       76.908        0.057      341.831       16.812      859.408
11/08/2013  17:02:00     -265.803      -96.771      -15.258      122.727      137.873       72.616    15061.896    19009.050     5273.091        5.979        1.967      282.871       57.391        0.041      341.748       16.673      859.419
11/08/2013  17:03:00     -265.592      -73.937        0.852      130.191       99.679       55.925    16949.662     9935.977     3127.641        5.300        1.501      275.691       56.946        0.043      341.745       16.667      859.425
11/08/2013  17:04:00     -271.935      -54.598      -16.228      130.777      128.202       60.418    17102.706    16435.670     3650.323        5.718        1.859      277.362       52.188        0.035      341.746       16.670      859.424
11/08/2013  17:05:00     -306.046     -111.454       -2.356      159.907      128.223       75.161    25570.298    16441.096     5649.111        7.687        2.383      325.708       74.539        0.052      341.695       16.583      859.407
11/08/2013  17:06:00     -324.869      -55.249      -16.852      169.926      118.139       71.403    28874.896    13956.810     5098.443        7.840        2.397      329.534       83.968        0.065      341.793       16.749      859.423
11/08/2013  17:07:00     -316.605      -94.061       -4.683      151.471      113.267       69.426    22943.348    12829.521     4819.907        7.484        2.030      330.282       80.444        0.059      341.699       16.590      859.445
11/08/2013  17:08:00     -350.067     -134.781      -15.361      182.869      171.443       73.353    33440.929    29392.540     5380.591       10.457        3.411      375.117       81.265        0.047      341.689       16.573      859.431
11/08/2013  17:09:00     -416.497       -2.288      -29.610      183.328      132.540       79.016    33609.313    17566.889     6243.511       11.588        2.871      416.503       82.290        0.039      341.723       16.631      859.420
11/08/2013  17:10:00     -429.133      -62.463      -15.638      174.041      143.563       83.501    30290.181    20610.466     6972.478       12.308        2.894      433.655       88.866        0.042      341.677       16.553      859.425
11/08/2013  17:11:00     -358.325      -72.090      -10.137      158.912      120.058       70.178    25252.916    14414.004     4924.962        8.914        2.230      365.505       82.058        0.050      341.649       16.506      859.442
11/08/2013  17:12:00     -383.968      -55.832      -19.205      151.455      149.148       77.240    22938.599    22245.193     5965.983       10.102        2.557      388.006       74.770        0.037      341.604       16.428      859.452
11/08/2013  17:13:00     -309.689      -63.737       -0.253      134.811      126.958       64.071    18174.080    16118.366     4105.078        6.918        1.920      316.180       57.437        0.033      341.590       16.405      859.474
11/08/2013  17:14:00     -280.512      -87.429        9.829      143.005      155.075       66.613    20450.314    24048.325     4437.239        6.767        2.447      293.821       69.207        0.055      341.587       16.400      859.487
11/08/2013  17:15:00     -353.319       12.667      -21.916      134.034      107.816       58.707    17965.153    11624.391     3446.464        7.925        1.652      353.546       52.686        0.022      341.599       16.420      859.476
11/08/2013  17:16:00     -282.117      -79.855      -18.756      111.031       87.899       47.856    12327.850     7726.279     2290.240        5.433        1.117      293.201       43.958        0.022      341.543       16.326      859.484
11/08/2013  17:17:00     -391.889     -102.189      -13.122      163.749      146.894       79.445    26813.767    21577.762     6311.571       10.944        2.735      404.993       79.915        0.039      341.526       16.296      859.492
11/08/2013  17:18:00     -298.938     -136.283      -22.926      170.558       90.107       64.744    29090.174     8119.221     4191.765        7.492        2.070      328.538       79.507        0.059      341.485       16.227      859.503
11/08/2013  17:19:00     -187.798     -101.952       -5.032      173.025      115.267       56.941    29937.492    13286.589     3242.258        4.607        2.323      213.688       75.548        0.125      341.507       16.265      859.491
11/08/2013  17:20:00     -315.993     -109.658       -5.114      153.884      109.552       70.385    23680.416    12001.556     4954.071        7.626        2.032      334.480       78.929        0.056      341.459       16.182      859.507
11/08/2013  17:21:00     -359.085     -155.460        0.091      171.785      174.102       83.426    29510.039    30311.376     6959.915       10.993        3.339      391.292       83.809        0.046      341.492       16.238      859.501
11/08/2013  17:22:00     -369.435      -73.966        1.495      166.445      147.215       82.218    27703.998    21672.132     6759.878        9.904        2.807      376.767       83.039        0.049      341.490       16.235      859.516
11/08/2013  17:23:00     -540.344      -90.492      -31.269      144.814      116.413       77.464    20971.204    13551.876     6000.615       17.082        2.026      547.869       78.555        0.021      341.502       16.255      859.528
11/08/2013  17:24:00     -393.307      -73.489      -12.194      161.019      118.042       73.106    25927.144    13933.973     5344.451       10.272        2.260      400.114       78.564        0.039      341.443       16.156      859.558
11/08/2013  17:25:00     -376.321      -17.869       -6.410      131.551      136.246       70.413    17305.678    18563.065     4958.005        9.140        2.041      376.745       75.049        0.040      341.490       16.237      859.577
11/08/2013  17:26:00     -299.761      -20.652      -16.300      134.295      106.502       54.527    18035.262    11342.579     2973.209        6.144        1.618      300.472       65.143        0.047      341.456       16.176      859.567
11/08/2013  17:27:00     -312.216     -103.871        4.813      171.285       93.881       67.803    29338.634     8813.648     4597.233        7.551        2.137      329.041       81.948        0.062      341.424       16.123      859.546
11/08/2013  17:28:00     -388.740     -121.767      -12.510      141.230      103.036       61.016    19945.853    10616.466     3723.004       10.019        1.714      407.365       57.859        0.020      341.368       16.029      859.577
11/08/2013  17:29:00     -345.613      -77.737        1.322      167.121      124.889       77.830    27929.512    15597.199     6057.524        8.753        2.479      354.248       82.134        0.054      341.395       16.074      859.575
11/08/2013  17:30:00     -354.859      -82.141      -27.026      148.253      123.527       79.565    21978.959    15259.040     6330.542        8.848        2.178      364.242       76.809        0.044      341.416       16.110      859.556
11/08/2013  17:31:00     -399.854      -33.764      -23.265      220.773      139.801       79.198    48740.671    19544.373     6272.260       11.805        3.728      401.277      104.013        0.067      341.393       16.071      859.565
11/08/2013  17:32:00     -424.597      -96.222      -23.437      130.329      152.302       66.659    16985.727    23195.943     4443.441       11.735        2.231      435.364       61.691        0.020      341.361       16.016      859.559
11/08/2013  17:33:00     -364.612      -23.112      -21.293      201.587      114.258       66.504    40637.429    13054.790     4422.805        9.601        2.906      365.344       80.343        0.048      341.313       15.936      859.578
11/08/2013  17:34:00     -194.010      -21.790       12.597      151.591      101.489       68.530    22979.959    10299.964     4696.311        3.812        1.899      195.230       65.635        0.113      341.289       15.895      859.578
11/08/2013  17:35:00     -206.107      -35.618       12.316      164.595      106.365       71.742    27091.502    11313.570     5146.959        4.372        2.178      209.162       85.348        0.167      341.295       15.907      859.581
11/08/2013  17:36:00     -394.652      -95.923      -13.566      121.269      117.657       52.965    14706.105    13843.077     2805.309        9.824        1.568      406.142       52.199        0.017      341.289       15.894      859.593
11/08/2013  17:37:00     -341.107      -40.709      -11.788      141.538      116.359       58.391    20032.866    13539.314     3409.554        7.756        1.849      343.528       62.589        0.033      341.256       15.841      859.602
11/08/2013  17:38:00     -238.243      -70.613        0.206      136.525      124.811       73.652    18639.204    15577.736     5424.608        5.069        1.982      248.487       69.737        0.079      341.235       15.805      859.603
11/08/2013  17:39:00     -372.545      -98.034      -24.969      193.279      138.948       74.745    37356.738    19306.652     5586.802       10.563        3.113      385.228       96.028        0.062      341.259       15.845      859.600
11/08/2013  17:40:00     -388.225     -152.196      -10.835      192.919      141.926       83.839    37217.835    20143.039     7028.908       11.918        3.219      416.992       97.211        0.054      341.271       15.866      859.628
11/08/2013  17:41:00     -281.115      -57.151       -5.777      124.180      136.864       66.308    15420.549    18731.734     4396.703        6.043        1.927      286.866       59.122        0.042      341.240       15.813      859.632
11/08/2013  17:42:00     -474.643      -48.345      -25.345      180.946      126.802       71.895    32741.359    16078.683     5168.829       14.112        2.699      477.098       81.600        0.029      341.247       15.823      859.660
11/08/2013  17:43:00     -496.811      -68.605      -12.517      210.532      116.261       88.413    44323.611    13516.520     7816.944       15.866        3.283      501.525      103.478        0.043      341.216       15.772      859.666
11/08/2013  17:44:00     -421.777      -70.420      -24.304      167.615      109.427       67.032    28094.702    11974.224     4493.317       11.400        2.228      427.615       72.982        0.029      341.221       15.781      859.679
11/08/2013  17:45:00     -375.522       28.733      -11.313      179.681      111.920       68.037    32285.371    12526.169     4629.049        9.570        2.472      376.619       69.426        0.034      341.174       15.701      859.678
11/08/2013  17:46:00     -381.704      -78.823      -25.117      199.483      152.408       69.792    39793.550    23228.213     4870.972       11.021        3.395      389.758       70.541        0.033      341.177       15.705      859.693
11/08/2013  17:47:00     -188.056      -90.134       -8.103      138.865      106.375       62.069    19283.373    11315.723     3852.549        3.900        1.723      208.540       56.246        0.073      341.137       15.638      859.703
11/08/2013  17:48:00     -282.014      -43.497       -1.587      126.573      150.451       69.321    16020.638    22635.585     4805.469        6.244        2.173      285.348       60.824        0.045      341.145       15.651      859.726
11/08/2013  17:49:00     -308.074      -44.260      -17.643      158.417      135.094       59.688    25096.079    18250.263     3562.606        7.204        2.345      311.237       64.785        0.043      341.139       15.639      859.741
11/08/2013  17:50:00     -419.158      -66.821      -33.294      112.932      120.997       52.697    12753.532    14640.185     2777.007       10.571        1.509      424.451       44.183        0.011      341.140       15.642      859.771
11/08/2013  17:51:00     -291.477      -16.950       -6.607      140.344       85.517       56.231    19696.385     7313.105     3161.874        5.773        1.509      291.970       68.896        0.056      341.115       15.600      859.778
11/08/2013  17:52:00     -359.904       -9.140      -12.115      204.365      110.598       67.932    41764.897    12231.871     4614.778        9.418        2.931      360.020       83.647        0.054      341.102       15.579      859.774
11/08/2013  17:53:00     -351.578      -59.317       -5.917      170.680      158.387       85.644    29131.497    25086.559     7334.884        9.435        3.078      356.546       85.564        0.058      341.122       15.613      859.780
11/08/2013  17:54:00     -256.457     -114.483        2.889      169.588      181.745       70.614    28759.967    33031.286     4986.342        7.282        3.339      280.850       72.748        0.067      341.071       15.527      859.777
11/08/2013  17:55:00     -351.985      -42.712      -14.486      161.906      107.512       57.867    26213.635    11558.869     3348.569        8.352        2.056      354.567       65.903        0.035      341.073       15.529      859.791
11/08/2013  17:56:00     -362.461      -45.249      -14.145      160.970      116.155       73.220    25911.184    13492.078     5361.215        8.919        2.238      365.274       80.608        0.049      341.073       15.528      859.810
11/08/2013  17:57:00     -483.116      -15.612      -26.579      180.665      122.661       71.631    32639.912    15045.768     5130.979       14.358        2.641      483.368       79.024        0.027      341.154       15.667      859.805
11/08/2013  17:58:00     -255.603      -32.230      -11.211      198.306      120.174       67.465    39325.328    14441.722     4551.520        6.240        2.916      257.627       90.540        0.124      341.090       15.560      859.798
11/08/2013  17:59:00     -410.595      -69.046      -19.704      178.808      137.218       77.238    31972.387    18828.682     5965.756       11.525        2.838      416.360       67.681        0.026      341.056       15.501      859.803
11/08/2013  18:00:00     -414.505     -108.616      -23.988      131.379      111.865       69.525    17260.560    12513.667     4833.748       10.939        1.730      428.499       73.819        0.030      341.051       15.493      859.808
11/08/2013  18:01:00     -410.223      -65.442      -11.987      135.863      185.087       79.742    18458.716    34257.286     6358.738       11.588        2.954      415.410       70.878        0.029      341.052       15.495      859.822
11/08/2013  18:02:00     -419.895      -39.161      -19.745      143.247       94.468       67.544    20519.604     8924.296     4562.200       10.612        1.700      421.718       71.682        0.029      341.063       15.513      859.846
11/08/2013  18:03:00     -376.565     -202.693      -27.857      130.026      162.497       72.833    16906.689    26405.342     5304.709       11.613        2.431      427.651       54.461        0.016      341.072       15.528      859.845
11/08/2013  18:04:00     -289.629      -61.450       -7.119      140.839      131.458       66.833    19835.751    17281.141     4466.694        6.464        2.079      296.076       76.475        0.067      341.030       15.456      859.838
11/08/2013  18:05:00     -354.641      -48.693      -32.285      163.322      140.170       52.467    26674.238    19647.720     2752.761        8.912        2.454      357.968       56.127        0.025      341.018       15.437      859.853
11/08/2013  18:06:00     -166.109      -23.710       15.212      138.502       90.271       69.765    19182.872     8148.795     4867.134        3.029        1.610      167.793       78.045        0.216      340.945       15.314      859.853
11/08/2013  18:07:00     -368.359      -71.859       -7.727      226.055      132.184       83.421    51101.015    17472.508     6959.043       10.821        3.777      375.303      103.584        0.076      341.023       15.445      859.844
11/08/2013  18:08:00     -310.010      -37.504       -5.829      180.358      132.589       73.573    32529.170    17579.881     5412.942        7.652        2.776      312.270       84.538        0.073      341.007       15.419      859.854
11/08/2013  18:09:00     -298.594       -5.104       -4.692      148.480      114.168       75.167    22046.218    13034.233     5650.024        6.496        2.037      298.638       71.350        0.057      340.985       15.380      859.876
11/08/2013  18:10:00     -231.733      -73.559        9.899      148.308      103.152       67.421    21995.247    10640.408     4545.554        4.819        1.859      243.128       84.258        0.120      340.975       15.364      859.864
11/08/2013  18:11:00     -305.521      -98.953      -13.951      103.492       76.211       56.703    10710.592     5808.069     3215.218        6.153        0.987      321.146       51.551        0.026      340.978       15.367      859.889
11/08/2013  18:12:00     -369.854      -78.386      -21.574      179.110      145.883       63.870    32080.285    21281.816     4079.402       10.041        2.872      378.069       34.797        0.008      341.032       15.461      859.881
11/08/2013  18:13:00     -209.067      -53.932       -5.412      171.077      151.712       85.350    29267.377    23016.413     7284.625        5.310        2.978      215.911       95.544        0.196      340.977       15.367      859.884
11/08/2013  18:14:00     -221.539      -88.683       -2.741      121.625      126.170       65.549    14792.628    15918.886     4296.661        4.597        1.750      238.630       67.523        0.080      340.991       15.391      859.925
11/08/2013  18:15:00     -263.051     -205.584       -1.292      160.613      130.584       80.186    25796.413    17052.220     6429.849        8.036        2.464      333.857       92.564        0.077      341.012       15.426      859.922
11/08/2013  18:16:00     -185.981     -116.831        2.884      136.568       98.963       69.935    18650.756     9793.586     4890.883        4.079        1.667      219.632       76.279        0.121      340.949       15.318      859.909
11/08/2013  18:17:00     -149.972     -111.257       15.172      134.064      118.524       63.618    17973.097    14047.998     4047.202        3.558        1.803      186.735       68.571        0.135      340.915       15.262      859.938
11/08/2013  18:18:00     -223.189     -200.259       -3.800      123.844      103.948       66.148    15337.397    10805.224     4375.516        6.022        1.526      299.862       69.043        0.053      340.945       15.315      859.931
11/08/2013  18:19:00     -214.917      -61.609        9.929      154.422      114.715       64.560    23846.302    13159.493     4167.997        4.562        2.059      223.573       78.358        0.123      340.905       15.245      859.928
11/08/2013  18:20:00     -415.849     -108.186       -9.794      211.321      132.635       83.776    44656.688    17592.052     7018.415       12.699        3.463      429.691       93.404        0.047      340.957       15.334      859.955
11/08/2013  18:21:00     -270.240      -80.432       -1.178      151.190      140.313       73.973    22858.515    19687.668     5472.008        6.375        2.401      281.956       78.040        0.077      340.914       15.261      859.967
11/08/2013  18:22:00     -327.533      -56.171      -12.983      138.567      128.630       68.426    19200.850    16545.656     4682.131        7.551        2.021      332.315       55.438        0.028      340.931       15.287      859.965
11/08/2013  18:23:00     -310.144      -81.612      -10.975      160.159      126.714       75.800    25650.843    16056.451     5745.593        7.520        2.373      320.702       89.931        0.079      340.946       15.314      859.983
11/08/2013  18:24:00     -452.430      -58.698      -40.157      130.034      141.786       59.337    16908.946    20103.166     3520.895       12.514        2.027      456.222       62.547        0.019      341.001       15.408      859.973
11/08/2013  18:25:00     -269.603      -30.688        5.891      131.975       93.304       60.777    17417.466     8705.565     3693.884        5.173        1.491      271.344       71.218        0.069      340.896       15.231      859.976
11/08/2013  18:26:00     -327.311     -165.268      -11.704      164.154      124.030       62.106    26946.414    15383.440     3857.198        9.038        2.309      366.669       67.577        0.034      340.920       15.269      859.987
11/08/2013  18:27:00     -136.104      -21.958        9.276      140.479      100.071       65.747    19734.456    10014.189     4322.644        2.658        1.704      137.864       75.269        0.298      340.884       15.212      859.997
11/08/2013  18:28:00     -241.964     -123.924        3.897      128.402      107.900       73.218    16487.020    11642.399     5360.915        5.370        1.675      271.852       56.411        0.043      340.886       15.212      860.015
11/08/2013  18:29:00     -296.249      -94.674       -6.980      128.924      119.069       70.814    16621.394    14177.489     5014.623        6.629        1.791      311.009       67.645        0.047      340.906       15.246      860.012
11/08/2013  18:30:00     -374.596     -117.686       -9.034      200.952      119.924       85.989    40381.783    14381.879     7394.175       10.820        3.108      392.647       90.137        0.053      340.911       15.255      860.033
11/08/2013  18:31:00     -387.219     -116.354       -8.474      219.926      129.002       74.608    48367.242    16641.460     5566.300       11.705        3.529      404.322       95.679        0.056      340.911       15.257      860.067
11/08/2013  18:32:00     -318.972     -130.432       -8.582      175.057       99.268       65.206    30644.780     9854.106     4251.791        8.178        2.238      344.609       74.990        0.047      340.918       15.268      860.098
11/08/2013  18:33:00     -308.914     -155.746       -3.240      207.595      119.699       69.400    43095.630    14327.933     4816.297        9.096        3.112      345.955       68.955        0.040      340.937       15.299      860.109
11/08/2013  18:34:00     -180.318     -127.433        4.540      185.864      131.706       65.889    34545.502    17346.373     4341.313        5.249        2.812      220.803       87.635        0.158      340.851       15.154      860.120
11/08/2013  18:35:00     -163.737     -133.053        2.241      141.359      111.280       77.588    19982.243    12383.331     6019.851        4.145        1.919      210.981       69.000        0.107      340.865       15.179      860.126
11/08/2013  18:36:00     -149.778      -84.046       20.429       99.032       82.742       61.726     9807.273     6846.268     3810.100        2.519        1.023      171.747       52.677        0.094      340.821       15.104      860.136
11/08/2013  18:37:00     -221.387     -109.623       -5.148      115.523       76.987       47.418    13345.643     5927.023     2248.478        4.128        1.076      247.041       46.637        0.036      340.801       15.068      860.157
11/08/2013  18:38:00     -277.362     -211.077      -15.988      124.057      125.526       66.704    15390.144    15756.689     4449.482        7.866        1.780      348.545       67.915        0.038      340.836       15.129      860.164
11/08/2013  18:39:00     -223.658     -136.932       -4.529      130.009      116.722       67.418    16902.214    13623.910     4545.227        5.193        1.754      262.247       70.560        0.072      340.807       15.079      860.173
11/08/2013  18:40:00     -293.823      -53.272      -14.182      119.640      129.397       67.480    14313.726    16743.646     4553.516        6.248        1.781      298.613       62.426        0.044      340.827       15.112      860.173
11/08/2013  18:41:00     -194.698      -70.380        1.785      129.464      113.457       67.752    16761.020    12872.562     4590.311        3.854        1.711      207.029       69.178        0.112      340.812       15.088      860.159
11/08/2013  18:42:00     -381.990      -98.528      -15.089      163.385      126.575       85.435    26694.683    16021.139     7299.200       10.292        2.501      394.492       82.636        0.044      340.845       15.143      860.159
11/08/2013  18:43:00     -225.076      -51.531        8.401       97.577      100.110       57.388     9521.330    10022.050     3293.382        3.811        1.142      230.900       54.158        0.055      340.764       15.007      860.183
11/08/2013  18:44:00     -340.533      -63.003      -18.594       98.926      116.107       56.262     9786.359    13480.866     3165.429        7.335        1.322      346.312       46.309        0.018      340.827       15.112      860.206
11/08/2013  18:45:00     -305.767      -74.300        3.734      234.740      133.350       73.196    55103.058    17782.097     5357.615        8.862        3.912      314.665       96.175        0.093      340.825       15.109      860.200
11/08/2013  18:46:00     -258.834     -107.456        0.576      154.074      142.028       73.849    23738.668    20171.851     5453.658        6.394        2.468      280.253       83.693        0.089      340.810       15.085      860.227
11/08/2013  18:47:00     -165.018      -88.207        5.474      156.030       97.917       80.051    24345.412     9587.735     6408.213        3.768        2.017      187.114       93.550        0.250      340.749       14.982      860.244
11/08/2013  18:48:00     -227.299      -24.671        4.589      112.590      108.206       57.412    12676.523    11708.450     3296.136        3.998        1.384      228.634       52.966        0.054      340.806       15.079      860.272
11/08/2013  18:49:00      -97.831      -79.296       15.672      112.565       88.712       61.691    12670.898     7869.808     3805.788        2.022        1.217      125.931       56.192        0.199      340.742       14.971      860.296
11/08/2013  18:50:00     -227.513     -132.201       -4.510      125.640       82.207       56.819    15785.353     6758.053     3228.391        4.751        1.289      263.133       60.136        0.052      340.779       15.033      860.300
11/08/2013  18:51:00     -243.861     -147.140       -2.372      108.107       88.134       52.977    11687.064     7767.524     2806.577        5.169        1.113      284.813       47.161        0.027      340.783       15.037      860.304
11/08/2013  18:52:00     -204.610     -146.770        6.138      126.016      108.533       70.957    15880.084    11779.391     5034.924        4.806        1.635      251.807       70.411        0.078      340.726       14.944      860.308
11/08/2013  18:53:00     -249.967      -81.806       -8.549      116.338       86.385       55.992    13534.498     7462.291     3135.060        4.669        1.207      263.013       48.141        0.034      340.779       15.033      860.330
11/08/2013  18:54:00     -257.238     -120.798        4.784      170.286      137.737       76.670    28997.164    18971.562     5878.355        6.731        2.692      284.189       84.375        0.088      340.780       15.034      860.336
11/08/2013  18:55:00     -234.058      -87.344        0.262      132.894      134.114       50.379    17660.935    17986.565     2538.071        5.029        1.909      249.824       59.496        0.057      340.808       15.081      860.338
11/08/2013  18:56:00     -199.863     -168.337       -1.696      174.599      103.231       69.878    30484.877    10656.650     4882.947        5.715        2.301      261.309       85.505        0.107      340.765       15.008      860.340
11/08/2013  18:57:00     -286.334     -119.927      -16.975      146.672       99.739       64.561    21512.822     9947.929     4168.070        6.614        1.781      310.435       70.368        0.051      340.767       15.011      860.372
11/08/2013  18:58:00     -282.186     -123.154       -6.300      234.973      137.735       71.684    55212.088    18970.945     5138.601        8.707        3.966      307.889       96.621        0.098      340.804       15.075      860.387
11/08/2013  18:59:00     -247.795     -111.902      -11.972      131.537      106.775       60.992    17302.063    11400.833     3720.067        5.324        1.621      271.891       66.324        0.060      340.784       15.040      860.414
11/08/2013  19:00:00     -239.893     -214.624       -2.878      122.976      117.288       74.290    15123.188    13756.465     5519.075        6.900        1.720      321.888       68.353        0.045      340.791       15.052      860.424
11/08/2013  19:01:00     -179.526     -107.918       -5.924      124.035       97.242       55.606    15384.692     9456.005     3091.988        3.592        1.397      209.466       67.758        0.105      340.766       15.010      860.427
11/08/2013  19:02:00     -176.166      -93.127       -5.968      102.169       79.846       53.809    10438.600     6375.390     2895.403        2.972        0.985      199.266       61.184        0.094      340.758       14.995      860.435
11/08/2013  19:03:00     -200.987     -137.028      -16.311      117.912       98.747       60.198    13903.153     9750.943     3623.747        4.335        1.364      243.254       70.727        0.085      340.728       14.946      860.431
11/08/2013  19:04:00     -200.448     -115.721       -8.624      130.988       84.048       52.596    17157.817     7064.086     2766.324        4.031        1.349      231.453       59.026        0.065      340.702       14.902      860.462
11/08/2013  19:05:00     -222.874     -127.738       -2.912      116.900       97.213       58.184    13665.498     9450.433     3385.338        4.625        1.325      256.885       66.239        0.066      340.735       14.959      860.476
11/08/2013  19:06:00     -228.055      -58.140        1.591      101.772      121.666       53.841    10357.623    14802.533     2898.866        4.172        1.403      235.350       53.453        0.052      340.741       14.968      860.491
11/08/2013  19:07:00     -177.939      -82.477        7.235       96.323       82.806       43.137     9278.084     6856.815     1860.759        2.825        0.900      196.125       48.400        0.061      340.708       14.912      860.502
11/08/2013  19:08:00     -107.532     -120.250        7.765       87.013       80.280       46.786     7571.187     6444.900     2188.899        2.114        0.810      161.317       55.673        0.119      340.702       14.904      860.505
11/08/2013  19:09:00     -191.277     -128.938       -2.892      103.844       63.658       45.397    10783.611     4052.390     2060.861        3.506        0.845      230.677       52.000        0.051      340.692       14.886      860.499
11/08/2013  19:10:00     -179.462     -122.278      -15.136       98.260       64.314       40.573     9655.043     4136.320     1646.136        3.141        0.772      217.160       41.066        0.036      340.692       14.885      860.501
11/08/2013  19:11:00     -151.890      -54.763       -4.020       58.740       52.782       37.727     3450.406     2785.957     1423.311        1.687        0.383      161.461       37.472        0.054      340.670       14.850      860.486
11/08/2013  19:12:00      -41.087      -42.834        6.857       45.544       37.391       18.196     2074.245     1398.115      331.079        0.369        0.190       59.354       22.170        0.140      340.628       14.781      860.469
11/08/2013  19:13:00     -102.365       -9.961       -0.954       66.828       41.084       35.474     4465.954     1687.871     1258.387        0.899        0.371      102.848       38.621        0.141      340.618       14.762      860.471
11/08/2013  19:14:00     -165.579      -58.460      -13.466       78.570       83.443       40.931     6173.221     6962.752     1675.379        2.291        0.741      175.596       40.023        0.052      340.628       14.777      860.464
11/08/2013  19:15:00     -184.378     -134.872       -3.480      103.621       88.508       42.920    10737.221     7833.615     1842.165        3.630        1.021      228.442       55.821        0.060      340.647       14.809      860.444
11/08/2013  19:16:00     -177.519      -80.569        7.408      121.776       78.860       48.321    14829.363     6218.858     2334.879        3.072        1.169      194.947       53.614        0.076      340.591       14.715      860.453
11/08/2013  19:17:00     -122.783      -34.153       22.772       87.183       83.438       49.033     7600.842     6961.847     2404.233        1.686        0.848      127.445       51.811        0.165      340.576       14.691      860.464
11/08/2013  19:18:00     -279.528      -77.000      -14.368      111.985      123.369       57.333    12540.668    15219.914     3287.118        5.765        1.552      289.940       52.964        0.033      340.727       14.944      860.461
11/08/2013  19:19:00     -110.143     -100.974       -6.346       75.012       79.948       46.191     5626.869     6391.669     2133.584        1.826        0.708      149.423       40.144        0.072      340.633       14.788      860.474
11/08/2013  19:20:00     -205.029      -99.247       -2.327       85.892       81.141       45.774     7377.454     6583.858     2095.243        3.397        0.803      227.787       37.662        0.027      340.654       14.821      860.479
11/08/2013  19:21:00     -191.099      -84.104      -10.207       62.798       57.901       33.775     3943.601     3352.567     1140.763        2.607        0.422      208.788       26.978        0.017      340.597       14.723      860.494
11/08/2013  19:22:00     -169.158     -106.192      -10.299       94.072       86.965       48.976     8849.608     7562.826     2398.686        2.940        0.941      199.728       54.875        0.075      340.603       14.734      860.503
11/08/2013  19:23:00     -182.344      -78.631       -3.172       84.115       81.422       54.625     7075.290     6629.582     2983.892        2.806        0.834      198.576       52.743        0.071      340.535       14.618      860.517
11/08/2013  19:24:00      -93.065      -35.594       14.769       99.261       60.845       48.133     9852.688     3702.151     2316.817        1.301        0.794       99.640       55.871        0.314      340.445       14.469      860.542
11/08/2013  19:25:00     -256.066      -62.766      -25.539      106.482       69.452       53.627    11338.356     4823.536     2875.807        4.460        0.952      263.646       50.550        0.037      340.562       14.664      860.573
11/08/2013  19:26:00     -245.050      -59.549      -10.452      107.472       80.746       44.758    11550.210     6519.856     2003.234        4.189        1.004      252.181       50.836        0.041      340.621       14.766      860.592
11/08/2013  19:27:00     -152.454      -39.937       -5.602       81.633       65.665       40.639     6664.025     4311.932     1651.509        1.875        0.631      157.598       43.170        0.075      340.595       14.723      860.600
11/08/2013  19:28:00     -147.295       17.931       -9.497       73.224       41.432       24.872     5361.762     1716.634      618.632        1.490        0.385      148.382       32.190        0.047      340.609       14.748      860.598
11/08/2013  19:29:00     -114.211      -22.033        0.647       38.324       70.604       25.284     1468.758     4984.875      639.299        1.031        0.355      116.317       23.554        0.041      340.521       14.599      860.621
11/08/2013  19:30:00      -85.880       11.394      -10.818       21.222       23.065       15.867      450.372      531.987      251.775        0.443        0.062       86.633        9.853        0.013      340.567       14.678      860.630
11/08/2013  19:31:00      -56.660       -0.384       -7.533       25.676       22.841       10.577      659.243      521.732      111.879        0.228        0.065       56.662       11.689        0.043      340.482       14.532      860.640
11/08/2013  19:32:00      -88.325       70.205       -9.439       36.123       62.552       30.058     1304.837     3912.748      903.467        0.947        0.306      112.828       25.376        0.051      340.412       14.414      860.651
11/08/2013  19:33:00      -92.162       43.059        4.569       57.290       65.691       37.936     3282.197     4315.361     1439.174        0.970        0.452      101.725       32.552        0.102      340.462       14.499      860.646
11/08/2013  19:34:00     -146.137       45.883      -20.936       60.776       46.288       30.093     3693.758     2142.535      905.575        1.532        0.337      153.171       23.725        0.024      340.446       14.470      860.648
11/08/2013  19:35:00      -31.803       94.378      -15.395       33.365       34.619       19.188     1113.199     1198.487      368.177        0.642        0.134       99.592       17.576        0.031      340.523       14.605      860.656
11/08/2013  19:36:00      -37.271      100.883      -11.806       46.321       32.991       18.594     2145.625     1088.376      345.733        0.764        0.179      107.547       17.507        0.026      340.463       14.501      860.661
11/08/2013  19:37:00      -56.679       52.374      -10.509       43.482       22.288       15.642     1890.642      496.749      244.672        0.435        0.132       77.172       11.286        0.021      340.429       14.443      860.669
11/08/2013  19:38:00      -27.633       75.954      -10.621       34.460       30.234       17.064     1187.518      914.104      291.168        0.452        0.120       80.824       14.530        0.032      340.421       14.431      860.675
11/08/2013  19:39:00       -5.282       18.418       -4.193       25.974       31.890       16.353      674.648     1016.956      267.434        0.117        0.098       19.160       15.996        0.697      340.338       14.288      860.673
11/08/2013  19:40:00      -15.781       14.949        6.986       23.247       28.795       15.282      540.403      829.132      233.526        0.106        0.080       21.737       15.060        0.480      340.157       13.983      860.688
11/08/2013  19:41:00       -7.132       35.348       15.539       20.164       54.977       20.973      406.585     3022.492      439.859        0.270        0.193       36.060       26.866        0.555      340.277       14.185      860.699
11/08/2013  19:42:00       59.002       41.741       11.444       16.197       17.773       18.137      262.336      315.874      328.961        0.313        0.045       72.275        9.234        0.016      340.169       14.004      860.695
11/08/2013  19:43:00       34.035       33.037       15.247       15.539       11.664       12.892      241.445      136.045      166.198        0.151        0.027       47.432        9.212        0.038      340.106       13.899      860.705
11/08/2013  19:44:00       14.300       18.598       26.019       20.803       18.528       13.641      432.766      343.270      186.073        0.109        0.048       23.460       10.997        0.220      340.054       13.810      860.704
11/08/2013  19:45:00       65.771       40.706       13.445       37.228       20.305       24.884     1385.911      412.300      619.205        0.429        0.121       77.349       24.007        0.096      340.003       13.724      860.702
11/08/2013  19:46:00       99.622       45.376        6.434       25.046       26.528       23.772      627.294      703.733      565.132        0.696        0.095      109.469       19.172        0.031      339.858       13.478      860.705
11/08/2013  19:47:00       67.753       54.439       24.769       31.552       31.942       28.296      995.528     1020.268      800.689        0.549        0.141       86.914       23.701        0.074      339.824       13.422      860.699
11/08/2013  19:48:00        0.989       54.028       66.431       20.809       28.897       18.197      433.034      835.015      331.129        0.447        0.080       54.037       11.952        0.049      339.811       13.401      860.712
11/08/2013  19:49:00       60.173       17.483       28.462       37.886       24.383       23.845     1435.366      594.546      568.565        0.367        0.130       62.661       19.844        0.100      339.649       13.127      860.729
11/08/2013  19:50:00       58.388       53.843       30.494       37.227       31.958       31.228     1385.881     1021.322      975.160        0.531        0.169       79.424       22.588        0.081      339.605       13.053      860.737
11/08/2013  19:51:00        8.348       53.674       55.059       22.048       20.607       17.019      486.121      424.651      289.654        0.359        0.060       54.320       17.316        0.102      339.580       13.012      860.748
11/08/2013  19:52:00       27.808       41.007       50.168       25.040       22.912       16.656      627.010      524.962      277.421        0.320        0.071       49.546       15.100        0.093      339.594       13.034      860.756
11/08/2013  19:53:00       93.717       41.984       26.118       48.358       34.778       34.762     2338.511     1209.523     1208.424        0.799        0.238      102.691       29.957        0.085      339.671       13.163      860.757
11/08/2013  19:54:00      118.436       47.571        6.963       33.025       26.634       27.191     1090.674      709.387      739.335        0.944        0.127      127.633       12.239        0.009      339.850       13.465      860.761
11/08/2013  19:55:00      105.755       44.438        0.525       55.146       34.993       26.967     3041.076     1224.488      727.211        0.908        0.250      114.712       17.519        0.023      339.901       13.553      860.751
11/08/2013  19:56:00       24.476       71.580      -13.887       30.752       33.109       17.451      945.701     1096.237      304.531        0.413        0.117       75.649       20.279        0.072      340.088       13.869      860.761
11/08/2013  19:57:00       47.238       47.201       -0.174       28.919       21.013       17.509      836.306      441.565      306.564        0.302        0.079       66.778       11.438        0.029      339.959       13.649      860.769
11/08/2013  19:58:00       53.666       79.285       -8.609       29.094       62.635       24.356      846.466     3923.155      593.227        0.730        0.268       95.740       28.937        0.091      339.905       13.559      860.793
11/08/2013  19:59:00       54.084      113.688       -6.103       50.978       63.687       37.452     2598.714     4055.980     1402.660        1.197        0.403      125.897       39.885        0.100      339.968       13.664      860.808
11/08/2013  20:00:00      153.592       89.042       25.342       56.237       40.855       29.881     3162.577     1669.095      892.889        1.894        0.286      177.536       15.777        0.008      339.830       13.432      860.819
11/08/2013  20:01:00      121.210       73.888       27.110       49.762       39.528       34.226     2476.231     1562.454     1171.431        1.305        0.261      141.955       23.305        0.027      339.754       13.304      860.828
11/08/2013  20:02:00      169.543       97.565       27.254       59.502       47.940       42.558     3540.507     2298.251     1811.146        2.333        0.382      195.611       30.477        0.024      339.681       13.179      860.844
11/08/2013  20:03:00      189.499       88.406       20.460       53.665       41.797       37.833     2879.893     1747.025     1431.347        2.510        0.303      209.106       26.500        0.016      339.737       13.273      860.860
11/08/2013  20:04:00      136.583       57.119       26.640       54.828       43.148       33.864     3006.084     1861.720     1146.778        1.432        0.301      148.046       18.061        0.015      339.677       13.175      860.884
11/08/2013  20:05:00       83.767       39.376       50.662       46.998       36.653       34.418     2208.820     1343.433     1184.615        0.793        0.237       92.560       24.815        0.072      339.621       13.081      860.902
11/08/2013  20:06:00       40.684       26.052       46.601       43.029       42.100       27.476     1851.491     1772.382      754.946        0.444        0.219       48.310       25.817        0.286      339.638       13.109      860.920
11/08/2013  20:07:00       -2.558      -60.001        0.739       22.134       24.192       19.947      489.918      585.257      397.866        0.254        0.074       60.055       16.308        0.074      339.606       13.056      860.957
11/08/2013  20:08:00      -28.621      -43.330      -12.288       22.231       15.713        8.715      494.208      246.895       75.945        0.183        0.041       51.929        5.946        0.013      339.563       12.981      860.991
11/08/2013  20:09:00       12.283       11.262       41.511       28.621       53.028       36.857      819.138     2811.992     1358.460        0.349        0.249       16.664       39.629        5.655      339.641       13.112      861.008
11/08/2013  20:10:00       15.641       97.411       98.868       23.327       44.020       19.135      544.162     1937.754      366.151        1.118        0.142       98.658       24.685        0.063      339.523       12.915      861.004
11/08/2013  20:11:00       16.234       47.835       88.178       43.458       57.893       36.040     1888.559     3351.561     1298.891        0.843        0.327       50.514       34.394        0.464      339.375       12.666      861.004
11/08/2013  20:12:00       80.412       -4.790       72.106       66.167       89.420       62.848     4378.059     7995.992     3949.832        1.400        0.816       80.554       66.439        0.680      339.348       12.619      860.994
11/08/2013  20:13:00       32.184       61.305       89.193       51.728       64.275       44.536     2675.815     4131.313     1983.488        1.077        0.440       69.240       42.923        0.384      339.320       12.571      861.018
11/08/2013  20:14:00       94.411       76.141       76.472       58.187       38.923       36.245     3385.685     1515.035     1313.722        1.339        0.311      121.289       32.965        0.074      339.284       12.511      861.039
11/08/2013  20:15:00       96.290       14.247       20.384       62.094       35.311       34.467     3855.720     1246.869     1187.994        0.809        0.315       97.339       22.533        0.054      339.178       12.335      861.073
11/08/2013  20:16:00      116.019       39.841        5.741       45.017       34.417       22.910     2026.566     1184.535      524.869        0.941        0.187      122.669       19.209        0.025      339.051       12.119      861.091
11/08/2013  20:17:00       76.590       -2.521        8.522       54.557       32.624       22.527     2976.437     1064.345      507.466        0.525        0.227       76.632       21.954        0.082      339.038       12.098      861.103
11/08/2013  20:18:00       54.906       15.693       38.461       58.246       45.504       38.656     3392.652     2070.577     1494.313        0.585        0.348       57.104       39.018        0.467      338.965       11.976      861.106
11/08/2013  20:19:00       42.908       14.731       45.279       52.838       38.294       31.199     2791.876     1466.443      973.359        0.467        0.262       45.366       31.838        0.493      339.012       12.055      861.117
11/08/2013  20:20:00       59.179     -108.120      -11.685       31.879       31.277       22.235     1016.283      978.260      494.396        0.891        0.124      123.256       18.207        0.022      339.263       12.477      861.130
11/08/2013  20:21:00       25.214      -53.770        9.564       36.366       38.125       21.241     1322.489     1453.496      451.173        0.342        0.161       59.388       17.813        0.090      339.244       12.443      861.140
11/08/2013  20:22:00      -15.560       -6.925       15.738       20.400       10.058       11.304      416.176      101.169      127.775        0.059        0.032       17.031        8.973        0.278      339.046       12.111      861.157
11/08/2013  20:23:00        3.640      -47.496       -4.521       18.216       24.424       14.140      331.839      596.521      199.945        0.171        0.056       47.635       10.482        0.048      339.199       12.369      861.171
11/08/2013  20:24:00       12.523      -19.570        5.047       16.004       30.346       15.895      256.128      920.853      252.664        0.100        0.071       23.234       16.161        0.484      339.173       12.325      861.173
11/08/2013  20:25:00       30.949       15.866       -0.474       19.395       17.292       11.961      376.179      298.997      143.071        0.101        0.041       34.779       12.801        0.135      339.156       12.294      861.184
11/08/2013  20:26:00       24.335       13.440        5.438       11.511       14.553       10.345      132.511      211.794      107.019        0.063        0.023       27.800        9.034        0.106      339.114       12.225      861.195
11/08/2013  20:27:00       51.595       37.291       13.767       16.540       18.910       16.947      273.563      357.577      287.214        0.258        0.046       63.660        7.494        0.014      339.079       12.167      861.216
11/08/2013  20:28:00       25.837       26.860        1.592       15.292        8.415        9.026      233.845       70.816       81.462        0.089        0.019       37.270        8.123        0.048      339.046       12.111      861.229
11/08/2013  20:29:00       11.822       12.352       -1.348       19.593       14.793       11.428      383.867      218.844      130.605        0.051        0.037       17.098       11.113        0.422      338.989       12.015      861.259
11/08/2013  20:30:00      -29.907      -13.236       -6.201       23.191       13.212       11.410      537.828      174.557      130.195        0.098        0.042       32.705        8.915        0.074      338.980       12.000      861.276
11/08/2013  20:31:00      -10.819      -12.729        4.053       23.246       10.778       13.503      540.364      116.172      182.331        0.057        0.042       16.706        6.376        0.146      338.734       11.586      861.294
11/08/2013  20:32:00      -37.783      -31.898        4.762       24.148       22.437       14.516      583.105      503.408      210.701        0.188        0.065       49.447       10.634        0.046      338.916       11.893      861.321
11/08/2013  20:33:00      -68.093      -20.649       -1.420       28.346       17.976       13.707      803.476      323.145      187.871        0.319        0.066       71.155       12.044        0.029      338.819       11.730      861.319
11/08/2013  20:34:00      -83.660      -50.856       -1.458       30.917       27.486       17.902      955.849      755.488      320.495        0.581        0.102       97.905        7.771        0.006      338.917       11.894      861.328
11/08/2013  20:35:00      -84.050      -46.631        4.494       42.870       25.415       22.019     1837.863      645.924      484.818        0.611        0.148       96.119       19.376        0.041      338.861       11.800      861.330
11/08/2013  20:36:00      -90.552      -51.197        4.314       44.625       29.697       20.578     1991.360      881.902      423.446        0.707        0.165      104.023       19.905        0.037      338.927       11.911      861.326
11/08/2013  20:37:00      -74.965      -40.140        3.460       46.191       23.516       19.702     2133.569      553.001      388.177        0.516        0.154       85.035       17.139        0.041      339.014       12.058      861.329
11/08/2013  20:38:00      -68.227      -50.109        1.365       52.652       26.141       21.726     2772.242      683.373      472.030        0.555        0.196       84.651       21.820        0.066      338.991       12.018      861.319
11/08/2013  20:39:00      -78.472      -61.822        2.091       44.406       47.492       21.323     1971.910     2255.461      454.660        0.733        0.234       99.899       19.960        0.040      339.109       12.216      861.331
11/08/2013  20:40:00      -70.785      -85.777        2.779       37.698       41.995       23.897     1421.111     1763.543      571.083        0.807        0.188      111.213       24.529        0.049      339.183       12.341      861.329
11/08/2013  20:41:00      -84.019     -108.283       -3.922       31.345       37.272       21.875      982.482     1389.173      478.503        1.082        0.143      137.056       22.931        0.028      339.198       12.367      861.340
11/08/2013  20:42:00      -55.420      -60.324       -1.537       48.815       37.077       20.009     2382.945     1374.733      400.370        0.543        0.208       81.917       17.694        0.047      339.191       12.356      861.343
11/08/2013  20:43:00      -20.304      -45.014       -2.425       38.690       19.691       14.124     1496.933      387.732      199.480        0.226        0.104       49.381       10.645        0.046      339.121       12.237      861.337
11/08/2013  20:44:00      -33.911      -15.829        5.113       20.568       32.249       15.741      423.039     1040.004      247.792        0.157        0.086       37.424       12.118        0.105      339.159       12.302      861.342
11/08/2013  20:45:00       -5.111       -2.010        3.265       30.533       18.668       14.185      932.275      348.509      201.226        0.076        0.074        5.492       10.253        3.485      339.047       12.113      861.341
11/08/2013  20:46:00       -1.218        6.727        3.159       12.298       10.681       12.348      151.245      114.088      152.478        0.024        0.021        6.836        6.488        0.901      338.834       11.754      861.353
11/08/2013  20:47:00       10.971       23.907        5.174        9.321        9.172        9.068       86.886       84.124       82.233        0.049        0.013       26.304        5.399        0.042      338.872       11.820      861.365
11/08/2013  20:48:00       -6.299       13.945       -1.175       12.191        7.833        5.671      148.614       61.352       32.158        0.024        0.012       15.301        4.388        0.082      338.936       11.926      861.379
11/08/2013  20:49:00      -36.170       21.070       -5.605        9.026       10.848        6.426       81.471      117.671       41.299        0.101        0.012       41.859        1.693        0.002      339.044       12.108      861.405
11/08/2013  20:50:00      -43.015       14.595       -3.811       17.027       10.422        9.559      289.915      108.627       91.367        0.128        0.024       45.424        6.589        0.021      338.857       11.794      861.427
11/08/2013  20:51:00      -62.607        3.266       -5.023       25.837       14.157       11.476      667.551      200.412      131.694        0.248        0.050       62.692       12.976        0.043      338.522       11.230      861.454
11/08/2013  20:52:00      -63.368      -10.176       -4.007       31.718       28.933       18.374     1006.016      837.123      337.587        0.316        0.109       64.180       12.339        0.037      338.236       10.749      861.474
11/08/2013  20:53:00      -50.948      -16.082        6.435       26.622       32.958       21.947      708.738     1086.205      481.680        0.259        0.114       53.425       14.938        0.078      338.134       10.579      861.484
11/08/2013  20:54:00      -78.396      -36.698       -2.221       38.188       25.266       17.432     1458.300      638.360      303.880        0.495        0.120       86.560       17.375        0.040      338.164       10.629      861.515
11/08/2013  20:55:00      -62.298      -30.196       -3.925       41.351       20.842       15.528     1709.877      434.402      241.123        0.360        0.119       69.230        8.567        0.015      338.131       10.574      861.540
11/08/2013  20:56:00      -80.529      -51.076       -7.639       21.834       19.659       17.514      476.733      386.464      306.756        0.516        0.058       95.361       11.655        0.015      338.162       10.625      861.547
11/08/2013  20:57:00      -61.287      -24.848        5.132       35.105       18.533       13.711     1232.390      343.489      187.992        0.308        0.088       66.132       13.876        0.044      338.213       10.712      861.557
11/08/2013  20:58:00      -26.919      -17.893        5.453       36.580       18.483       11.813     1338.062      341.612      139.549        0.145        0.091       32.323       14.997        0.215      338.264       10.796      861.549
11/08/2013  20:59:00       18.705      -11.580       11.581       11.082        9.286       10.138      122.812       86.232      102.785        0.046        0.016       21.999        4.703        0.046      338.307       10.870      861.549
11/08/2013  21:00:00      -31.161        1.433      -10.205       22.024        5.397        6.439      485.045       29.131       41.459        0.082        0.028       31.194        5.129        0.027      338.388       11.005      861.564
11/08/2013  21:01:00      -61.701       -3.568      -10.863        7.902       10.985       10.968       62.438      120.660      120.289        0.212        0.015       61.804        7.275        0.014      338.615       11.386      861.577
11/08/2013  21:02:00      -58.805        2.868      -12.440        6.837        8.281        7.685       46.748       68.577       59.056        0.190        0.009       58.875        2.215        0.001      338.364       10.963      861.592
11/08/2013  21:03:00      -81.762       18.557      -11.244       13.202       11.348        7.548      174.302      128.784       56.977        0.376        0.018       83.842        5.469        0.004      338.547       11.271      861.603
11/08/2013  21:04:00      -63.336        5.357       -5.975       10.905       10.537        7.085      118.914      111.036       50.202        0.218        0.014       63.562        4.336        0.005      338.710       11.545      861.606
11/08/2013  21:05:00      -31.991       -6.496       -1.067        9.610        7.211        5.410       92.350       51.998       29.269        0.062        0.009       32.644        4.775        0.021      338.648       11.442      861.621
11/08/2013  21:06:00       -4.966      -18.032        2.993       15.382        9.003       11.993      236.607       81.063      143.823        0.041        0.023       18.703        6.213        0.110      338.309       10.873      861.625
11/08/2013  21:07:00      -11.313      -22.222        6.429       26.284        9.515       10.820      690.862       90.536      117.075        0.078        0.045       24.936       10.901        0.191      337.944       10.262      861.621
11/08/2013  21:08:00      -67.044      -20.649      -13.100       13.045        9.950        8.466      170.171       98.999       71.676        0.272        0.017       70.152        5.630        0.006      337.843       10.090      861.624
11/08/2013  21:09:00      -70.828       -9.353      -18.628        7.398        7.359        5.726       54.734       54.155       32.789        0.280        0.007       71.443        1.566        0.000      337.799       10.016      861.622
11/08/2013  21:10:00      -74.988      -13.846      -12.501       12.294       12.095        9.309      151.141      146.299       86.662        0.318        0.019       76.255        8.241        0.012      337.813       10.040      861.625
11/08/2013  21:11:00      -90.241      -11.533      -12.335       18.232       19.783       11.827      332.391      391.380      139.868        0.465        0.043       90.975        8.526        0.009      337.677        9.811      861.649
11/08/2013  21:12:00      -87.802      -29.534       -9.403       27.112       19.339       18.515      735.035      374.003      342.795        0.506        0.073       92.636       17.901        0.037      337.607        9.695      861.661
11/08/2013  21:13:00      -99.646      -13.315       -9.733       21.975       16.429       13.496      482.916      269.915      182.148        0.557        0.047      100.531       12.618        0.016      337.613        9.706      861.681
11/08/2013  21:14:00      -89.846        1.384      -15.782       20.319       16.620       11.468      412.849      276.220      131.506        0.457        0.041       89.856        5.334        0.004      337.683        9.822      861.684
11/08/2013  21:15:00      -81.381       10.667      -12.417       11.504       12.905        9.839      132.342      166.542       96.802        0.364        0.020       82.077        4.299        0.003      338.097       10.517      861.681
11/08/2013  21:16:00      -70.054        4.684       -5.974       17.763       26.231       10.956      315.514      688.072      120.037        0.304        0.056       70.210       10.097        0.021      338.073       10.478      861.698
11/08/2013  21:17:00     -102.143      -24.042      -19.239       12.971       16.559        9.040      168.251      274.208       81.719        0.595        0.026      104.935        2.652        0.001      337.765        9.960      861.711
11/08/2013  21:18:00      -89.196      -26.982      -10.614       17.340       15.499       11.115      300.682      240.225      123.539        0.473        0.033       93.188        8.240        0.008      337.717        9.881      861.731
11/08/2013  21:19:00      -98.796       -4.778      -12.325       11.311       12.549        9.573      127.948      157.465       91.634        0.516        0.019       98.911        7.080        0.005      337.861       10.121      861.738
11/08/2013  21:20:00      -60.815      -29.046       -7.608       15.570       15.495       14.178      242.425      240.105      201.016        0.264        0.034       67.396       10.130        0.023      337.614        9.707      861.734
11/08/2013  21:21:00      -41.815      -18.893       -7.625       11.973       12.005       12.230      143.350      144.116      149.570        0.130        0.022       45.885        8.594        0.035      337.588        9.662      861.729
11/08/2013  21:22:00      -45.836      -13.166       -7.618       10.881       10.598       10.070      118.393      112.325      101.404        0.133        0.017       47.689        6.014        0.016      337.566        9.626      861.717
11/08/2013  21:23:00      -91.116      -20.632      -11.827       22.158       21.551       11.868      490.985      464.444      140.857        0.498        0.055       93.423        6.216        0.004      337.518        9.546      861.713
11/08/2013  21:24:00     -142.415      -29.475      -15.364       29.696       18.426       17.142      881.879      339.529      293.853        1.145        0.076      145.433       16.144        0.012      337.379        9.313      861.717
11/08/2013  21:25:00     -104.068      -18.684      -15.009       30.312       18.634       20.369      918.842      347.240      414.897        0.654        0.084      105.732       18.757        0.031      337.337        9.243      861.723
11/08/2013  21:26:00      -94.346      -15.977      -15.884       17.163       16.577       13.790      294.570      274.787      190.168        0.508        0.038       95.689        8.224        0.007      337.353        9.270      861.707
11/08/2013  21:27:00     -101.529       -9.121      -11.414       18.828       27.387       11.007      354.482      750.055      121.150        0.587        0.061      101.938        5.493        0.003      337.709        9.866      861.701
11/08/2013  21:28:00     -107.912      -31.220      -16.635       21.869       21.778       15.161      478.259      474.293      229.870        0.704        0.059      112.338       12.922        0.013      337.599        9.682      861.693
11/08/2013  21:29:00     -129.686      -49.353      -18.426       16.280       16.080       15.466      265.033      258.575      239.200        1.018        0.038      138.759        9.129        0.004      337.355        9.272      861.712
11/08/2013  21:30:00     -131.775      -55.616      -17.899       23.751       21.344       16.082      564.099      455.555      258.632        1.103        0.064      143.031       13.858        0.009      337.257        9.110      861.738
11/08/2013  21:31:00     -118.749      -49.126      -18.670       27.653       18.427       14.077      764.697      339.545      198.167        0.908        0.065      128.509       12.357        0.009      337.237        9.075      861.765
11/08/2013  21:32:00     -136.790      -17.169       -7.830       35.650       35.222       24.358     1270.956     1240.597      593.329        1.109        0.155      137.863       20.460        0.022      337.254        9.104      861.784
11/08/2013  21:33:00     -118.732        8.962      -11.450       46.514       35.636       20.780     2163.574     1269.926      431.826        0.909        0.193      119.070       11.891        0.010      337.329        9.228      861.795
11/08/2013  21:34:00      -96.363       10.657      -11.839       32.041       28.935       22.537     1026.605      837.210      507.931        0.596        0.119       96.951       16.330        0.028      337.336        9.242      861.802
11/08/2013  21:35:00     -209.333       57.065      -15.767       49.651       35.177       20.477     2465.269     1237.398      419.312        2.572        0.206      216.972       19.349        0.008      337.512        9.534      861.820
11/08/2013  21:36:00     -206.305       64.348      -30.799       34.620       27.528       26.624     1198.564      757.776      708.830        2.516        0.133      216.107       14.209        0.004      337.350        9.263      861.846
11/08/2013  21:37:00     -150.056       25.112      -10.078       31.232       36.172       23.510      975.455     1308.390      552.733        1.304        0.142      152.143       20.185        0.018      337.188        8.994      861.864
11/08/2013  21:38:00     -216.555       48.033      -21.643       25.929       26.936       18.332      672.297      725.541      336.057        2.570        0.087      221.818       11.819        0.003      337.234        9.068      861.866
11/08/2013  21:39:00     -160.001       31.313      -16.451       33.004       27.665       20.348     1089.241      765.358      414.030        1.456        0.113      163.037       18.440        0.013      337.276        9.141      861.860
11/08/2013  21:40:00      -24.143        0.411        8.245       64.082       30.670       23.428     4106.443      940.674      548.892        0.312        0.280       24.147       28.100        1.354      337.125        8.887      861.848
11/08/2013  21:41:00      -41.557      -16.632       -8.838       28.534       28.967       19.352      814.185      839.084      374.484        0.205        0.101       44.762       17.895        0.160      337.183        8.984      861.829
11/08/2013  21:42:00      -95.456      -36.316      -14.521       37.341       28.671       20.188     1394.317      822.006      407.551        0.663        0.131      102.131       12.793        0.016      337.193        9.002      861.818
11/08/2013  21:43:00     -150.009      -15.590       -8.753       55.161       55.438       26.551     3042.734     3073.419      704.976        1.482        0.341      150.817       26.082        0.030      336.966        8.621      861.816
11/08/2013  21:44:00     -136.734      -31.346       -9.404       53.876       43.446       26.400     2902.649     1887.592      696.976        1.263        0.274      140.281       22.675        0.026      336.874        8.468      861.802
11/08/2013  21:45:00      -93.311      -16.445       -4.043       56.596       38.131       27.505     3203.060     1453.949      756.506        0.720        0.271       94.749       11.183        0.014      336.825        8.386      861.794
11/08/2013  21:46:00     -199.407       -9.013      -18.922       75.205       46.392       35.056     5655.821     2152.193     1228.945        2.462        0.452      199.611       35.088        0.031      336.880        8.476      861.797
11/08/2013  21:47:00     -246.241        2.845      -23.182       50.618       44.991       32.319     2562.133     2024.176     1044.492        3.340        0.282      246.257       24.464        0.010      336.956        8.600      861.819
11/08/2013  21:48:00     -194.839      -12.262      -14.232       60.574       50.777       37.681     3669.190     2578.348     1419.835        2.299        0.383      195.225       35.424        0.033      336.914        8.532      861.823
11/08/2013  21:49:00     -162.140       -3.786      -20.838       32.965       32.573       25.141     1086.673     1060.972      632.084        1.476        0.139      162.184       19.595        0.015      336.988        8.656      861.841
11/08/2013  21:50:00     -140.436      -29.525      -14.674       36.616       30.003       18.688     1340.763      900.191      349.228        1.170        0.130      143.506       19.881        0.019      337.087        8.823      861.849
11/08/2013  21:51:00      -92.818      -33.229       -0.506       23.028       24.110       14.526      530.277      581.314      211.001        0.552        0.066       98.586       15.332        0.024      337.146        8.922      861.842
11/08/2013  21:52:00     -108.885      -49.986       -0.282       31.813       24.865       19.025     1012.035      618.248      361.958        0.817        0.100      119.811        9.816        0.007      337.211        9.032      861.845
11/08/2013  21:53:00     -133.597      -88.269        0.011       60.588       42.893       28.018     3670.851     1839.821      785.005        1.597        0.315      160.123       25.500        0.025      337.229        9.062      861.857
11/08/2013  21:54:00     -105.017      -76.270        4.843       71.381       44.360       28.892     5095.190     1967.794      834.770        1.238        0.395      129.791       35.234        0.074      337.191        8.999      861.872
11/08/2013  21:55:00     -142.563      -98.032       -4.574       42.806       26.779       27.667     1832.324      717.131      765.448        1.663        0.166      173.016       21.383        0.015      337.225        9.055      861.884
11/08/2013  21:56:00     -107.711      -43.360       -4.285       22.940       25.794       17.333      526.231      665.354      300.447        0.750        0.075      116.110       11.891        0.010      337.210        9.032      861.877
11/08/2013  21:57:00      -79.351      -15.987       -7.521       21.921       14.056       12.880      480.511      197.564      165.889        0.373        0.042       80.946       11.095        0.019      337.193        9.002      861.868
11/08/2013  21:58:00     -104.555       -4.318       -8.635       26.585       19.610       15.353      706.742      384.562      235.725        0.618        0.066      104.644       14.392        0.019      337.148        8.927      861.863
11/08/2013  21:59:00     -158.410      -26.895      -18.554       37.851       33.208       19.692     1432.729     1102.772      387.766        1.454        0.146      160.676       16.755        0.011      337.123        8.884      861.877
11/08/2013  22:00:00     -165.271      -32.907       -5.709       42.481       26.773       23.841     1804.619      716.793      568.407        1.576        0.154      168.515       19.641        0.014      337.007        8.691      861.898
11/08/2013  22:01:00     -121.353      -36.852      -13.277       23.788       33.295       16.998      565.881     1108.559      288.949        0.911        0.098      126.825       10.298        0.007      336.997        8.673      861.910
11/08/2013  22:02:00      -63.369      -31.848        2.905       28.795       22.131       16.027      829.154      489.799      256.878        0.331        0.079       70.922       16.314        0.053      337.061        8.780      861.903
11/08/2013  22:03:00      -79.266      -30.512       -2.053       29.983       30.662       15.842      898.996      940.188      250.968        0.465        0.105       84.936       16.162        0.036      337.066        8.788      861.903
11/08/2013  22:04:00     -105.674      -37.305      -10.607       26.167       26.916       12.719      684.723      724.493      161.779        0.712        0.079      112.065       10.548        0.009      337.080        8.812      861.916
11/08/2013  22:05:00     -141.306       -9.494      -13.966       34.660       25.104       14.857     1201.326      630.226      220.718        1.115        0.103      141.625       12.757        0.008      336.962        8.613      861.918
11/08/2013  22:06:00      -96.981      -28.262       -0.337       37.634       34.957       19.871     1416.330     1222.019      394.854        0.662        0.152      101.015       17.119        0.029      336.818        8.374      861.923
11/08/2013  22:07:00      -50.133       -7.153       -5.406       26.752       23.860       17.122      715.653      569.303      293.147        0.209        0.079       50.641       13.782        0.074      336.859        8.443      861.922
11/08/2013  22:08:00      -58.688      -10.446       -2.514       27.923       32.241       21.830      779.720     1039.458      476.570        0.293        0.115       59.610       18.113        0.092      336.948        8.589      861.930
11/08/2013  22:09:00     -122.384       14.514      -10.199       63.963       27.947       21.573     4091.320      781.039      465.382        1.031        0.267      123.241       23.103        0.035      337.036        8.739      861.931
11/08/2013  22:10:00     -146.556       28.179      -10.755       49.705       37.842       26.812     2470.546     1432.025      718.892        1.350        0.231      149.240       19.844        0.018      336.974        8.634      861.937
11/08/2013  22:11:00     -126.620       10.799       -7.772       48.745       40.290       28.365     2376.086     1623.269      804.568        1.051        0.240      127.079       25.291        0.040      336.877        8.474      861.955
11/08/2013  22:12:00     -178.421       -9.216      -16.790       27.403       41.398       16.842      750.913     1713.785      283.639        1.747        0.137      178.659       13.105        0.005      336.892        8.498      861.949
11/08/2013  22:13:00     -121.888      -56.988       -3.659       45.195       40.426       26.108     2042.579     1634.256      681.645        1.124        0.218      134.552       25.218        0.035      336.713        8.201      861.947
11/08/2013  22:14:00      -89.997      -35.680       -8.111       46.579       28.136       20.105     2169.618      791.657      404.207        0.640        0.168       96.812       17.887        0.034      336.684        8.151      861.952
11/08/2013  22:15:00     -135.457      -49.464       -7.185       49.633       37.851       24.908     2463.472     1432.717      620.423        1.268        0.226      144.206       18.667        0.017      336.610        8.028      861.943
11/08/2013  22:16:00     -137.639      -63.474      -10.175       30.273       21.250       15.966      916.425      451.559      254.909        1.235        0.081      151.570        7.526        0.002      336.590        7.994      861.936
11/08/2013  22:17:00      -95.289      -38.324       -4.375       34.675       34.858       18.066     1202.338     1215.065      326.375        0.666        0.137      102.707       16.751        0.027      336.586        7.987      861.930
11/08/2013  22:18:00      -42.351       -8.358        1.865       28.855       30.510       16.122      832.584      930.831      259.912        0.194        0.101       43.168       11.956        0.077      336.632        8.064      861.913
11/08/2013  22:19:00      -97.528      -15.687       -3.086       54.931       36.071       25.949     3017.466     1301.131      673.361        0.738        0.250       98.781       26.167        0.070      336.483        7.815      861.923
11/08/2013  22:20:00      -55.620      -22.984        3.633       37.883       28.833       20.489     1435.093      831.362      419.794        0.316        0.134       60.182       17.691        0.086      336.447        7.754      861.932
11/08/2013  22:21:00      -53.246      -18.251       -6.621       25.648       20.518       15.836      657.804      420.975      250.786        0.227        0.066       56.287        7.843        0.019      336.474        7.799      861.940
11/08/2013  22:22:00      -42.500      -16.999       -6.551       20.335       16.081       12.636      413.520      258.600      159.672        0.148        0.042       45.773        8.124        0.031      336.589        7.993      861.950
11/08/2013  22:23:00      -54.354       -4.832       -6.380       16.989       24.524       14.903      288.637      601.404      222.088        0.207        0.056       54.568        9.206        0.028      336.527        7.890      861.946
11/08/2013  22:24:00      -95.210      -32.643       -9.032       26.284       24.466       18.400      690.869      598.603      338.550        0.592        0.081      100.650       10.561        0.011      336.526        7.886      861.941
11/08/2013  22:25:00     -143.761       -5.605       -5.503       43.466       46.096       24.887     1889.331     2124.855      619.368        1.268        0.232      143.871       21.750        0.023      336.612        8.032      861.957
11/08/2013  22:26:00     -127.146       -3.430      -10.787       40.814       39.761       26.001     1665.781     1580.926      676.034        1.011        0.196      127.192       24.040        0.036      336.507        7.856      861.953
11/08/2013  22:27:00     -146.393      -11.152       -8.857       43.036       30.862       22.740     1852.132      952.492      517.093        1.248        0.166      146.817       25.729        0.031      336.481        7.812      861.945
11/08/2013  22:28:00     -105.431      -20.822       -5.624       37.086       30.671       17.870     1375.373      940.708      319.319        0.711        0.132      107.468       18.824        0.031      336.534        7.900      861.946
11/08/2013  22:29:00      -77.315      -54.561        0.122       34.835       28.907       20.785     1213.468      835.613      432.028        0.572        0.124       94.628       18.697        0.039      336.624        8.051      861.936
11/08/2013  22:30:00      -81.329      -31.617       -4.652       22.638       19.313       14.417      512.472      372.981      207.838        0.436        0.055       87.258       14.212        0.027      336.639        8.075      861.928
11/08/2013  22:31:00     -102.019      -49.234      -12.100       17.313       20.720       10.202      299.744      429.327      104.084        0.691        0.042      113.278       10.373        0.008      336.583        7.982      861.935
11/08/2013  22:32:00     -141.054      -73.278       -8.013       27.344       18.153       15.359      747.668      329.530      235.911        1.332        0.066      158.953        8.583        0.003      336.523        7.882      861.933
11/08/2013  22:33:00     -148.918      -70.798      -12.462       36.109       35.335       20.090     1303.834     1248.539      403.603        1.515        0.148      164.890       12.213        0.005      336.462        7.780      861.919
11/08/2013  22:34:00      -97.740      -13.975       -3.468       56.216       40.884       28.566     3160.223     1671.536      816.031        0.770        0.282       98.734       29.761        0.091      336.407        7.689      861.917
11/08/2013  22:35:00      -89.247       -9.038      -10.966       50.639       44.349       22.592     2564.339     1966.811      510.383        0.660        0.252       89.703       21.566        0.058      336.447        7.755      861.902
11/08/2013  22:36:00     -100.994      -27.559       -3.073       33.593       38.944       18.986     1128.520     1516.641      360.485        0.699        0.150      104.687        9.229        0.008      336.476        7.803      861.888
11/08/2013  22:37:00      -78.186      -48.144       -4.177       21.077       30.028       17.116      444.224      901.697      292.965        0.504        0.082       91.820       11.366        0.015      336.437        7.739      861.890
11/08/2013  22:38:00      -86.170      -24.013      -13.469       39.497       28.199       20.421     1560.022      795.195      417.019        0.548        0.139       89.453       17.856        0.040      336.493        7.833      861.881
11/08/2013  22:39:00      -36.475      -26.348        1.838       45.759       26.949       23.707     2093.889      726.274      562.021        0.270        0.169       44.996       22.932        0.260      336.442        7.745      861.876
11/08/2013  22:40:00     -116.761        1.196      -19.966       36.156       27.081       21.285     1307.273      733.387      453.050        0.826        0.125      116.767       15.784        0.018      336.350        7.593      861.877
11/08/2013  22:41:00      -86.649      -19.749      -21.786       36.197       21.032       15.112     1310.191      442.328      228.380        0.518        0.099       88.871       14.963        0.028      336.361        7.610      861.867
11/08/2013  22:42:00      -66.553      -14.516      -12.428       20.755       19.942       14.957      430.754      397.689      223.722        0.292        0.053       68.118       14.028        0.042      336.497        7.837      861.849
11/08/2013  22:43:00      -50.421      -48.729        0.456       23.334       15.688       15.946      544.460      246.118      254.270        0.298        0.052       70.120       11.808        0.028      336.567        7.957      861.845
11/08/2013  22:44:00      -29.987      -26.442       -1.120       20.522       19.937       13.116      421.155      397.493      172.017        0.130        0.050       39.980        8.407        0.044      336.497        7.838      861.838
11/08/2013  22:45:00      -43.835      -24.555       -7.975       30.588       15.808       18.644      935.649      249.878      347.587        0.206        0.077       50.244       11.792        0.055      336.475        7.802      861.842
11/08/2013  22:46:00      -96.168      -30.694      -13.590       18.298       22.423       16.683      334.820      502.775      278.308        0.575        0.056      100.947       10.875        0.012      336.397        7.671      861.858
11/08/2013  22:47:00      -71.452      -54.485      -12.617       22.909       19.009       18.548      524.835      361.347      344.014        0.473        0.062       89.855       13.626        0.023      336.389        7.657      861.875
11/08/2013  22:48:00      -82.219      -30.354      -21.815       31.528       16.067       20.912      994.027      258.146      437.331        0.492        0.084       87.644       16.081        0.034      336.379        7.641      861.875
11/08/2013  22:49:00      -94.957      -43.818      -14.731       17.955       16.327       12.974      322.374      266.555      168.330        0.596        0.038      104.579        3.847        0.001      336.303        7.514      861.867
11/08/2013  22:50:00      -82.545      -54.643      -17.943       24.886       14.906       14.266      619.312      222.191      203.506        0.558        0.052       98.993       10.112        0.010      336.302        7.514      861.865
11/08/2013  22:51:00      -78.413      -40.827       -9.281       35.646       20.218       15.832     1270.656      408.764      250.650        0.492        0.097       88.405       11.536        0.017      336.275        7.469      861.864
11/08/2013  22:52:00      -92.772      -62.630      -11.448       20.290       20.387       16.981      411.675      415.634      288.353        0.689        0.056      111.934        8.348        0.006      336.259        7.441      861.866
11/08/2013  22:53:00     -103.671      -28.166       -5.154       25.443       19.193       15.030      647.358      368.383      225.900        0.640        0.062      107.429       14.446        0.018      336.227        7.387      861.881
11/08/2013  22:54:00      -95.719      -27.950       -7.270       28.395       18.626       15.638      806.258      346.943      244.532        0.570        0.070       99.716       12.762        0.016      336.300        7.509      861.892
11/08/2013  22:55:00     -104.025      -13.550      -11.201       18.384       11.741       11.156      337.965      137.858      124.448        0.587        0.030      104.904        9.938        0.009      336.428        7.723      861.870
11/08/2013  22:56:00      -75.634       -2.943      -11.530       18.539        9.738        9.279      343.695       94.821       86.096        0.319        0.026       75.691        8.602        0.013      336.420        7.710      861.827
11/08/2013  22:57:00      -45.760       31.434       -7.770       17.573       23.784       10.358      308.804      565.661      107.291        0.206        0.049       55.516       11.637        0.044      336.589        7.991      861.806
11/08/2013  22:58:00      -48.722       -6.905       -8.812       13.297       18.390       11.136      176.805      338.205      124.017        0.157        0.032       49.209        8.018        0.027      336.659        8.110      861.796
11/08/2013  22:59:00      -95.766      -43.466      -13.835       11.657       13.056        9.565      135.877      170.462       91.494        0.582        0.020      105.169        4.106        0.002      336.349        7.591      861.799
11/08/2013  23:00:00     -136.236      -51.638      -14.391       22.550       24.062       14.937      508.509      578.994      223.127        1.137        0.066      145.694       12.474        0.007      336.249        7.424      861.807
11/08/2013  23:01:00     -126.981      -33.328       -6.168       32.995       19.702       14.599     1088.654      388.181      213.141        0.948        0.084      131.282       14.225        0.012      336.166        7.284      861.824
11/08/2013  23:02:00      -92.458      -35.128        0.430       34.456       27.476       17.442     1187.196      754.931      304.208        0.601        0.112       98.906       17.584        0.032      336.116        7.201      861.825
11/08/2013  23:03:00     -101.124       -5.134        0.413       47.950       38.450       21.439     2299.206     1478.433      459.622        0.724        0.212      101.254       17.673        0.030      336.137        7.235      861.818
11/08/2013  23:04:00     -109.872      -10.093       -1.710       32.651       33.480       20.276     1066.107     1120.904      411.113        0.739        0.130      110.335       16.093        0.021      336.147        7.253      861.820
11/08/2013  23:05:00     -113.442      -28.448       -3.362       27.515       32.519       16.312      757.054     1057.511      266.087        0.788        0.104      116.955       14.399        0.015      336.235        7.399      861.832
11/08/2013  23:06:00      -88.012      -26.537        1.198       37.303       23.100       15.018     1391.525      533.590      225.532        0.530        0.108       91.925       13.412        0.021      336.202        7.344      861.823
11/08/2013  23:07:00      -55.993      -26.262       -1.301       18.280       18.087        9.506      334.164      327.123       90.369        0.229        0.038       61.846        7.873        0.016      336.291        7.494      861.809
11/08/2013  23:08:00      -72.499      -41.238        3.635       37.496       20.326       15.417     1405.963      413.157      237.696        0.451        0.103       83.407       20.693        0.062      336.403        7.681      861.810
11/08/2013  23:09:00      -46.289      -28.527        6.881       43.471       27.701       20.565     1889.712      767.369      422.937        0.304        0.154       54.373       23.815        0.192      336.244        7.416      861.823
11/08/2013  23:10:00      -76.844      -79.349        2.024       58.017       43.599       24.124     3365.989     1900.896      581.991        0.903        0.292      110.459       26.777        0.059      336.292        7.495      861.820
11/08/2013  23:11:00      -90.628      -50.191       -2.796       36.740       27.743       14.766     1349.848      769.682      218.028        0.654        0.117      103.598       13.584        0.017      336.407        7.687      861.809
11/08/2013  23:12:00      -81.142      -15.622      -12.334       20.345       14.160        8.617      413.928      200.519       74.252        0.383        0.034       82.632        8.819        0.011      336.431        7.727      861.805
11/08/2013  23:13:00      -48.136       -5.207       -1.146       23.409       21.851       11.892      547.969      477.481      141.423        0.176        0.058       48.417       11.442        0.056      336.435        7.734      861.776
11/08/2013  23:14:00      -15.501       -0.995       -3.361       11.930       17.069       11.558      142.314      291.336      133.594        0.041        0.028       15.533        7.218        0.216      336.491        7.830      861.762
11/08/2013  23:15:00       -9.868        6.404        0.260       17.369       18.280        8.536      301.690      334.151       72.865        0.042        0.035       11.764        9.958        0.716      336.543        7.916      861.756
11/08/2013  23:16:00     -123.838      -42.474      -19.601       25.620       18.687       12.180      656.396      349.207      148.342        0.934        0.058      130.920        4.713        0.001      336.425        7.717      861.755
11/08/2013  23:17:00     -133.821      -39.101       -9.684       38.437       36.154       22.351     1477.436     1307.142      499.554        1.141        0.164      139.417       20.748        0.022      336.274        7.466      861.745
11/08/2013  23:18:00     -172.392      -44.802      -15.606       45.339       28.303       21.618     2055.652      801.049      467.331        1.765        0.166      178.118       21.440        0.014      336.204        7.349      861.755
11/08/2013  23:19:00     -160.873      -35.210       -6.873       39.596       25.504       18.176     1567.862      650.457      330.353        1.486        0.127      164.681       14.645        0.008      336.203        7.348      861.767
11/08/2013  23:20:00     -126.204      -37.680        0.136       21.906       21.812       15.801      479.856      475.765      249.677        0.928        0.060      131.709       11.070        0.007      336.228        7.390      861.765
11/08/2013  23:21:00      -80.192      -34.436       -3.716       21.011       18.269       12.392      441.473      333.768      153.557        0.428        0.046       87.273        9.126        0.011      336.277        7.470      861.758
11/08/2013  23:22:00      -96.239      -31.536      -10.724       20.862       15.992        9.105      435.231      255.744       82.898        0.557        0.039      101.274        6.724        0.004      336.331        7.560      861.760
11/08/2013  23:23:00     -135.230      -46.137      -12.784       18.677       13.116        7.845      348.835      172.017       61.552        1.058        0.029      142.884        7.098        0.002      336.271        7.459      861.768
11/08/2013  23:24:00     -164.182      -52.743      -15.949       22.466       18.529       12.520      504.702      343.329      156.758        1.550        0.050      172.446        9.328        0.003      336.237        7.404      861.774
11/08/2013  23:25:00     -123.505      -38.281       -4.955       31.611       29.177       16.924      999.266      851.323      286.413        0.944        0.107      129.302       13.623        0.011      336.158        7.272      861.786
11/08/2013  23:26:00     -116.458      -44.488       -1.175       42.929       27.019       20.003     1842.899      730.051      400.113        0.926        0.149      124.666       14.147        0.013      336.166        7.285      861.807
11/08/2013  23:27:00      -60.500      -38.669        7.436       41.066       24.541       21.376     1686.410      602.246      456.918        0.398        0.137       71.802       23.224        0.105      336.201        7.342      861.799
11/08/2013  23:28:00      -49.910       -2.634       -6.077       20.417       23.927       15.177      416.869      572.511      230.344        0.188        0.061       49.980       13.545        0.073      336.389        7.658      861.764
11/08/2013  23:29:00      -39.051       39.456       -7.393       24.727       14.900       13.886      611.424      222.000      192.834        0.208        0.051       55.514       14.790        0.071      336.406        7.686      861.722
11/08/2013  23:30:00      -20.316        6.562       -3.382       20.137       18.341        7.127      405.493      336.384       50.799        0.063        0.040       21.349        8.609        0.163      336.546        7.921      861.705
11/08/2013  23:31:00      -63.297      -33.799       -8.044       16.623       13.278        9.998      276.309      176.300       99.958        0.288        0.028       71.756        7.915        0.012      336.417        7.705      861.719
11/08/2013  23:32:00      -28.025      -36.216       -1.360       40.387       39.521       27.795     1631.149     1561.935      772.563        0.303        0.198       45.793       17.882        0.152      336.205        7.350      861.764
11/08/2013  23:33:00     -128.291      -66.525       -8.298       40.005       41.771       23.571     1600.403     1744.831      555.576        1.243        0.195      144.514       21.895        0.023      336.124        7.216      861.789
11/08/2013  23:34:00     -114.670      -50.672       -8.172       24.520       20.246       19.845      601.231      409.886      393.816        0.859        0.070      125.367       10.865        0.008      336.148        7.254      861.794
11/08/2013  23:35:00     -120.611      -59.204       -5.018       21.638       22.570       16.866      468.212      509.398      284.478        0.967        0.063      134.358       14.761        0.012      336.084        7.147      861.804
11/08/2013  23:36:00      -31.397      -42.808       12.463       47.685       35.360       25.326     2273.849     1250.304      641.381        0.357        0.208       53.087       26.680        0.253      336.037        7.068      861.807
11/08/2013  23:37:00      -93.560      -83.515       -6.527       45.330       40.903       23.416     2054.805     1673.091      548.332        1.002        0.214      125.413       26.322        0.044      336.099        7.173      861.832
11/08/2013  23:38:00      -90.526      -82.851        2.268       30.214       47.063       19.667      912.893     2214.952      386.800        0.929        0.176      122.716       15.755        0.016      336.205        7.350      861.827
11/08/2013  23:39:00      -53.510      -50.180       -9.606       28.950       27.284       14.161      838.123      744.390      200.542        0.363        0.089       73.358       14.705        0.040      336.272        7.461      861.809
11/08/2013  23:40:00       12.685       -3.397        7.690       11.709       12.839       10.255      137.106      164.848      105.165        0.032        0.020       13.132        4.723        0.129      336.169        7.289      861.787
11/08/2013  23:41:00       -2.920       12.801       17.837       11.914       12.466        5.997      141.932      155.412       35.967        0.041        0.017       13.129        6.884        0.275      336.163        7.281      861.774
11/08/2013  23:42:00      -67.488      -22.243       -0.660       38.649       23.646       14.488     1493.763      559.110      209.895        0.366        0.113       71.059        7.852        0.012      336.294        7.499      861.791
11/08/2013  23:43:00     -118.020      -99.037        6.011       73.939       46.668       32.586     5466.947     2177.865     1061.835        1.624        0.435      154.068       33.774        0.048      336.185        7.316      861.819
11/08/2013  23:44:00     -133.067      -77.784        6.647       73.019       48.997       29.811     5331.812     2400.684      888.708        1.621        0.431      154.134       36.371        0.056      336.069        7.122      861.840
11/08/2013  23:45:00     -102.533      -44.996       -9.866       25.993       26.648       21.608      675.620      710.114      466.891        0.724        0.093      111.972       12.534        0.013      336.004        7.016      861.862
11/08/2013  23:46:00      -95.632      -21.064       -4.380       19.637       18.456       12.584      385.607      340.636      158.359        0.525        0.044       97.924       11.242        0.013      335.978        6.972      861.877
11/08/2013  23:47:00      -77.840      -36.437        0.976       27.140       22.961       19.108      736.592      527.220      365.118        0.451        0.081       85.946       15.105        0.031      336.059        7.106      861.881
11/08/2013  23:48:00      -53.993      -41.225        2.816       22.947       21.735       16.958      526.575      472.402      287.557        0.295        0.064       67.931       12.675        0.035      336.158        7.270      861.882
11/08/2013  23:49:00      -99.665      -44.853        0.750       35.340       23.174       17.193     1248.910      537.019      295.607        0.701        0.104      109.293       16.166        0.022      336.119        7.206      861.873
11/08/2013  23:50:00     -123.343      -34.375       -4.932       28.970       26.214       16.021      839.277      687.152      256.663        0.910        0.089      128.044       11.963        0.009      336.139        7.240      861.865
11/08/2013  23:51:00     -157.709      -43.449       -9.990       29.354       24.597       14.871      861.663      605.030      221.151        1.427        0.084      163.584       14.637        0.008      336.110        7.191      861.869
11/08/2013  23:52:00     -169.016      -59.056       -5.423       27.073       40.276       21.377      732.932     1622.181      456.956        1.745        0.141      179.036       14.431        0.006      335.981        6.976      861.872
11/08/2013  23:53:00     -166.522      -90.683       -4.483       45.336       37.711       24.711     2055.311     1422.094      610.630        2.003        0.204      189.612       18.936        0.010      335.934        6.897      861.876
11/08/2013  23:54:00     -133.624      -64.723        2.132       37.283       29.177       22.451     1390.045      851.289      504.047        1.240        0.137      148.474       16.794        0.013      335.898        6.837      861.879
11/08/2013  23:55:00     -131.953      -44.116       -7.727       29.855       18.506       14.209      891.326      342.477      201.883        1.043        0.072      139.132       13.211        0.009      335.994        6.998      861.874
11/08/2013  23:56:00     -116.048      -16.408      -12.913       14.576       13.486       14.937      212.457      181.884      223.120        0.726        0.031      117.202        8.476        0.005      336.014        7.030      861.875
11/08/2013  23:57:00     -112.546      -20.281      -16.551       12.669       15.633       14.799      160.502      244.379      219.001        0.699        0.031      114.358        8.250        0.005      335.996        7.001      861.886
11/08/2013  23:58:00     -136.711      -53.363      -16.250       25.591       18.965       15.515      654.910      359.681      240.714        1.153        0.063      146.757       12.931        0.008      335.856        6.767      861.880
11/08/2013  23:59:00      -89.193      -39.508       -8.899       53.157       31.767       30.454     2825.614     1009.132      927.416        0.718        0.238       97.551       30.696        0.099      335.851        6.759      861.873
